[[{"header":{"parameterUnit":"m.s-1","parameterCategory":1,"la1":31.0,"la2":29.5877,"lo1":-88.7671,"lo2":-86.6584,"dy":0.0162,"dx":0.0185,"nx":115,"ny":88,"refTime":"2025-03-04T06:00:00:Z","depth":0,"parameterNumber":2,"parameterNumberName":"U-component_of_WINDS"},"data":[0.0,0.0,0.0,0.0,0.0,0.0,0.0,0.0,0.0,0.0,0.0,0.0,0.0,0.0,0.0,0.0,0.0,0.0,0.0,0.0,0.0,0.0,0.0,0.0,0.0,0.0,0.0,0.0,0.0,0.0,0.0,0.0,0.0,0.0,0.0,0.0,0.0,0.0,0.0,0.0,0.0,0.0,0.0,0.0,0.0,0.0,0.0,0.0,0.0,0.0,0.0,0.0,0.0,0.0,0.0,0.0,0.0,0.0,0.0,0.0,0.0,0.0,0.0,0.0,0.0,0.0,0.0,0.0,0.0,0.0,0.0,0.0,0.0,0.0,0.0,0.0,0.0,0.0,0.0,0.0,0.0,0.0,0.0,0.0,0.0,0.0,0.0,0.0,0.0,0.0,0.0,0.0,0.0,0.0,0.0,0.0,0.0,0.0,0.0,0.0,0.0,0.0,0.0,0.0,0.0,0.0,0.0,0.0,0.0,0.0,0.0,0.0,0.0,0.0,0.0,0.0,0.0,0.0,0.0,0.0,0.0,0.0,0.0,0.0,0.0,0.0,0.0,0.0,0.0,0.0,0.0,0.0,0.0,0.0,0.0,0.0,0.0,0.0,0.0,0.0,0.0,0.0,0.0,0.0,0.0,0.0,0.0,0.0,0.0,0.0,0.0,0.0,0.0,0.0,0.0,0.0,0.0,0.0,0.0,0.0,0.0,0.0,0.0,0.0,0.0,0.0,0.0,0.0,0.0,0.0,0.0,0.0,0.0,0.0,0.0,0.0,0.0,0.0,0.0,0.0,0.0,0.0,0.0,0.0,0.0,0.0,0.0,0.0,0.0,0.0,0.0,0.0,0.0,0.0,0.0,0.0,0.0,0.0,0.0,0.0,0.0,0.0,0.0,0.0,0.0,0.0,0.0,0.0,0.0,0.0,0.0,0.0,0.0,0.0,0.0,0.0,0.0,0.0,0.0,0.0,0.0,0.0,0.0,0.0,0.0,0.0,0.0,0.0,0.0,0.0,0.0,0.0,0.0,0.0,0.0,0.0,0.0,0.0,0.0,0.0,0.0,0.0,0.0,0.0,0.0,0.0,0.0,0.0,0.0,0.0,0.0,0.0,0.0,0.0,0.0,0.0,0.0,0.0,0.0,0.0,0.0,0.0,0.0,0.0,0.0,0.0,0.0,0.0,0.0,0.0,0.0,0.0,0.0,0.0,0.0,0.0,0.0,0.0,0.0,0.0,0.0,0.0,0.0,0.0,0.0,0.0,0.0,0.0,0.0,0.0,0.0,0.0,0.0,0.0,0.0,0.0,0.0,0.0,0.0,0.0,0.0,0.0,0.0,0.0,0.0,0.0,0.0,0.0,0.0,0.0,0.0,0.0,0.0,0.0,0.0,0.0,0.0,0.0,0.0,0.0,0.0,0.0,0.0,0.0,0.0,0.0,0.0,0.0,0.0,0.0,0.0,0.0,0.0,0.0,0.0,0.0,0.0,0.0,0.0,0.0,0.0,0.0,0.0,0.0,0.0,0.0,0.0,0.0,0.0,0.0,0.0,0.0,0.0,0.0,0.0,0.0,0.0,0.0,0.0,0.0,0.0,0.0,0.0,0.0,0.0,0.0,0.0,0.0,0.0,0.0,0.0,0.0,0.0,0.0,0.0,0.0,0.0,0.0,0.0,0.0,0.0,0.0,0.0,0.0,0.0,0.0,0.0,0.0,0.0,0.0,0.0,0.0,0.0,0.0,0.0,0.0,0.0,0.0,0.0,0.0,0.0,0.0,0.0,0.0,0.0,0.0,0.0,0.0,0.0,0.0,0.0,0.0,0.0,0.0,0.0,0.0,0.0,0.0,0.0,0.0,0.0,0.0,0.0,0.0,0.0,0.0,0.0,0.0,0.0,0.0,0.0,0.0,0.0,0.0,0.0,0.0,0.0,0.0,0.0,0.0,0.0,0.0,0.0,0.0,0.0,0.0,0.0,0.0,0.0,0.0,0.0,0.0,0.0,0.0,0.0,0.0,0.0,0.0,0.0,0.0,0.0,0.0,0.0,0.0,0.0,0.0,0.0,0.0,0.0,0.0,0.0,0.0,0.0,0.0,0.0,0.0,0.0,0.0,0.0,0.0,0.0,0.0,0.0,0.0,0.0,0.0,0.0,0.0,0.0,0.0,0.0,0.0,0.0,0.0,0.0,0.0,0.0,0.0,0.0,0.0,0.0,0.0,0.0,0.0,0.0,0.0,0.0,0.0,0.0,0.0,0.0,0.0,0.0,0.0,0.0,0.0,0.0,0.0,0.0,0.0,0.0,0.0,0.0,0.0,0.0,0.0,0.0,0.0,0.0,0.0,0.0,0.0,0.0,0.0,0.0,0.0,0.0,0.0,0.0,0.0,0.0,0.0,0.0,0.0,0.0,0.0,0.0,0.0,0.0,0.0,0.0,0.0,0.0,0.0,0.0,0.0,0.0,0.0,0.0,0.0,0.0,0.0,0.0,0.0,0.0,0.0,0.0,0.0,0.0,0.0,0.0,0.0,0.0,0.0,0.0,0.0,0.0,0.0,0.0,0.0,0.0,0.0,0.0,0.0,0.0,0.0,0.0,0.0,0.0,0.0,0.0,0.0,0.0,0.0,0.0,0.0,0.0,0.0,0.0,0.0,0.0,0.0,0.0,0.0,0.0,0.0,0.0,0.0,0.0,0.0,0.0,0.0,0.0,0.0,0.0,0.0,0.0,0.0,0.0,0.0,0.0,0.0,0.0,0.0,0.0,0.0,0.0,0.0,0.0,0.0,0.0,0.0,0.0,0.0,0.0,0.0,0.0,0.0,0.0,0.0,0.0,0.0,0.0,0.0,0.0,0.0,0.0,0.0,0.0,0.0,0.0,0.0,0.0,0.0,0.0,0.0,0.0,0.0,0.0,0.0,0.0,0.0,0.0,0.0,0.0,0.0,0.0,0.0,0.0,0.0,0.0,0.0,0.0,0.0,0.0,0.0,0.0,0.0,0.0,0.0,0.0,0.0,0.0,0.0,0.0,0.0,0.0,0.0,0.0,0.0,0.0,0.0,0.0,0.0,0.0,0.0,0.0,0.0,0.0,0.0,0.0,0.0,0.0,0.0,0.0,0.0,0.0,0.0,0.0,0.0,0.0,0.0,0.0,0.0,0.0,0.0,0.0,0.0,0.0,0.0,0.0,0.0,0.0,0.0,0.0,0.0,0.0,0.0,0.0,0.0,0.0,0.0,0.0,0.0,0.0,0.0,0.0,0.0,0.0,0.0,0.0,0.0,0.0,0.0,0.0,0.0,0.0,0.0,0.0,0.0,0.0,0.0,0.0,0.0,0.0,0.0,0.0,0.0,0.0,0.0,0.0,0.0,0.0,0.0,0.0,0.0,0.0,0.0,0.0,0.0,0.0,0.0,0.0,0.0,0.0,0.0,0.0,0.0,0.0,0.0,0.0,0.0,0.0,0.0,0.0,0.0,0.0,0.0,0.0,0.0,0.0,0.0,0.0,0.0,0.0,0.0,0.0,0.0,0.0,0.0,0.0,0.0,0.0,0.0,0.0,0.0,0.0,0.0,0.0,0.0,0.0,0.0,0.0,0.0,0.0,0.0,0.0,0.0,0.0,0.0,0.0,0.0,0.0,0.0,0.0,0.0,0.0,0.0,0.0,0.0,0.0,0.0,0.0,0.0,0.0,0.0,0.0,0.0,0.0,0.0,0.0,0.0,0.0,0.0,0.0,0.0,0.0,0.0,0.0,0.0,0.0,0.0,0.0,0.0,0.0,0.0,0.0,0.0,0.0,0.0,0.0,0.0,0.0,0.0,0.0,0.0,0.0,0.0,0.0,0.0,0.0,0.0,0.0,0.0,0.0,0.0,0.0,0.0,0.0,0.0,0.0,0.0,0.0,0.0,0.0,0.0,0.0,0.0,0.0,0.0,0.0,0.0,0.0,0.0,0.0,0.0,0.0,0.0,0.0,0.0,0.0,0.0,0.0,0.0,0.0,0.0,0.0,0.0,0.0,0.0,0.0,0.0,0.0,0.0,0.0,0.0,0.0,0.0,0.0,0.0,0.0,0.0,0.0,0.0,0.0,0.0,0.0,0.0,0.0,0.0,0.0,0.0,0.0,0.0,0.0,0.0,0.0,0.0,0.0,0.0,0.0,0.0,0.0,0.0,0.0,0.0,0.0,0.0,0.0,0.0,0.0,0.0,0.0,0.0,0.0,0.0,0.0,0.0,0.0,0.0,0.0,0.0,0.0,0.0,0.0,0.0,-1.1079,0.0,0.0,0.0,0.0,0.0,0.0,0.0,0.0,0.0,0.0,0.0,0.0,0.0,0.0,0.0,0.0,0.0,0.0,0.0,0.0,0.0,0.0,0.0,0.0,0.0,0.0,0.0,0.0,0.0,0.0,0.0,0.0,0.0,0.0,0.0,0.0,0.0,0.0,0.0,0.0,0.0,0.0,0.0,0.0,0.0,0.0,0.0,0.0,0.0,0.0,0.0,0.0,0.0,0.0,0.0,0.0,0.0,0.0,0.0,0.0,0.0,0.0,0.0,0.0,0.0,0.0,0.0,0.0,0.0,0.0,0.0,0.0,0.0,0.0,0.0,0.0,0.0,0.0,0.0,0.0,0.0,0.0,0.0,0.0,0.0,0.0,0.0,0.0,0.0,0.0,0.0,0.0,0.0,0.0,0.0,0.0,0.0,0.0,0.0,0.0,0.0,0.0,0.0,0.0,0.0,0.0,0.0,0.0,0.0,0.0,-0.8786,-0.9496,-0.9852,-1.0333,-1.0925,0.0,0.0,0.0,0.0,0.0,0.0,0.0,0.0,0.0,0.0,0.0,0.0,0.0,0.0,0.0,0.0,0.0,0.0,0.0,0.0,0.0,0.0,0.0,0.0,0.0,0.0,0.0,0.0,0.0,0.0,0.0,0.0,0.0,0.0,0.0,0.0,0.0,0.0,0.0,0.0,0.0,0.0,0.0,0.0,0.0,0.0,0.0,0.0,0.0,0.0,0.0,0.0,0.0,0.0,0.0,0.0,0.0,0.0,0.0,0.0,0.0,0.0,0.0,0.0,0.0,0.0,0.0,0.0,0.0,0.0,0.0,0.0,0.0,0.0,0.0,0.0,0.0,0.0,0.0,0.0,0.0,0.0,0.0,0.0,0.0,0.0,0.0,0.0,0.0,0.0,0.0,0.0,0.0,0.0,0.0,0.0,0.0,0.0,0.0,0.0,0.0,0.0,0.0,0.0,0.0,0.0,0.0,0.0,0.0,0.0,0.0,0.0,-0.9711,-1.0347,-1.0714,0.0,0.0,0.0,0.0,0.0,0.0,0.0,0.0,0.0,0.0,0.0,0.0,0.0,0.0,0.0,0.0,0.0,0.0,0.0,0.0,0.0,0.0,0.0,0.0,0.0,0.0,0.0,0.0,0.0,0.0,0.0,0.0,0.0,0.0,0.0,0.0,0.0,0.0,0.0,0.0,0.0,0.0,0.0,0.0,0.0,0.0,0.0,0.0,0.0,0.0,0.0,0.0,0.0,0.0,0.0,0.0,0.0,0.0,0.0,0.0,0.0,0.0,0.0,0.0,0.0,0.0,0.0,0.0,0.0,0.0,0.0,0.0,0.0,0.0,0.0,0.0,0.0,0.0,0.0,0.0,0.0,0.0,0.0,0.0,0.0,0.0,0.0,0.0,0.0,0.0,0.0,0.0,0.0,0.0,0.0,0.0,0.0,0.0,0.0,0.0,0.0,0.0,0.0,0.0,0.0,0.0,0.0,0.0,0.0,0.0,-0.8907,-0.9454,-0.9997,0.0,-1.0972,0.0,0.0,0.0,0.0,0.0,0.0,0.0,0.0,0.0,0.0,0.0,0.0,0.0,0.0,0.0,0.0,0.0,0.0,0.0,0.0,0.0,0.0,0.0,0.0,0.0,0.0,0.0,0.0,0.0,0.0,0.0,0.0,0.0,0.0,0.0,0.0,0.0,0.0,0.0,0.0,0.0,0.0,0.0,0.0,0.0,0.0,0.0,0.0,0.0,0.0,0.0,0.0,0.0,0.0,0.0,0.0,0.0,0.0,0.0,0.0,0.0,0.0,0.0,0.0,0.0,0.0,0.0,0.0,0.0,0.0,0.0,0.0,0.0,0.0,0.0,0.0,0.0,0.0,0.0,0.0,0.0,0.0,0.0,0.0,0.0,0.0,0.0,0.0,0.0,0.0,0.0,0.0,0.0,0.0,0.0,0.0,0.0,0.0,0.0,0.0,0.0,0.0,0.0,0.0,0.0,0.0,0.0,0.0,0.0,0.0,-0.8734,-0.9101,-0.983,-1.0402,0.0,0.0,0.0,0.0,0.0,0.0,0.0,0.0,0.0,0.0,0.0,0.0,0.0,0.0,0.0,0.0,0.0,0.0,0.0,0.0,0.0,0.0,0.0,0.0,0.0,0.0,0.0,0.0,0.0,0.0,0.0,0.0,0.0,0.0,0.0,0.0,0.0,0.0,0.0,0.0,0.0,0.0,0.0,0.0,0.0,0.0,0.0,0.0,0.0,0.0,0.0,0.0,0.0,0.0,0.0,0.0,0.0,0.0,0.0,0.0,0.0,0.0,0.0,0.0,0.0,0.0,0.0,0.0,0.0,0.0,0.0,0.0,0.0,0.0,0.0,0.0,0.0,0.0,0.0,0.0,0.0,0.0,0.0,0.0,0.0,0.0,0.0,0.0,0.0,0.0,0.0,0.0,0.0,0.0,0.0,0.0,0.0,0.0,0.0,0.0,0.0,0.0,0.0,0.0,0.0,0.0,0.0,0.0,0.0,0.0,-0.8713,-0.8953,-0.9135,-0.9839,-1.0402,-1.1112,0.0,0.0,0.0,0.0,0.0,0.0,0.0,0.0,0.0,0.0,0.0,0.0,0.0,0.0,0.0,0.0,0.0,0.0,0.0,0.0,0.0,0.0,0.0,0.0,0.0,0.0,0.0,0.0,0.0,0.0,0.0,0.0,0.0,0.0,0.0,0.0,0.0,0.0,0.0,0.0,0.0,0.0,0.0,0.0,0.0,0.0,0.0,0.0,0.0,0.0,0.0,0.0,0.0,0.0,0.0,0.0,0.0,0.0,0.0,0.0,0.0,0.0,0.0,0.0,0.0,0.0,0.0,0.0,0.0,0.0,0.0,0.0,0.0,0.0,0.0,0.0,0.0,0.0,0.0,0.0,0.0,0.0,0.0,0.0,0.0,0.0,0.0,0.0,0.0,0.0,0.0,0.0,0.0,0.0,0.0,0.0,0.0,0.0,0.0,0.0,0.0,0.0,0.0,0.0,0.0,0.0,0.0,0.0,-0.8611,-0.8775,-0.9228,-1.0142,-1.0053,-1.0397,0.0,0.0,0.0,0.0,0.0,0.0,0.0,0.0,0.0,0.0,0.0,0.0,0.0,0.0,0.0,0.0,0.0,0.0,0.0,0.0,0.0,0.0,0.0,0.0,0.0,0.0,0.0,0.0,0.0,0.0,0.0,0.0,0.0,0.0,0.0,0.0,0.0,0.0,0.0,0.0,0.0,0.0,0.0,0.0,0.0,0.0,0.0,0.0,0.0,0.0,0.0,0.0,0.0,0.0,0.0,0.0,0.0,0.0,0.0,0.0,0.0,0.0,0.0,0.0,0.0,0.0,0.0,0.0,0.0,0.0,0.0,0.0,0.0,0.0,0.0,0.0,0.0,0.0,0.0,0.0,0.0,0.0,0.0,0.0,0.0,0.0,0.0,0.0,0.0,0.0,0.0,0.0,0.0,0.0,0.0,0.0,0.0,0.0,0.0,0.0,0.0,0.0,0.0,0.0,0.0,0.0,0.0,0.0,0.0,-0.8607,-0.8722,-0.9177,-0.9779,-0.9997,-1.015,0.0,0.0,0.0,0.0,0.0,0.0,0.0,0.0,0.0,0.0,0.0,0.0,0.0,0.0,0.0,0.0,0.0,0.0,0.0,0.0,0.0,0.0,0.0,0.0,0.0,0.0,0.0,0.0,0.0,0.0,0.0,0.0,0.0,0.0,0.0,0.0,0.0,0.0,0.0,0.0,0.0,0.0,0.0,0.0,0.0,0.0,0.0,0.0,0.0,0.0,0.0,0.0,0.0,0.0,0.0,0.0,0.0,0.0,0.0,0.0,0.0,0.0,0.0,0.0,0.0,0.0,0.0,0.0,0.0,0.0,0.0,0.0,0.0,0.0,0.0,0.0,0.0,0.0,0.0,0.0,0.0,0.0,0.0,0.0,0.0,0.0,0.0,0.0,0.0,0.0,0.0,0.0,0.0,0.0,0.0,0.0,0.0,0.0,0.0,0.0,0.0,0.0,0.0,0.0,0.0,0.0,0.0,0.0,0.0,-0.8689,0.0,-0.9023,-0.9596,-0.9779,-1.0112,0.0,0.0,0.0,0.0,0.0,0.0,0.0,0.0,0.0,0.0,0.0,0.0,0.0,0.0,0.0,0.0,0.0,0.0,0.0,0.0,0.0,0.0,0.0,0.0,0.0,0.0,0.0,0.0,0.0,0.0,0.0,0.0,0.0,0.0,0.0,0.0,0.0,0.0,0.0,0.0,0.0,0.0,0.0,0.0,0.0,0.0,0.0,0.0,0.0,0.0,0.0,0.0,0.0,0.0,0.0,0.0,0.0,0.0,0.0,0.0,0.0,0.0,0.0,0.0,0.0,0.0,0.0,0.0,0.0,0.0,0.0,0.0,0.0,0.0,0.0,0.0,0.0,0.0,0.0,0.0,0.0,0.0,0.0,0.0,0.0,0.0,0.0,0.0,0.0,0.0,0.0,0.0,0.0,0.0,0.0,0.0,0.0,0.0,0.0,0.0,0.0,0.0,0.0,0.0,0.0,0.0,0.0,0.0,-0.7713,-0.886,-0.8954,-0.9144,-0.9609,-0.9789,-1.0112,0.0,0.0,0.0,0.0,0.0,0.0,0.0,0.0,0.0,0.0,0.0,0.0,0.0,0.0,0.0,0.0,0.0,0.0,0.0,0.0,0.0,0.0,0.0,0.0,0.0,0.0,0.0,0.0,0.0,0.0,0.0,0.0,0.0,0.0,0.0,0.0,0.0,0.0,0.0,0.0,0.0,0.0,0.0,0.0,0.0,0.0,0.0,0.0,0.0,0.0,0.0,0.0,0.0,0.0,0.0,0.0,0.0,0.0,0.0,0.0,0.0,0.0,0.0,0.0,0.0,0.0,0.0,0.0,0.0,0.0,0.0,0.0,0.0,0.0,0.0,0.0,0.0,0.0,0.0,0.0,0.0,0.0,0.0,0.0,0.0,0.0,0.0,0.0,0.0,0.0,0.0,0.0,0.0,0.0,0.0,0.0,0.0,0.0,0.0,0.0,0.0,0.0,0.0,0.0,0.0,0.0,0.0,0.0,0.0,-0.8404,-0.8435,-0.8649,-0.9236,-0.9739,-1.004,0.0,0.0,0.0,0.0,0.0,0.0,0.0,0.0,0.0,0.0,0.0,0.0,0.0,0.0,0.0,0.0,0.0,0.0,0.0,0.0,0.0,0.0,0.0,0.0,0.0,0.0,0.0,0.0,0.0,0.0,0.0,0.0,0.0,0.0,0.0,0.0,0.0,0.0,0.0,0.0,0.0,0.0,0.0,0.0,0.0,0.0,0.0,0.0,0.0,0.0,0.0,0.0,0.0,0.0,0.0,0.0,0.0,0.0,0.0,0.0,0.0,0.0,0.0,0.0,0.0,0.0,0.0,0.0,0.0,0.0,0.0,0.0,0.0,0.0,0.0,0.0,0.0,0.0,0.0,0.0,0.0,0.0,0.0,0.0,0.0,0.0,0.0,0.0,0.0,0.0,0.0,0.0,0.0,0.0,0.0,0.0,0.0,0.0,0.0,0.0,0.0,0.0,0.0,0.0,0.0,0.0,0.0,0.0,0.0,-0.7945,-0.8314,-0.8691,-0.8907,-0.9629,-0.9922,-0.9997,0.0,0.0,0.0,0.0,0.0,0.0,0.0,0.0,0.0,0.0,0.0,0.0,0.0,0.0,0.0,0.0,0.0,0.0,0.0,0.0,0.0,0.0,0.0,0.0,0.0,0.0,0.0,0.0,0.0,0.0,0.0,0.0,0.0,0.0,0.0,0.0,0.0,0.0,0.0,0.0,0.0,0.0,0.0,0.0,0.0,0.0,0.0,0.0,0.0,0.0,0.0,0.0,0.0,0.0,0.0,0.0,0.0,0.0,0.0,0.0,0.0,0.0,0.0,0.0,0.0,0.0,0.0,0.0,0.0,0.0,0.0,0.0,0.0,0.0,0.0,0.0,0.0,0.0,0.0,0.0,0.0,0.0,0.0,0.0,0.0,0.0,0.0,0.0,0.0,0.0,0.0,0.0,0.0,0.0,0.0,0.0,0.0,0.0,0.0,0.0,0.0,0.0,0.0,0.0,0.0,0.0,0.0,0.0,-0.7389,-0.8357,-0.8888,-0.8791,-0.9408,-0.9892,0.0,0.0,0.0,0.0,0.0,0.0,0.0,0.0,0.0,0.0,0.0,0.0,0.0,0.0,0.0,0.0,0.0,0.0,0.0,0.0,0.0,0.0,0.0,0.0,0.0,0.0,0.0,0.0,0.0,0.0,0.0,0.0,0.0,0.0,0.0,0.0,0.0,0.0,0.0,0.0,0.0,0.0,0.0,0.0,0.0,0.0,0.0,0.0,0.0,0.0,0.0,0.0,0.0,0.0,0.0,0.0,0.0,0.0,0.0,0.0,0.0,0.0,0.0,0.0,0.0,0.0,0.0,0.0,0.0,0.0,0.0,0.0,0.0,0.0,0.0,0.0,0.0,0.0,0.0,0.0,0.0,0.0,0.0,0.0,0.0,0.0,0.0,0.0,0.0,0.0,0.0,0.0,0.0,0.0,0.0,0.0,0.0,0.0,0.0,0.0,0.0,0.0,0.0,0.0,0.0,0.0,0.0,0.0,0.0,-0.7078,-0.7821,-0.8617,-0.9214,-0.9397,-0.9866,0.0,0.0,0.0,0.0,0.0,0.0,0.0,0.0,0.0,0.0,0.0,0.0,0.0,0.0,0.0,0.0,0.0,0.0,0.0,0.0,0.0,0.0,0.0,0.0,0.0,0.0,0.0,0.0,0.0,0.0,0.0,0.0,0.0,0.0,0.0,0.0,0.0,0.0,0.0,0.0,0.0,0.0,0.0,0.0,0.0,0.0,0.0,0.0,0.0,0.0,0.0,0.0,0.0,0.0,0.0,0.0,0.0,0.0,0.0,0.0,0.0,0.0,0.0,0.0,0.0,0.0,0.0,0.0,0.0,0.0,0.0,0.0,0.0,0.0,0.0,0.0,0.0,0.0,0.0,0.0,0.0,0.0,0.0,0.0,0.0,0.0,0.0,0.0,0.0,0.0,0.0,0.0,0.0,0.0,0.0,0.0,0.0,0.0,0.0,0.0,0.0,0.0,0.0,0.0,0.0,0.0,0.0,0.0,-0.6687,-0.7104,-0.7483,-0.841,-0.9393,-0.9461,-0.9869,0.0,0.0,0.0,0.0,0.0,0.0,0.0,0.0,0.0,0.0,0.0,0.0,0.0,0.0,0.0,0.0,0.0,0.0,0.0,0.0,0.0,0.0,0.0,0.0,0.0,0.0,0.0,0.0,0.0,0.0,0.0,0.0,0.0,0.0,0.0,0.0,0.0,0.0,0.0,0.0,0.0,0.0,0.0,0.0,0.0,0.0,0.0,0.0,0.0,0.0,0.0,0.0,0.0,0.0,0.0,0.0,0.0,0.0,0.0,0.0,0.0,0.0,0.0,0.0,0.0,0.0,0.0,0.0,0.0,0.0,0.0,0.0,0.0,0.0,0.0,0.0,0.0,0.0,0.0,0.0,0.0,0.0,0.0,0.0,0.0,0.0,0.0,0.0,0.0,0.0,0.0,0.0,0.0,0.0,0.0,0.0,0.0,0.0,0.0,0.0,0.0,0.0,0.0,0.0,0.0,0.0,0.0,0.0,-0.6869,-0.7284,-0.7472,-0.8065,-0.9305,-0.9508,-1.0068,0.0,0.0,0.0,0.0,0.0,0.0,0.0,0.0,0.0,0.0,0.0,0.0,0.0,0.0,0.0,0.0,0.0,0.0,0.0,0.0,0.0,0.0,0.0,0.0,0.0,0.0,0.0,0.0,0.0,0.0,0.0,0.0,0.0,0.0,0.0,0.0,0.0,0.0,0.0,0.0,0.0,0.0,0.0,0.0,0.0,0.0,0.0,0.0,0.0,0.0,0.0,0.0,0.0,0.0,0.0,0.0,0.0,0.0,0.0,0.0,0.0,0.0,0.0,0.0,0.0,0.0,0.0,0.0,0.0,0.0,0.0,0.0,0.0,0.0,0.0,0.0,0.0,0.0,0.0,0.0,0.0,0.0,0.0,0.0,0.0,0.0,0.0,0.0,0.0,0.0,0.0,0.0,0.0,0.0,0.0,0.0,0.0,0.0,0.0,0.0,0.0,0.0,0.0,0.0,0.0,0.0,0.0,0.0,-0.7055,-0.7469,-0.7654,-0.8262,-0.9056,-0.9053,-0.9704,0.0,0.0,0.0,0.0,0.0,0.0,0.0,0.0,0.0,0.0,0.0,0.0,0.0,0.0,0.0,0.0,0.0,0.0,0.0,0.0,0.0,0.0,0.0,0.0,0.0,0.0,0.0,0.0,0.0,0.0,0.0,0.0,0.0,0.0,0.0,0.0,0.0,0.0,0.0,0.0,0.0,0.0,0.0,0.0,0.0,0.0,0.0,0.0,-1.7554,0.0,0.0,0.0,0.0,0.0,0.0,0.0,0.0,0.0,0.0,0.0,0.0,0.0,0.0,0.0,0.0,0.0,0.0,0.0,0.0,0.0,0.0,0.0,0.0,0.0,0.0,0.0,0.0,0.0,0.0,0.0,0.0,0.0,0.0,0.0,0.0,0.0,0.0,0.0,0.0,0.0,0.0,0.0,0.0,0.0,0.0,0.0,0.0,0.0,0.0,0.0,0.0,0.0,0.0,0.0,0.0,0.0,0.0,0.0,-0.7224,-0.7611,-0.7796,-0.8398,-0.9159,-0.9272,-0.9759,0.0,0.0,0.0,0.0,0.0,0.0,0.0,0.0,0.0,0.0,0.0,0.0,0.0,0.0,0.0,0.0,0.0,0.0,0.0,0.0,0.0,0.0,0.0,0.0,0.0,0.0,0.0,0.0,0.0,0.0,0.0,0.0,0.0,0.0,0.0,0.0,0.0,0.0,0.0,0.0,0.0,0.0,0.0,0.0,0.0,0.0,0.0,0.0,0.0,0.0,0.0,0.0,0.0,0.0,0.0,0.0,0.0,0.0,0.0,0.0,0.0,0.0,0.0,0.0,0.0,0.0,0.0,0.0,0.0,0.0,0.0,0.0,0.0,0.0,0.0,0.0,0.0,0.0,0.0,0.0,0.0,0.0,0.0,0.0,0.0,0.0,0.0,0.0,0.0,0.0,0.0,0.0,0.0,0.0,0.0,0.0,0.0,0.0,0.0,0.0,0.0,0.0,0.0,0.0,0.0,0.0,0.0,-0.6335,-0.7376,-0.7728,-0.7918,-0.8511,-0.9245,-0.9219,-0.9761,-1.053,0.0,0.0,0.0,0.0,0.0,0.0,0.0,0.0,0.0,0.0,0.0,0.0,0.0,0.0,0.0,0.0,0.0,0.0,0.0,0.0,0.0,0.0,0.0,0.0,0.0,0.0,0.0,0.0,0.0,0.0,0.0,0.0,0.0,0.0,0.0,0.0,0.0,0.0,-1.2748,-1.3803,0.0,0.0,0.0,0.0,0.0,0.0,0.0,0.0,-1.8993,0.0,0.0,0.0,0.0,0.0,0.0,0.0,0.0,0.0,0.0,0.0,0.0,0.0,0.0,0.0,0.0,0.0,0.0,0.0,0.0,0.0,0.0,0.0,0.0,0.0,0.0,0.0,0.0,0.0,0.0,0.0,0.0,0.0,0.0,0.0,0.0,0.0,0.0,0.0,0.0,0.0,0.0,0.0,0.0,0.0,0.0,0.0,0.0,0.0,0.0,0.0,0.0,0.0,0.0,0.0,0.0,-0.5232,-0.6222,-0.7031,-0.7856,-0.8044,-0.8368,-0.856,-0.9049,-0.961,-0.9963,0.0,0.0,0.0,0.0,0.0,0.0,0.0,0.0,0.0,0.0,0.0,0.0,0.0,0.0,0.0,0.0,0.0,0.0,0.0,0.0,0.0,0.0,0.0,0.0,0.0,0.0,0.0,0.0,0.0,0.0,0.0,0.0,0.0,0.0,0.0,0.0,0.0,0.0,0.0,-1.4528,-1.5417,0.0,0.0,0.0,0.0,0.0,0.0,0.0,0.0,-1.9637,0.0,0.0,0.0,0.0,0.0,0.0,0.0,0.0,0.0,0.0,0.0,0.0,0.0,0.0,0.0,0.0,0.0,0.0,0.0,0.0,0.0,0.0,0.0,0.0,0.0,0.0,0.0,0.0,0.0,0.0,0.0,0.0,0.0,0.0,0.0,0.0,0.0,0.0,0.0,0.0,0.0,0.0,0.0,0.0,0.0,0.0,0.0,0.0,0.0,0.0,0.0,0.0,0.0,0.0,0.0,-0.5294,-0.6117,-0.6923,-0.7935,-0.8117,-0.8169,-0.8328,-0.903,-0.9589,0.0,0.0,0.0,0.0,0.0,0.0,0.0,0.0,0.0,0.0,0.0,0.0,0.0,0.0,0.0,0.0,0.0,0.0,0.0,0.0,0.0,0.0,0.0,0.0,0.0,0.0,0.0,0.0,0.0,0.0,0.0,0.0,0.0,0.0,0.0,0.0,0.0,0.0,0.0,0.0,-1.4975,-1.5915,-1.6131,0.0,0.0,0.0,0.0,0.0,0.0,-2.011,-2.0353,0.0,0.0,0.0,0.0,0.0,0.0,0.0,0.0,0.0,0.0,0.0,0.0,0.0,0.0,0.0,0.0,0.0,0.0,0.0,0.0,0.0,0.0,0.0,0.0,0.0,0.0,0.0,0.0,0.0,0.0,0.0,0.0,0.0,0.0,0.0,0.0,0.0,0.0,0.0,0.0,0.0,0.0,0.0,0.0,0.0,0.0,0.0,0.0,0.0,0.0,0.0,0.0,0.0,0.0,0.0,-0.5368,-0.6218,-0.7022,-0.7997,-0.8166,-0.8196,-0.8328,-0.9011,-0.9557,0.0,0.0,0.0,0.0,0.0,0.0,0.0,0.0,0.0,0.0,0.0,0.0,0.0,0.0,0.0,0.0,0.0,0.0,0.0,0.0,0.0,0.0,0.0,0.0,0.0,0.0,0.0,0.0,0.0,0.0,0.0,0.0,0.0,0.0,0.0,0.0,0.0,0.0,0.0,0.0,0.0,-1.6388,-1.6892,-1.7612,0.0,0.0,0.0,0.0,-2.0701,-2.102,0.0,0.0,0.0,0.0,0.0,0.0,0.0,0.0,0.0,0.0,0.0,0.0,0.0,0.0,0.0,0.0,0.0,0.0,0.0,0.0,0.0,0.0,0.0,0.0,0.0,0.0,0.0,0.0,0.0,0.0,0.0,0.0,0.0,0.0,0.0,0.0,0.0,0.0,0.0,0.0,0.0,0.0,0.0,0.0,0.0,0.0,0.0,0.0,0.0,0.0,0.0,0.0,0.0,0.0,0.0,0.0,-0.5503,-0.5805,-0.6554,-0.8055,-0.8188,-0.8196,-0.8331,-0.9059,-0.9585,0.0,0.0,0.0,0.0,0.0,0.0,0.0,0.0,0.0,0.0,0.0,0.0,0.0,0.0,0.0,0.0,0.0,0.0,0.0,0.0,0.0,0.0,0.0,0.0,0.0,0.0,0.0,0.0,0.0,0.0,0.0,0.0,0.0,0.0,0.0,0.0,0.0,0.0,0.0,0.0,0.0,-1.7053,-1.7298,-1.8457,-1.9491,0.0,0.0,-2.1591,-2.2081,-2.2156,0.0,0.0,0.0,0.0,0.0,0.0,0.0,0.0,0.0,0.0,0.0,0.0,0.0,0.0,0.0,0.0,0.0,0.0,0.0,0.0,0.0,0.0,0.0,0.0,0.0,0.0,0.0,0.0,0.0,0.0,0.0,0.0,0.0,0.0,0.0,0.0,0.0,0.0,0.0,0.0,0.0,0.0,0.0,0.0,0.0,0.0,0.0,0.0,0.0,0.0,0.0,0.0,0.0,0.0,0.0,-0.4088,-0.5566,-0.5854,-0.6614,-0.8164,-0.8259,-0.8262,-0.843,-0.9103,-0.9613,0.0,0.0,0.0,0.0,0.0,0.0,0.0,0.0,0.0,0.0,0.0,0.0,0.0,0.0,0.0,0.0,0.0,0.0,0.0,0.0,0.0,0.0,0.0,0.0,0.0,0.0,0.0,0.0,0.0,0.0,0.0,0.0,0.0,0.0,0.0,0.0,0.0,0.0,0.0,0.0,0.0,0.0,-1.8857,-1.9882,0.0,0.0,0.0,-2.2663,-2.382,0.0,0.0,0.0,0.0,0.0,0.0,0.0,0.0,0.0,0.0,0.0,0.0,0.0,0.0,0.0,0.0,0.0,0.0,0.0,0.0,0.0,0.0,0.0,0.0,0.0,0.0,0.0,0.0,0.0,0.0,0.0,0.0,0.0,0.0,0.0,0.0,0.0,0.0,0.0,0.0,0.0,0.0,0.0,0.0,0.0,0.0,0.0,0.0,0.0,0.0,0.0,0.0,0.0,0.0,0.0,0.0,0.0,-0.5618,-0.5914,-0.6683,-0.824,-0.8324,-0.8327,-0.8243,-0.9182,0.0,0.0,0.0,0.0,0.0,0.0,0.0,0.0,0.0,0.0,0.0,0.0,0.0,0.0,0.0,0.0,0.0,0.0,0.0,0.0,0.0,0.0,0.0,0.0,0.0,0.0,0.0,-1.0982,0.0,0.0,0.0,0.0,0.0,0.0,0.0,0.0,0.0,0.0,0.0,0.0,0.0,0.0,-1.9106,-2.0246,-2.1429,-2.2291,0.0,0.0,-2.4088,-2.5364,-2.5051,-2.4603,0.0,0.0,0.0,0.0,0.0,0.0,0.0,0.0,0.0,0.0,0.0,0.0,0.0,0.0,0.0,0.0,0.0,0.0,0.0,0.0,0.0,0.0,0.0,0.0,0.0,0.0,0.0,0.0,0.0,0.0,0.0,0.0,0.0,0.0,0.0,0.0,0.0,0.0,0.0,0.0,0.0,0.0,0.0,0.0,0.0,0.0,0.0,0.0,0.0,0.0,0.0,0.0,0.0,0.0,-0.4166,-0.5664,-0.5994,-0.6752,-0.8245,-0.8368,-0.8368,-0.8505,-0.932,-1.0158,0.0,0.0,0.0,0.0,0.0,0.0,0.0,0.0,0.0,0.0,0.0,0.0,0.0,0.0,0.0,0.0,0.0,0.0,0.0,0.0,0.0,0.0,0.0,0.0,0.0,0.0,0.0,0.0,0.0,0.0,0.0,0.0,0.0,0.0,0.0,0.0,0.0,0.0,0.0,0.0,0.0,-1.9929,-2.1436,-2.2725,-2.3753,0.0,-2.5328,-2.6328,-2.6353,-2.5897,-2.5406,-2.5272,0.0,0.0,0.0,0.0,0.0,0.0,0.0,0.0,0.0,0.0,0.0,0.0,0.0,0.0,0.0,0.0,0.0,0.0,0.0,0.0,0.0,0.0,0.0,0.0,0.0,0.0,0.0,0.0,0.0,0.0,0.0,0.0,0.0,0.0,0.0,0.0,0.0,0.0,0.0,0.0,0.0,0.0,0.0,0.0,0.0,0.0,0.0,0.0,0.0,0.0,0.0,0.0,0.0,-0.4181,-0.5715,-0.6016,-0.6791,-0.8352,-0.8482,-0.8767,-0.9467,-0.9785,-1.044,0.0,0.0,0.0,0.0,0.0,0.0,0.0,0.0,0.0,0.0,0.0,0.0,0.0,0.0,0.0,0.0,0.0,0.0,0.0,0.0,0.0,0.0,0.0,0.0,0.0,0.0,0.0,0.0,-1.2357,-1.2477,-1.2406,0.0,0.0,0.0,0.0,0.0,0.0,0.0,0.0,0.0,0.0,-2.1265,-2.2828,-2.4094,0.0,0.0,-2.564,-2.6298,-2.6937,-2.6581,-2.6125,-2.5651,-2.3884,0.0,0.0,0.0,0.0,0.0,0.0,0.0,0.0,0.0,0.0,0.0,0.0,0.0,0.0,0.0,0.0,0.0,0.0,0.0,0.0,0.0,0.0,0.0,0.0,0.0,0.0,0.0,0.0,0.0,0.0,0.0,0.0,0.0,0.0,0.0,0.0,0.0,0.0,0.0,0.0,0.0,0.0,0.0,0.0,0.0,0.0,0.0,0.0,0.0,0.0,0.0,0.0,-0.4232,-0.5786,-0.6095,-0.6885,-0.8482,-0.8874,-0.9452,-1.0205,-1.0551,-1.1021,0.0,0.0,0.0,0.0,0.0,0.0,0.0,0.0,0.0,0.0,0.0,0.0,0.0,0.0,0.0,0.0,0.0,0.0,0.0,0.0,0.0,0.0,0.0,0.0,0.0,0.0,0.0,0.0,-1.2683,-1.2683,-1.2498,0.0,0.0,0.0,0.0,0.0,0.0,0.0,0.0,0.0,0.0,-2.2412,-2.3952,-2.524,-2.6038,-2.6151,-2.6485,-2.6812,-2.7418,-2.7123,-2.6708,-2.6218,0.0,0.0,0.0,0.0,0.0,0.0,0.0,0.0,0.0,0.0,0.0,0.0,0.0,0.0,0.0,0.0,0.0,0.0,0.0,0.0,0.0,0.0,0.0,0.0,0.0,0.0,0.0,0.2912,0.0,0.0,0.2784,0.0,0.0,0.0,0.0,0.0,0.0,0.0,0.0,0.0,0.0,0.0,0.0,0.0,0.0,0.0,0.0,0.0,0.0,0.0,0.0,0.0,0.0,-0.4335,-0.5884,-0.625,-0.7055,-0.8605,-0.9541,-1.0155,-1.0419,-1.1366,-1.193,-1.2351,0.0,0.0,0.0,0.0,0.0,0.0,0.0,0.0,0.0,0.0,0.0,0.0,0.0,0.0,0.0,0.0,0.0,0.0,0.0,0.0,0.0,0.0,0.0,0.0,0.0,0.0,-1.302,-1.295,-1.2743,0.0,0.0,0.0,0.0,0.0,0.0,0.0,0.0,0.0,-2.0452,-2.1827,-2.3305,-2.5031,-2.6143,-2.6695,-2.6712,-2.7409,-2.8019,-2.7833,-2.7503,-2.7131,0.0,0.0,0.0,0.0,0.0,0.0,0.0,0.0,0.0,0.0,0.0,0.0,0.0,0.0,0.0,0.0,0.0,0.0,0.0,0.0,0.0,0.0,0.0,0.0,0.0,0.0,0.0,0.3103,0.3066,0.0,0.0,0.0,0.0,0.0,0.0,0.0,0.0,0.0,0.0,0.0,0.0447,0.1127,0.0,0.0,0.0,0.0,0.0,0.0,0.0,0.0,0.0,0.0,0.0,0.0,-0.5324,-0.5975,-0.6606,-0.7693,-0.8725,-0.972,-1.0369,-1.0925,-1.1663,-1.2202,-1.2474,0.0,0.0,0.0,0.0,0.0,0.0,0.0,0.0,0.0,0.0,0.0,0.0,0.0,0.0,0.0,0.0,0.0,0.0,0.0,0.0,0.0,0.0,0.0,0.0,0.0,-1.2684,0.0,0.0,0.0,0.0,0.0,0.0,0.0,0.0,0.0,0.0,0.0,-1.9384,-2.1444,-2.2893,-2.4259,-2.6013,-2.6574,-2.6963,0.0,0.0,0.0,0.0,0.0,0.0,0.0,0.0,0.0,0.0,0.0,0.0,0.0,0.0,-2.3266,-2.2288,-2.2304,-2.2543,-2.326,0.0,0.0,0.0,0.0,0.0,0.0,0.0,0.0,0.0,0.0,0.0,0.0,0.0,0.0,0.3344,0.0,0.3257,0.0,0.0,0.0,0.0,0.0,0.0,0.0,0.0,0.2303,0.1417,-0.0,0.0731,0.1219,0.0,-0.2402,-0.3222,0.0,0.0,0.0,0.0,0.0,0.0,0.0,0.0,-0.5538,-0.6169,-0.679,-0.7881,-0.891,-0.992,-1.0593,-1.1473,-1.2539,-1.2837,-1.2895,-1.2737,-1.2426,0.0,0.0,0.0,0.0,0.0,0.0,0.0,0.0,0.0,0.0,0.0,0.0,0.0,0.0,0.0,0.0,0.0,0.0,0.0,0.0,0.0,0.0,0.0,-1.3037,0.0,0.0,0.0,0.0,0.0,0.0,0.0,0.0,0.0,-1.7826,-1.9233,-2.0867,-2.2634,-2.3953,-2.5164,-2.6484,0.0,0.0,0.0,0.0,0.0,0.0,0.0,-2.7402,-2.7467,-2.7426,-2.7129,-2.6911,-2.6636,-2.6338,-2.6276,0.0,0.0,-2.4629,-2.4362,-2.466,-2.5177,-2.5201,-2.5818,-2.7392,-2.888,-3.0165,0.0,0.0,0.0,0.0,0.0,0.0,0.0,0.0,0.3407,0.3405,0.0,0.332,0.0,0.0,0.0,0.0,0.0,0.245,0.0,0.0,0.0988,-0.0,-0.0,-0.0,-0.0,-0.0,-0.3138,-0.4412,-0.4069,-0.272,0.0,0.0,0.0,0.0,0.0,0.0,-0.4873,-0.6454,-0.6782,-0.758,-0.9161,-1.0146,-1.0826,-1.1769,-1.3167,-1.3874,-1.3609,-1.3258,-1.3045,-1.2916,-1.2253,0.0,0.0,0.0,0.0,0.0,0.0,0.0,0.0,0.0,0.0,0.0,0.0,0.0,0.0,0.0,0.0,0.0,0.0,0.0,0.0,-1.3562,0.0,0.0,0.0,0.0,0.0,0.0,0.0,0.0,0.0,0.0,-2.0067,-2.0923,-2.1938,-2.4298,0.0,0.0,0.0,0.0,-2.7824,-2.7849,-2.7995,-2.8117,-2.8125,-2.8125,-2.8182,-2.836,0.0,0.0,-2.8921,-2.8953,-2.9002,-2.9164,-2.9181,-2.8463,-2.6534,-2.6656,-2.7305,-2.7305,-2.7675,-2.8105,-2.8737,-3.0647,-3.2374,0.4009,0.0,0.0,0.0,0.0,0.3776,0.3823,0.3637,0.3667,0.3175,0.218,0.2159,0.0,0.0,0.0,0.0,0.0,0.0,0.0747,0.077,0.0264,-0.0,-0.0,-0.0,-0.0,-0.0,-0.3332,-0.47,-0.4398,-0.394,-0.3474,-0.3015,0.0,0.0,0.0,0.0,-0.5656,-0.6701,-0.7304,-0.84,-0.9406,-1.0418,-1.109,-1.2011,-1.2939,-1.3466,-1.3278,-1.3582,-1.3511,-1.3341,-1.2654,0.0,0.0,0.0,0.0,0.0,0.0,0.0,0.0,0.0,0.0,0.0,0.0,0.0,0.0,0.0,0.0,0.0,0.0,0.0,-1.282,-1.3782,-1.4597,0.0,0.0,0.0,0.0,0.0,0.0,0.0,0.0,0.0,-2.2964,-2.2486,-2.2745,0.0,0.0,-2.6823,-2.7816,-2.8052,-2.832,-2.8701,-2.8799,0.0,-2.9018,-2.9034,-2.914,-2.9432,-2.9847,-3.0204,-3.0375,-3.0407,-3.0415,-3.0464,-3.0472,-3.0285,-2.9492,-2.9181,-2.8831,-2.8807,-2.884,-2.9218,-3.0234,-3.1879,-3.32,0.4354,0.4178,0.4049,0.4004,0.4023,0.4065,0.411,0.3898,0.3413,0.2363,0.1303,0.2329,0.2815,0.2775,0.2243,0.0,0.0,0.0,-0.0,-0.0,-0.0,-0.0,-0.0,-0.0,-0.0,-0.0,-0.2042,-0.3495,-0.466,-0.4019,-0.389,-0.4481,0.0,0.0,-0.4296,-0.4965,-0.568,-0.6436,-0.6955,-0.7716,-0.9013,-1.0317,-1.1282,-1.1587,-1.2541,-1.3133,-1.3336,-1.3458,-1.3802,-1.3772,-1.318,-1.2766,0.0,0.0,0.0,0.0,0.0,0.0,0.0,0.0,0.0,0.0,0.0,-1.0944,-1.0408,0.0,0.0,0.0,-1.1654,-1.2606,-1.3808,-1.4932,0.0,0.0,0.0,0.0,0.0,0.0,0.0,-2.0376,-2.119,-2.2507,-2.4857,-2.4674,-2.5006,-2.6573,-2.7515,-2.79,-2.8507,0.0,-2.901,-2.94,-2.9522,-2.966,-2.9903,-2.9944,-3.0074,-3.0423,-3.0805,-3.1089,-3.1203,-3.1227,-3.1219,-3.1219,-3.1219,-3.1195,-3.1089,-3.0618,-3.0147,-2.9903,-2.9903,-3.0301,-3.1324,-3.2653,-3.3686,0.4635,0.4615,0.4395,0.4298,0.4298,0.4353,0.4394,0.4153,0.2802,0.1404,0.0558,0.3328,0.4667,0.4607,0.323,0.0,0.0274,0.0278,-0.0,0.0287,0.0291,-0.0,-0.0,-0.0,-0.0,-0.0,-0.0,-0.1517,-0.4248,-0.3017,-0.3,-0.4167,-0.4187,-0.4323,-0.4613,-0.4421,-0.4817,-0.5844,-0.5957,-0.6959,-0.8573,-1.0163,-1.0811,-1.1113,-1.1723,-1.2642,-1.3257,-1.3173,-1.3623,-1.397,-1.3846,-1.325,-1.2458,0.0,0.0,0.0,0.0,0.0,0.0,0.0,0.0,0.0,0.0,0.0,0.0,0.0,0.0,0.0,-1.2677,0.0,-1.499,-1.617,0.0,0.0,0.0,-1.9051,-2.0214,-2.0675,-2.119,-2.176,0.0,0.0,-2.5743,-2.6847,-2.7535,-2.8069,-2.8685,-2.9002,-2.901,-2.9449,-2.983,-3.0042,-3.0204,-3.0423,-3.0732,-3.0805,-3.0927,-3.1227,-3.1471,-3.1577,-3.1585,-3.1593,-3.1585,-3.1593,-3.1585,-3.1577,-3.1568,-3.1503,-3.1357,-3.0675,-3.0691,-3.1121,-3.1753,-3.2811,-3.3866,0.4725,0.472,0.4662,0.4601,0.454,0.4553,0.459,0.4641,0.3491,0.2626,0.2048,0.2617,0.3752,0.487,0.4289,0.4019,0.3763,0.2345,0.1774,0.1782,0.1804,0.1817,0.1823,0.1834,0.1228,-0.0,-0.0,-0.0307,-0.123,-0.1841,-0.1835,-0.1215,-0.3288,-0.4691,-0.4589,-0.4627,-0.4981,-0.5962,-0.6073,-0.7091,-0.8735,-0.9101,-0.9736,-1.0318,-1.0891,-1.1484,-1.1794,-1.2283,-1.244,-1.2571,-1.2883,-1.2735,-1.2107,-1.1843,0.0,0.0,0.0,0.0,0.0,0.0,0.0,0.0,0.0,-1.0838,-1.0578,0.0,-1.169,0.0,-1.4186,-1.5434,-1.5684,-1.6543,0.0,0.0,-1.9365,-2.0063,-2.1344,-2.2228,-2.2784,-2.3158,-2.3754,-2.4536,-2.6008,-2.6454,-2.7002,-2.7774,-2.9297,-3.0276,-3.009,-3.0326,-3.0618,-3.0894,-3.0992,-3.1114,-3.1317,-3.1479,-3.1585,-3.1682,-3.1845,-3.1966,-3.1958,-3.1966,-3.1966,-3.1966,-3.1966,-3.1918,-3.178,-3.1755,-3.165,-3.1365,-3.1333,-3.1679,-3.2643,-3.3311,-3.4301,0.4816,0.4818,0.4831,0.4808,0.4762,0.4735,0.475,0.4793,0.4206,0.3919,0.3628,0.3604,0.3887,0.4769,0.4769,0.4778,0.4796,0.3935,0.3647,0.3649,0.3683,0.3699,0.37,0.3722,0.3111,0.2179,0.0622,-0.0,-0.0,-0.0933,-0.0932,-0.0,-0.1852,-0.3363,-0.451,-0.4785,-0.5103,-0.547,-0.5863,-0.6865,-0.7538,-0.7877,-0.8495,-0.8759,-0.9328,-0.9583,-1.0146,-1.0656,-1.1144,-1.1602,-1.2031,-1.232,-1.2142,-1.1781,-1.1635,0.0,0.0,0.0,0.0,0.0,0.0,0.0,0.0,0.0,0.0,0.0,-1.2422,-1.3792,-1.5307,-1.6498,-1.6993,-1.7717,-1.8696,-1.9633,-2.0343,-2.1386,-2.2505,-2.3239,-2.3938,-2.4243,-2.4684,-2.5353,-2.6517,-2.6823,-2.7369,-2.8079,-2.9353,-2.9958,-3.0228,-3.0355,-3.0891,-3.1471,-3.1528,-3.1585,-3.1763,-3.1877,-3.1942,-3.195,-3.2031,-3.2096,-3.2096,-3.2096,-3.2096,-3.2096,-3.2096,-3.2064,-3.1958,-3.1942,-3.1901,-3.1828,-3.1788,-3.2056,-3.288,-3.3484,-3.4443,0.4898,0.4901,0.4927,0.494,0.4939,0.4887,0.4879,0.4906,0.4932,0.4943,0.4942,0.4916,0.4904,0.4904,0.4904,0.4906,0.4912,0.4938,0.495,0.4951,0.4977,0.499,0.499,0.5017,0.5028,0.4714,0.1885,0.0314,-0.0,-0.0,-0.0,-0.0,-0.0,-0.1558,-0.4358,-0.4597,-0.4584,-0.4943,-0.5627,-0.6287,-0.6282,-0.6908,-0.7515,-0.747,-0.7415,-0.7653,-0.8473,-0.9008,-0.9812,-1.0577,-1.1101,-1.1524,-1.2071,-1.164,-1.1712,0.0,-1.195,0.0,0.0,0.0,0.0,0.0,0.0,0.0,0.0,-1.2404,-1.3415,-1.5296,-1.6461,-1.7589,-1.8375,-1.9203,-1.9737,-2.0237,-2.1485,-2.2544,-2.3203,-2.4013,-2.4833,-2.5104,-2.5396,-2.5999,-2.6873,-2.7385,-2.7527,-2.8292,-2.875,-2.9061,-2.9523,-3.0217,-3.069,-3.151,-3.1853,-3.1893,-3.2023,-3.208,-3.208,-3.2088,-3.2088,-3.2096,-3.2096,-3.2096,-3.2096,-3.2096,-3.2096,-3.2096,-3.2096,-3.2088,-3.2088,-3.2072,-3.2064,-3.2303,-3.2707,-3.3596,-3.4531,0.493,0.493,0.4935,0.4951,0.4973,0.4962,0.4961,0.4966,0.4972,0.4975,0.4973,0.4969,0.4966,0.4966,0.4966,0.498,0.5003,0.5009,0.5011,0.5011,0.5017,0.502,0.5021,0.5026,0.5028,0.5028,0.2828,0.1256,-0.0,-0.0,-0.0,-0.0,-0.0,-0.0939,-0.2804,0.0,0.0,0.0,-0.5346,-0.5682,-0.6284,-0.6596,-0.6889,-0.7468,-0.7356,0.0,-0.7515,-0.7432,-0.7929,-0.8704,-0.9308,0.0,0.0,0.0,0.0,0.0,0.0,0.0,0.0,0.0,0.0,0.0,-1.2841,-1.2841,-1.2584,-1.4172,-1.5501,-1.6067,-1.783,-1.8973,-1.9109,-1.943,-2.0263,-2.0918,-2.1411,-2.219,-2.3518,-2.4145,-2.4721,-2.5728,-2.6,-2.6203,-2.6589,-2.6726,-2.6823,-2.7185,-2.7317,-2.7717,-2.8312,-2.9636,-3.0668,-3.1044,-3.1366,-3.2048,-3.2088,-3.2096,-3.2096,-3.2096,-3.2096,-3.2096,-3.2096,-3.2096,-3.2096,-3.2096,-3.2096,-3.2096,-3.2096,-3.2096,-3.2096,-3.2096,-3.2096,-3.2409,-3.2992,-3.3949,-3.4931,0.4961,0.0,0.4976,0.4991,0.0,0.5006,0.5006,0.5006,0.5006,0.5006,0.5006,0.5006,0.5006,0.5006,0.5006,0.5014,0.5028,0.5028,0.5028,0.5028,0.5028,0.5028,0.5028,0.5028,0.5028,0.5028,0.4085,0.2514,-0.0,-0.0,-0.0,-0.0,-0.0,-0.0314,-0.1251,-0.1877,-0.3435,-0.4984,-0.5026,-0.5358,-0.5657,-0.5656,-0.5944,-0.6199,-0.6125,0.0,0.0,0.0,0.0,0.0,0.0,0.0,0.0,0.0,0.0,-1.1323,-1.1746,-1.1951,-1.2496,-1.2887,-1.3311,-1.3495,-1.3793,-1.3838,-1.3523,-1.5314,-1.6533,-1.6743,-1.8514,-1.9642,-1.9761,-1.999,-2.0493,-2.093,-2.1364,-2.2432,-2.354,-2.4371,-2.5152,-2.6149,-2.6325,-2.6461,-2.6468,-2.6597,-2.6678,-2.6692,-2.6753,-2.68,-2.7456,-2.8449,-2.9441,-3.0102,-3.077,-3.1429,-3.1429,-3.1767,-3.2096,-3.2096,-3.2096,-3.2096,-3.2096,-3.2096,-3.2096,-3.2096,-3.2096,-3.2096,-3.2096,-3.2096,-3.2096,-3.2096,-3.2096,-3.2096,-3.2755,-3.3733,-3.4718,0.4992,0.4994,0.5024,0.5036,0.5037,0.5041,0.5044,0.5043,0.0,0.0,0.0,0.5028,0.5028,0.5028,0.5028,0.5028,0.5028,0.5028,0.5028,0.5028,0.5028,0.5028,0.5028,0.5028,0.4714,0.4714,0.4714,0.3142,-0.0,-0.0,-0.0,-0.0,-0.0,-0.0,-0.0,-0.1571,-0.3448,-0.4994,-0.5015,-0.5028,-0.5028,-0.5024,-0.4996,-0.4946,-0.491,-0.4855,-0.4775,-0.5337,-0.6186,-0.7029,-0.7616,-0.8791,-1.0254,-1.0215,-1.075,-1.1558,-1.2128,-1.2711,-1.3014,-1.3722,-1.4152,-1.4275,-1.4499,-1.4552,-1.4658,-1.6008,-1.7109,-1.7612,-1.9069,-2.0185,-2.0305,-2.043,-2.0582,-2.08,-2.1468,-2.22,-2.3371,-2.4419,-2.5079,-2.6087,-2.6522,-2.661,-2.6617,-2.6719,-2.68,-2.68,-2.68,-2.68,-2.68,-2.7794,-2.8449,-2.9441,-3.0102,-3.0432,-3.077,-3.1429,-3.1767,-3.2096,-3.2096,-3.2096,-3.2096,-3.2096,-3.2096,-3.2096,-3.2096,-3.2096,-3.2096,-3.2096,-3.2096,-3.2096,-3.2096,-3.2096,-3.2096,-3.3413,-3.439,0.5022,0.5025,0.5054,0.5065,0.5067,0.5093,0.5104,0.51,0.5051,0.5028,0.5028,0.5028,0.5028,0.5028,0.5028,0.5028,0.5028,0.5028,0.5028,0.5028,0.5028,0.5028,0.5028,0.5028,0.4399,0.2828,0.2828,0.1885,-0.0,-0.0,-0.0,-0.0,-0.0,-0.0,-0.0,-0.1571,-0.3455,-0.5022,-0.5026,-0.5028,-0.5028,-0.5003,-0.4985,-0.4975,-0.4923,-0.4875,-0.4835,-0.5706,-0.6267,-0.7118,-0.8044,-0.8965,-0.9564,-1.0501,-1.1125,-1.2008,-1.2906,-1.3535,-1.421,-1.4544,-1.4667,-1.4903,-1.503,-1.5296,-1.5963,-1.6721,-1.782,-1.8582,-1.9732,-2.0561,-2.0675,-2.0783,-2.0909,-2.1044,-2.1066,-2.1742,-2.2443,-2.3515,-2.4563,-2.5228,-2.6341,-2.6766,-2.6759,-2.6787,-2.68,-2.68,-2.68,-2.68,-2.68,-2.7463,-2.8449,-2.9111,-2.9441,-2.9779,-3.0432,-3.0762,-3.1429,-3.2096,-3.2096,-3.2096,-3.2096,-3.2096,-3.2096,-3.2096,-3.2096,-3.2096,-3.2096,-3.2096,-3.2096,-3.2096,-3.2096,-3.2096,-3.2096,-3.3084,-3.3733,0.5028,0.5032,0.5059,0.5071,0.5073,0.5103,0.5115,0.5112,0.507,0.5052,0.505,0.5035,0.5028,0.5028,0.5028,0.5028,0.5028,0.5028,0.5028,0.5028,0.5028,0.5028,0.5028,0.5028,0.4714,0.377,0.1885,0.0628,-0.0,-0.0,-0.0,-0.0,-0.0,-0.0942,-0.2514,-0.2514,-0.3456,-0.5028,-0.5028,-0.5028,-0.5028,-0.5015,-0.5,-0.4984,-0.4955,-0.5235,-0.5507,-0.5798,-0.6693,-0.7886,-0.8513,-0.9136,-1.0355,-1.0686,-1.1311,-1.2226,-1.322,-1.3902,-1.4253,-1.465,-1.5384,-1.5824,-1.5875,-1.6498,-1.7671,-1.7747,-1.814,-1.9151,-1.9996,-2.08,-2.0854,-2.0963,-2.1088,-2.1213,-2.1224,-2.1575,-2.2297,-2.301,-2.3708,-2.5045,-2.5759,-2.6137,-2.68,-2.68,-2.68,-2.68,-2.68,-2.68,-2.68,-2.7132,-2.7463,-2.7794,-2.8456,-2.878,-2.9441,-3.0102,-3.0762,-3.1092,-3.1759,-3.2096,-3.2096,-3.2096,-3.2096,-3.2096,-3.2096,-3.2096,-3.2096,-3.2096,-3.2096,-3.2096,-3.2096,-3.2096,-3.2096,-3.2755,-3.3733,0.5028,0.503,0.5059,0.5074,0.5084,0.5114,0.5123,0.5114,0.5084,0.5071,0.5067,0.5041,0.5028,0.5028,0.5028,0.5028,0.5028,0.5028,0.5028,0.5028,0.5028,0.5028,0.5028,0.5028,0.5028,0.4714,0.2199,0.0628,-0.0,-0.0,-0.0314,-0.0,-0.1256,-0.2199,-0.4399,-0.3456,-0.377,-0.5028,-0.5029,-0.5343,-0.5028,-0.5028,-0.5017,-0.5307,-0.5306,-0.5604,-0.6507,-0.6813,-0.7437,-0.8687,-0.9,-0.9935,-1.1187,-1.1497,-1.212,-1.275,-1.3477,-1.4178,-1.45,-1.5263,-1.599,-1.6954,-1.699,-1.7689,-1.9044,-1.8757,-1.8762,-1.9727,-2.0525,-2.099,-2.1034,-2.1104,-2.1213,-2.1327,-2.1343,-2.1708,-2.2456,-2.2806,-2.3139,-2.4802,-2.5134,-2.5466,-2.6137,-2.6468,-2.6468,-2.68,-2.68,-2.68,-2.68,-2.68,-2.68,-2.68,-2.7463,-2.7787,-2.8118,-2.9111,-3.0094,-3.0087,-3.1092,-3.1759,-3.2096,-3.2096,-3.2096,-3.2096,-3.2096,-3.2096,-3.2096,-3.2096,-3.2096,-3.2096,-3.2096,-3.2096,-3.2096,-3.2426,-3.3733,0.5028,0.5032,0.5059,0.5086,0.5114,0.5142,0.5139,0.5114,0.5084,0.5071,0.5067,0.5041,0.5028,0.5028,0.5028,0.5028,0.5028,0.5028,0.5028,0.5028,0.5028,0.5028,0.5028,0.5028,0.5028,0.5028,0.4399,0.2514,-0.0,-0.0,-0.1571,-0.4085,-0.4399,-0.377,-0.3142,-0.4085,-0.4714,-0.5028,-0.5656,-0.5656,-0.5028,-0.5028,-0.534,-0.6279,-0.6277,-0.6589,-0.7208,-0.8154,-0.88,-0.8842,-1.0425,-1.1085,-1.1447,-1.3047,-1.3681,-1.3995,-1.4652,-1.5617,-1.6261,-1.6666,-1.7049,-1.7703,-1.818,-1.8605,-1.9604,-1.9691,-2.0038,-2.0627,-2.1028,-2.1148,-2.1256,-2.1278,-2.1333,-2.1425,-2.1447,-2.1463,-2.1807,-2.2473,-2.2806,-2.3139,-2.3805,-2.447,-2.5466,-2.5473,-2.5805,-2.6468,-2.6468,-2.68,-2.68,-2.68,-2.68,-2.68,-2.68,-2.7132,-2.7787,-2.8118,-2.9103,-3.0087,-3.0754,-3.1421,-3.1767,-3.2096,-3.2096,-3.2096,-3.2096,-3.2096,-3.2096,-3.2096,-3.2096,-3.2096,-3.2096,-3.2096,-3.2096,-3.2096,-3.3084,0.6596,0.6286,0.6006,0.6041,0.6077,0.545,0.5127,0.5114,0.5084,0.5071,0.5067,0.5041,0.5028,0.5028,0.5028,0.5028,0.5028,0.5028,0.5028,0.5028,0.5028,0.5028,0.5028,0.5028,0.5028,0.4714,0.3142,0.0314,-0.2514,-0.2828,-0.3142,-0.3456,-0.4399,-0.4714,-0.4085,-0.4714,-0.5343,-0.5656,-0.5968,-0.6282,-0.6596,-0.6596,-0.6596,-0.691,-0.6908,-0.755,-0.8203,-0.8522,-0.918,-0.955,-1.0824,-1.179,-1.2133,-1.3411,-1.4369,-1.4688,-1.5692,-1.6386,-1.6764,-1.7452,-1.8142,-1.8851,-1.8935,-1.9666,-2.0396,-2.0502,-2.0873,-2.1175,-2.1202,-2.1256,-2.1305,-2.1365,-2.1425,-2.1468,-2.1474,-2.1474,-2.1474,-2.1807,-2.214,-2.2806,-2.3139,-2.3805,-2.447,-2.4802,-2.5134,-2.5805,-2.6137,-2.6137,-2.68,-2.68,-2.68,-2.68,-2.68,-2.68,-2.7456,-2.7787,-2.8442,-2.9096,-3.0094,-3.1099,-3.1759,-3.2096,-3.2096,-3.2096,-3.2096,-3.2096,-3.2096,-3.2096,-3.2096,-3.2096,-3.2096,-3.2096,-3.2096,-3.2096,-3.2755,0.7536,0.7544,0.6953,0.6349,0.6367,0.5419,0.5099,0.509,0.5069,0.5059,0.5056,0.5037,0.5028,0.5028,0.5028,0.5028,0.5028,0.5028,0.4714,0.4399,0.4399,0.4399,0.5029,0.5037,0.4095,0.2205,-0.0316,-0.2527,-0.4421,-0.4738,-0.4421,-0.3473,-0.4421,-0.5048,-0.5356,-0.5355,-0.567,-0.6614,-0.6927,-0.7245,-0.7888,-0.8205,-0.8198,-0.7871,-0.7868,-0.8207,-0.9205,-0.921,-0.9552,-1.0571,-1.1527,-1.2175,-1.3155,-1.4118,-1.4758,-1.5402,-1.6417,-1.6821,-1.7242,-1.8223,-1.892,-1.9997,-2.0038,-2.0422,-2.1169,-2.1284,-2.1349,-2.1349,-2.1354,-2.1354,-2.136,-2.1425,-2.1474,-2.1474,-2.1474,-2.1474,-2.1474,-2.1474,-2.1807,-2.2473,-2.2473,-2.2806,-2.3472,-2.4137,-2.447,-2.5134,-2.5473,-2.5805,-2.6468,-2.6468,-2.68,-2.68,-2.68,-2.68,-2.68,-2.7125,-2.778,-2.8428,-2.9426,-3.044,-3.1429,-3.1759,-3.2096,-3.2096,-3.2096,-3.2096,-3.2096,-3.2096,-3.2096,-3.2096,-3.2096,-3.2096,-3.2096,-3.2096,-3.2426,0.7536,0.7544,0.6639,0.6004,0.5036,0.5062,0.5058,0.5039,0.5033,0.503,0.5032,0.5029,0.5028,0.5029,0.503,0.5029,0.5029,0.4717,0.409,0.2831,0.283,0.3457,0.503,0.5058,0.1585,-0.3171,-0.414,-0.415,-0.3193,-0.4472,-0.5114,-0.5109,-0.5107,-0.5414,-0.6025,-0.6337,-0.6653,-0.7601,-0.8234,-0.8888,-0.8931,-0.9578,-0.955,-0.8873,-0.8866,-0.921,-0.9899,-1.0226,-1.0571,-1.1594,-1.224,-1.3235,-1.4272,-1.493,-1.5573,-1.5577,-1.6551,-1.7242,-1.8304,-1.8974,-2.0002,-2.0777,-2.0873,-2.1284,-2.13,-2.1387,-2.1447,-2.1463,-2.1452,-2.1458,-2.1458,-2.1463,-2.1474,-2.1474,-2.1474,-2.1474,-2.1474,-2.1474,-2.1474,-2.1474,-2.1807,-2.214,-2.2806,-2.3466,-2.3805,-2.4137,-2.4802,-2.5473,-2.5805,-2.6137,-2.68,-2.6807,-2.68,-2.68,-2.68,-2.7132,-2.7118,-2.7435,-2.8765,-2.9772,-3.0432,-3.1092,-3.1759,-3.2096,-3.2096,-3.2096,-3.2096,-3.2096,-3.2096,-3.2096,-3.2096,-3.2096,-3.2096,-3.2096,-3.2096,0.9108,0.8797,0.6927,0.6296,0.5972,0.5355,0.5037,0.5029,0.5028,0.5028,0.4714,0.377,0.4085,0.5029,0.505,0.4424,0.3478,0.2221,0.2543,0.3496,0.1907,-0.0,-0.1589,-0.1593,-0.1913,-0.3508,-0.4794,-0.4798,-0.4477,-0.4797,-0.5116,-0.5116,-0.5756,-0.6069,-0.6378,-0.7013,-0.7648,-0.8601,-0.8919,-0.9249,-0.9591,-0.991,-0.9915,-0.9928,-0.9894,-0.9905,-1.0284,-1.0284,-1.0633,-1.1662,-1.2634,-1.3295,-1.4294,-1.5274,-1.5598,-1.5598,-1.6564,-1.6927,-1.7667,-1.8337,-1.939,-2.0219,-2.0282,-2.0675,-2.1403,-2.1452,-2.1474,-2.1474,-2.1474,-2.1474,-2.1474,-2.1474,-2.1474,-2.1474,-2.1474,-2.1474,-2.1474,-2.1474,-2.1474,-2.1474,-2.1474,-2.1807,-2.1807,-2.214,-2.2806,-2.3139,-2.3472,-2.4137,-2.5134,-2.5805,-2.6137,-2.68,-2.68,-2.68,-2.68,-2.68,-2.7132,-2.778,-2.8773,-2.9772,-3.0432,-3.1421,-3.2096,-3.2096,-3.2096,-3.2096,-3.2096,-3.2096,-3.2096,-3.2096,-3.2096,-3.2096,-3.2096,-3.2096,-3.2096,0.9435,0.8821,0.6932,0.6308,0.6002,0.5372,0.5056,0.5056,0.5058,0.5058,0.4742,0.3793,0.4105,0.4734,0.5075,0.3816,0.159,0.0638,0.064,0.1279,-0.064,-0.2559,-0.4161,-0.4808,-0.4491,-0.3851,-0.45,-0.5146,-0.5145,-0.5145,-0.5466,-0.5788,-0.6109,-0.6746,-0.7377,-0.7695,-0.8654,-0.9294,-0.9294,-0.9624,-1.0284,-1.0286,-1.0303,-1.0333,-1.0305,-1.0303,-1.0344,-1.0344,-1.1006,-1.2019,-1.2678,-1.365,-1.4622,-1.5274,-1.5598,-1.5598,-1.627,-1.6976,-1.7069,-1.7764,-1.8838,-1.9671,-2.0028,-2.0396,-2.1135,-2.1474,-2.1474,-2.1474,-2.1474,-2.1474,-2.1474,-2.1474,-2.1474,-2.1474,-2.1474,-2.1474,-2.1474,-2.1474,-2.1474,-2.1474,-2.1474,-2.1474,-2.1474,-2.1474,-2.1807,-2.2473,-2.2473,-2.3472,-2.447,-2.5134,-2.5805,-2.6137,-2.6468,-2.6807,-2.68,-2.68,-2.68,-2.7463,-2.8449,-2.9441,-3.0432,-3.1429,-3.2096,-3.2096,-3.2096,-3.2096,-3.2096,-3.2096,-3.2096,-3.2096,-3.2096,-3.2096,-3.2096,-3.2096,-3.2096,0.7883,0.6972,0.634,0.5722,0.5426,0.5107,0.5112,0.5109,0.5114,0.479,0.415,0.4475,0.4138,0.4765,0.4466,0.2879,-0.0,-0.0,-0.1603,-0.4167,-0.4487,-0.4165,-0.3205,-0.4509,-0.5164,-0.484,-0.519,-0.5204,-0.5199,-0.5197,-0.5846,-0.65,-0.6495,-0.7449,-0.9028,-0.9028,-0.9351,-0.9994,-1.0314,-1.0341,-1.0395,-1.0393,-1.039,-1.0398,-1.0393,-1.0393,-1.0401,-1.0401,-1.1374,-1.2674,-1.3002,-1.3974,-1.5274,-1.5598,-1.5598,-1.5618,-1.633,-1.7073,-1.7175,-1.7915,-1.833,-1.8771,-1.9467,-1.9796,-2.014,-2.0807,-2.1474,-2.1474,-2.1474,-2.1474,-2.1474,-2.1474,-2.1474,-2.1474,-2.1474,-2.1474,-2.1474,-2.1474,-2.1474,-2.1474,-2.1474,-2.1474,-2.1474,-2.1474,-2.1474,-2.1807,-2.214,-2.2806,-2.3139,-2.447,-2.5141,-2.5805,-2.6137,-2.6807,-2.68,-2.68,-2.68,-2.7132,-2.8125,-2.9449,-2.9779,-3.077,-3.1759,-3.2096,-3.2096,-3.2096,-3.2096,-3.2096,-3.2096,-3.2096,-3.2096,-3.2096,-3.2096,-3.2096,-3.2096,0.6979,0.7017,0.6059,0.5426,0.5115,0.5115,0.5116,0.4798,0.3839,0.2559,0.1599,0.1599,0.1594,-0.0,0.1601,-0.0,-0.0,-0.0,-0.1942,-0.4857,-0.518,-0.4855,-0.4532,-0.4864,-0.5194,-0.5194,-0.5202,-0.5208,-0.5208,-0.5208,-0.5857,-0.6832,-0.7157,-0.8126,-0.9081,-0.9731,-1.0052,-1.0376,-1.0376,-1.0387,-1.0403,-1.0406,-1.0406,-1.0406,-1.0406,-1.0406,-1.0406,-1.1053,-1.1701,-1.3002,-1.365,-1.4298,-1.5274,-1.5598,-1.5626,-1.5683,-1.6042,-1.613,-1.6263,-1.6645,-1.737,-1.7779,-1.8136,-1.847,-1.9143,-2.014,-2.0473,-2.0473,-2.1141,-2.1474,-2.1474,-2.1474,-2.1474,-2.1474,-2.1474,-2.1474,-2.1474,-2.1474,-2.1474,-2.1474,-2.1474,-2.1474,-2.1474,-2.1474,-2.1474,-2.1474,-2.1807,-2.214,-2.2806,-2.3805,-2.4802,-2.5466,-2.6137,-2.68,-2.68,-2.68,-2.68,-2.7132,-2.7794,-2.9118,-2.9449,-3.044,-3.1429,-3.1767,-3.2096,-3.2096,-3.2096,-3.2096,-3.2096,-3.2096,-3.2096,-3.2096,-3.2096,-3.2096,-3.2096,0.6383,0.6417,0.5453,0.5139,0.5148,0.5138,0.5134,0.4813,0.3201,0.1599,-0.0,-0.0,-0.0,-0.0,-0.0,-0.0,-0.0,-0.1294,-0.2599,-0.423,-0.4884,-0.5208,-0.5208,-0.5208,-0.5208,-0.5208,-0.5208,-0.5208,-0.5206,-0.5532,-0.6182,-0.7157,-0.7807,-0.8782,-0.9432,-1.0082,-1.0406,-1.0406,-1.0403,-1.0406,-1.0406,-1.0406,-1.0406,-1.0406,-1.0406,-1.0406,-1.0403,-1.1377,-1.2353,-1.3005,-1.4,-1.5009,-1.5687,-1.57,-1.572,-1.5769,-1.5818,-1.5887,-1.5985,-1.603,-1.6401,-1.6789,-1.7132,-1.7801,-1.8475,-1.9472,-2.014,-2.014,-2.0807,-2.1474,-2.1474,-2.1474,-2.1474,-2.1474,-2.1474,-2.1474,-2.1474,-2.1474,-2.1474,-2.1474,-2.1474,-2.1474,-2.1474,-2.1474,-2.1474,-2.1474,-2.1474,-2.1807,-2.2806,-2.3472,-2.447,-2.5466,-2.6137,-2.6468,-2.68,-2.68,-2.68,-2.7132,-2.7456,-2.8456,-2.9449,-3.0102,-3.1099,-3.1767,-3.2096,-3.2096,-3.2096,-3.2096,-3.2096,-3.2096,-3.2096,-3.2096,-3.2096,-3.2096,-3.2096,0.5779,0.5161,0.5164,0.5179,0.5197,0.5171,0.5159,0.4836,0.3207,0.16,-0.0,-0.0,-0.0,-0.0,-0.0,-0.0,-0.0,-0.3231,-0.3891,-0.3901,-0.4556,-0.5208,-0.5208,-0.5208,-0.5208,-0.5208,-0.5208,-0.5208,-0.5206,-0.5855,-0.7155,-0.8135,-0.8782,-0.9432,-1.0082,-1.0406,-1.0406,-1.0406,-1.0406,-1.0406,-1.0406,-1.0406,-1.0406,-1.0406,-1.0406,-1.0406,-1.0731,-1.2038,-1.3015,-1.3343,-1.4714,-1.5769,-1.5838,-1.5859,-1.5847,-1.5867,-1.5949,-1.5981,-1.6022,-1.6079,-1.6124,-1.6132,-1.6798,-1.7467,-1.7467,-1.8804,-1.9806,-1.9811,-2.0807,-2.1474,-2.1474,-2.1474,-2.1474,-2.1474,-2.1474,-2.1474,-2.1474,-2.1474,-2.1474,-2.1474,-2.1474,-2.1474,-2.1474,-2.1474,-2.1474,-2.1474,-2.1474,-2.1807,-2.2806,-2.3472,-2.447,-2.5466,-2.6137,-2.6468,-2.68,-2.68,-2.68,-2.68,-2.7456,-2.8118,-2.9118,-3.0102,-3.0762,-3.1429,-3.2096,-3.2096,-3.2096,-3.2096,-3.2096,-3.2096,-3.2096,-3.2096,-3.2096,-3.2096,-3.2088,0.549,0.5194,0.5194,0.5199,0.5202,0.5174,0.5163,0.4838,0.3207,0.1603,-0.0,-0.0,-0.0,-0.0,-0.0,-0.0,-0.0,-0.3566,-0.5199,-0.4555,-0.4881,-0.5208,-0.5208,-0.5208,-0.5208,-0.5208,-0.5208,-0.5208,-0.5206,-0.618,-0.7482,-0.9764,-0.911,-0.9432,-1.0406,-1.0406,-1.0406,-1.0406,-1.0406,-1.0406,-1.0406,-1.0406,-1.0406,-1.0406,-1.0406,-1.0406,-1.0412,-1.2079,-1.374,-1.5052,-1.545,-1.5834,-1.5867,-1.5875,-1.59,-1.5957,-1.5981,-1.603,-1.6088,-1.612,-1.6132,-1.6132,-1.6467,-1.6467,-1.6467,-1.7467,-1.847,-1.9143,-1.9811,-2.0807,-2.1141,-2.1474,-2.1474,-2.1474,-2.1474,-2.1474,-2.1474,-2.1474,-2.1474,-2.1474,-2.1474,-2.1474,-2.1474,-2.1474,-2.1474,-2.1474,-2.1474,-2.1807,-2.2806,-2.3472,-2.447,-2.5473,-2.6137,-2.6468,-2.68,-2.68,-2.68,-2.68,-2.7132,-2.7463,-2.8449,-2.9772,-3.0432,-3.1099,-3.1759,-3.1759,-3.2096,-3.2096,-3.2096,-3.2096,-3.2096,-3.2096,-3.2096,-3.2096,-3.208,0.5191,0.5208,0.5208,0.5199,0.5184,0.5154,0.5144,0.4818,0.3196,0.1599,-0.0,-0.0,-0.0,-0.0,-0.0,-0.0,-0.2269,-0.3575,-0.4556,-0.5208,-0.5208,-0.5208,-0.5208,-0.5208,-0.5208,-0.5208,-0.5208,-0.5208,-0.5206,-0.618,-0.7809,-0.9764,-0.9434,-0.9432,-1.0406,-1.0406,-1.0406,-1.0406,-1.0406,-1.0406,-1.0406,-1.0406,-1.0406,-1.0406,-1.0406,-1.0739,-1.1425,-1.2492,-1.4194,-1.5526,-1.5892,-1.5932,-1.5969,-1.5973,-1.6002,-1.6055,-1.6055,-1.6079,-1.6116,-1.6132,-1.6132,-1.6132,-1.6132,-1.6132,-1.6132,-1.6798,-1.7801,-1.8136,-1.9143,-1.9811,-2.0807,-2.1141,-2.1474,-2.1474,-2.1474,-2.1474,-2.1474,-2.1474,-2.1474,-2.1474,-2.1474,-2.1474,-2.1474,-2.1474,-2.1474,-2.1474,-2.1474,-2.214,-2.3139,-2.3805,-2.447,-2.5805,-2.6137,-2.6468,-2.68,-2.68,-2.68,-2.68,-2.68,-2.7132,-2.8118,-2.9111,-3.0102,-3.077,-3.1099,-3.1759,-3.1767,-3.2096,-3.2096,-3.2096,-3.2096,-3.2096,-3.2096,-3.2096,-3.208,0.5202,0.5202,0.5199,0.5182,0.5153,0.5124,0.5116,0.4794,0.318,0.1592,-0.0,-0.0,-0.0,-0.0,-0.0,-0.2278,-0.4884,-0.3904,-0.423,-0.4881,-0.5208,-0.5208,-0.5208,-0.5208,-0.5208,-0.5208,-0.5208,-0.5208,-0.5532,-0.618,-0.7807,-0.9437,-0.911,-0.9757,-1.0082,-1.0406,-1.0406,-1.0406,-1.0406,-1.0406,-1.0409,-1.0417,-1.0428,-1.0428,-1.0444,-1.1125,-1.2167,-1.3244,-1.3979,-1.5674,-1.601,-1.6047,-1.6112,-1.6128,-1.6124,-1.612,-1.612,-1.6124,-1.6132,-1.6132,-1.6132,-1.6132,-1.6132,-1.6132,-1.6132,-1.6802,-1.7467,-1.7801,-1.814,-1.9143,-2.0145,-2.0812,-2.1474,-2.1474,-2.1474,-2.1474,-2.1474,-2.1474,-2.1474,-2.1474,-2.1474,-2.1474,-2.1474,-2.1474,-2.1474,-2.1474,-2.1474,-2.214,-2.3139,-2.3805,-2.5134,-2.6468,-2.68,-2.68,-2.68,-2.68,-2.68,-2.68,-2.68,-2.7132,-2.7463,-2.8449,-2.9441,-3.0102,-3.0432,-3.1099,-3.1759,-3.1759,-3.2096,-3.2096,-3.2096,-3.2096,-3.2096,-3.2096,-3.2088,0.5171,0.5169,0.5145,0.5131,0.5122,0.5094,0.5096,0.4795,0.3178,0.1595,-0.0,-0.0,-0.0,-0.0,-0.2602,-0.4558,-0.4884,-0.4557,-0.4881,-0.5206,-0.5208,-0.5208,-0.5208,-0.5208,-0.5208,-0.5208,-0.5208,-0.5208,-0.5532,-0.618,-0.7155,-0.8135,-0.8785,-0.9432,-1.0082,-1.0406,-1.0406,-1.0406,-1.0406,-1.0412,-1.0423,-1.0458,-1.0477,-1.048,-1.0521,-1.1235,-1.2271,-1.2933,-1.3972,-1.4725,-1.5766,-1.6108,-1.6128,-1.6132,-1.6132,-1.6132,-1.6132,-1.6132,-1.6132,-1.6132,-1.6132,-1.6132,-1.6132,-1.6132,-1.6132,-1.6132,-1.6802,-1.7132,-1.7801,-1.847,-1.9811,-2.0807,-2.1474,-2.1474,-2.1474,-2.1474,-2.1474,-2.1474,-2.1474,-2.1474,-2.1474,-2.1474,-2.1474,-2.1474,-2.1474,-2.1474,-2.1807,-2.2473,-2.3139,-2.4137,-2.5134,-2.6468,-2.68,-2.68,-2.68,-2.68,-2.68,-2.68,-2.68,-2.6807,-2.7463,-2.7794,-2.8449,-2.9441,-3.0102,-3.0432,-3.1099,-3.1767,-3.1767,-3.2096,-3.2096,-3.2096,-3.2096,-3.2096,-3.2007,0.5139,0.5138,0.5122,0.5108,0.5093,0.5078,0.5081,0.4777,0.3185,0.16,-0.0,-0.0,-0.0,-0.0,-0.2604,-0.3907,-0.4232,-0.4882,-0.5208,-0.5208,-0.5208,-0.5208,-0.5208,-0.5208,-0.5208,-0.5208,-0.5208,-0.5208,-0.5206,-0.5532,-0.6182,-0.683,-0.7807,-0.8782,-0.9757,-1.0079,-1.0406,-1.0414,-1.0436,-1.0447,-1.0458,-1.0507,-1.054,-1.0551,-1.0597,-1.0981,-1.1999,-1.301,-1.3685,-1.4729,-1.5439,-1.6132,-1.6132,-1.6132,-1.6132,-1.6132,-1.6132,-1.6132,-1.6132,-1.6132,-1.6132,-1.6132,-1.6132,-1.6132,-1.6132,-1.6132,-1.6132,-1.6802,-1.7132,-1.7467,-1.9143,-2.014,-2.0807,-2.1474,-2.1474,-2.1474,-2.1474,-2.1474,-2.1474,-2.1474,-2.1474,-2.1474,-2.1474,-2.1474,-2.1474,-2.1474,-2.1474,-2.214,-2.3472,-2.4137,-2.5134,-2.6137,-2.6468,-2.68,-2.68,-2.68,-2.68,-2.68,-2.68,-2.68,-2.7132,-2.7463,-2.7787,-2.8449,-2.9111,-2.9441,-3.0102,-3.077,-3.1437,-3.1437,-3.1429,-3.1767,-3.2096,-3.208,-3.1934,0.5108,0.5108,0.5104,0.5088,0.5066,0.5063,0.5069,0.4761,0.3506,0.1922,-0.0,-0.0,-0.0,-0.0,-0.1953,-0.2604,-0.358,-0.423,-0.5208,-0.5208,-0.5208,-0.5208,-0.5208,-0.5208,-0.5208,-0.5208,-0.5208,-0.5208,-0.5208,-0.5208,-0.553,-0.5529,-0.683,-0.8132,-0.8782,-0.9754,-1.0082,-1.0087,-1.0458,-1.0488,-1.0504,-1.0559,-1.0602,-1.0632,-1.0662,-1.1026,-1.1705,-1.2719,-1.34,-1.4358,-1.5408,-1.5778,-1.6132,-1.6132,-1.6132,-1.6132,-1.6132,-1.6132,-1.6132,-1.6132,-1.6132,-1.6132,-1.6132,-1.6132,-1.6132,-1.6128,-1.6116,-1.6108,-1.6434,-1.7102,-1.8451,-1.9801,-2.0473,-2.1141,-2.1474,-2.1474,-2.1474,-2.1474,-2.1474,-2.1474,-2.1474,-2.1474,-2.1474,-2.1474,-2.1474,-2.1474,-2.1474,-2.2135,-2.3466,-2.4464,-2.5128,-2.6137,-2.6468,-2.68,-2.68,-2.6793,-2.6793,-2.68,-2.68,-2.68,-2.68,-2.7132,-2.7132,-2.7787,-2.8118,-2.878,-2.9111,-2.9779,-3.044,-3.077,-3.1437,-3.1775,-3.2096,-3.2072,-3.1861,0.5078,0.5075,0.5052,0.504,0.5036,0.5036,0.5051,0.5073,0.4445,0.2875,-0.0,-0.0,-0.0,-0.0,-0.1953,-0.3254,-0.423,-0.5206,-0.5208,-0.5208,-0.5208,-0.5208,-0.5208,-0.5208,-0.5208,-0.5208,-0.5208,-0.5208,-0.5208,-0.5208,-0.5206,-0.5529,-0.618,-0.7155,-0.8132,-0.8782,-0.9432,-0.9442,-0.9816,-1.0177,-1.0198,-1.0608,-1.0681,-1.0714,-1.0736,-1.0741,-1.1071,-1.1717,-1.2712,-1.3752,-1.438,-1.54,-1.5774,-1.6128,-1.6132,-1.6132,-1.6132,-1.6132,-1.612,-1.6124,-1.6132,-1.6132,-1.6124,-1.6132,-1.6132,-1.6124,-1.6083,-1.6034,-1.6683,-1.7343,-1.768,-1.9061,-2.013,-2.0468,-2.113,-2.1468,-2.1474,-2.1474,-2.1474,-2.1474,-2.1474,-2.1474,-2.1474,-2.1474,-2.1474,-2.1463,-2.1441,-2.2434,-2.3757,-2.4433,-2.4777,-2.5792,-2.68,-2.68,-2.68,-2.6787,-2.6787,-2.68,-2.68,-2.68,-2.68,-2.68,-2.7132,-2.7456,-2.7787,-2.8118,-2.878,-2.9111,-2.9441,-2.9772,-3.0777,-3.1783,-3.1719,-3.1318,-3.1796,0.505,0.5047,0.5035,0.5028,0.5028,0.5028,0.4407,0.3788,0.4434,0.3186,-0.0,-0.0,-0.0,-0.0,-0.0651,-0.2604,-0.4556,-0.5208,-0.5208,-0.5208,-0.5208,-0.5208,-0.5208,-0.5208,-0.5208,-0.5208,-0.5208,-0.5208,-0.5208,-0.5208,-0.5206,-0.553,-0.618,-0.683,-0.7157,-0.8132,-0.8457,-0.8473,-0.8851,-0.9224,-0.9234,-0.9997,-1.0404,-0.9751,-1.0433,-1.0433,-1.0425,-1.1414,-1.2388,-1.339,-1.4391,-1.5062,-1.5742,-1.6108,-1.6132,-1.6132,-1.6128,-1.6104,-1.6075,-1.6063,-1.6059,-1.6063,-1.6063,-1.6092,-1.6104,-1.6088,-1.6022,-1.5953,-1.6255,-1.6915,-1.725,-1.8623,-1.9324,-2.0043,-2.0723,-2.142,-2.1458,-2.1468,-2.1474,-2.1468,-2.1468,-2.1468,-2.1474,-2.1474,-2.1474,-2.1458,-2.142,-2.24,-2.372,-2.4364,-2.4695,-2.5687,-2.6692,-2.6712,-2.6719,-2.6719,-2.6739,-2.6766,-2.68,-2.68,-2.6793,-2.6787,-2.6793,-2.68,-2.7132,-2.7407,-2.7787,-2.8118,-2.8449,-2.8773,-2.9764,-3.0409,-3.0653,-3.0871,-3.1023,0.5028,0.5028,0.5028,0.5028,0.5028,0.5028,0.4085,0.2831,0.3474,0.2539,-0.0,-0.0,-0.0,-0.0,-0.0,-0.1627,-0.4556,-0.4881,-0.5208,-0.5208,-0.5208,-0.5208,-0.5208,-0.5208,-0.5208,-0.5208,-0.5208,-0.5208,-0.5208,-0.5208,-0.5208,-0.5206,-0.5855,-0.618,-0.6505,-0.7157,-0.7482,-0.7506,-0.7881,-0.7928,-0.8301,-0.9026,-0.9417,-0.8411,-0.9422,-0.9758,-0.9753,-1.0758,-1.1741,-1.2732,-1.3741,-1.4424,-1.5384,-1.5758,-1.5786,-1.5774,-1.6108,-1.6055,-1.5998,-1.5969,-1.5969,-1.5969,-1.599,-1.6039,-1.6055,-1.6014,-1.5932,-1.5859,-1.5834,-1.6163,-1.6824,-1.7833,-1.8867,-1.9585,-2.0633,-2.1338,-2.1409,-2.1441,-2.1447,-2.1447,-2.1452,-2.1452,-2.1452,-2.1474,-2.1474,-2.1441,-2.1409,-2.2343,-2.3648,-2.3911,-2.4557,-2.5872,-2.6549,-2.659,-2.6603,-2.6617,-2.6651,-2.6692,-2.6759,-2.68,-2.678,-2.6759,-2.6753,-2.6719,-2.6658,-2.6946,-2.7035,-2.7111,-2.7421,-2.8068,-2.8736,-2.9329,-2.9858,-3.038,-3.088,0.5028,0.5028,0.5028,0.5028,0.5028,0.5028,0.4085,0.2514,0.1258,0.0316,-0.0,-0.0,-0.0,-0.0,-0.0,-0.0,-0.2928,-0.4556,-0.5208,-0.5208,-0.5208,-0.5208,-0.5208,-0.5208,-0.5208,-0.5208,-0.5208,-0.5208,-0.5208,-0.5208,-0.5208,-0.5206,-0.5206,-0.5532,-0.5532,-0.6188,-0.6505,-0.6839,-0.7529,-0.7918,-0.7649,-0.7674,-0.77,-0.7725,-0.8071,-0.8407,-0.9081,-0.9756,-1.0752,-1.2094,-1.2432,-1.2771,-1.3769,-1.4443,-1.4744,-1.5039,-1.5337,-1.5973,-1.5896,-1.5875,-1.5875,-1.5892,-1.5932,-1.599,-1.5977,-1.5928,-1.5843,-1.5761,-1.5749,-1.5749,-1.6415,-1.745,-1.848,-1.9181,-2.0219,-2.0937,-2.1338,-2.1349,-2.136,-2.1365,-2.1349,-2.1392,-2.1414,-2.1447,-2.1468,-2.143,-2.1719,-2.2309,-2.3223,-2.3807,-2.4129,-2.5452,-2.64,-2.6434,-2.6475,-2.6488,-2.6529,-2.659,-2.6664,-2.6739,-2.6692,-2.6637,-2.6617,-2.6576,-2.6515,-2.6529,-2.6631,-2.7015,-2.7029,-2.7324,-2.7604,-2.8489,-2.9024,-2.9553,-3.01,0.5028,0.5028,0.5028,0.5028,0.5028,0.5028,0.4085,0.2514,-0.0,-0.0,-0.0,-0.0,-0.0,-0.0,-0.0,-0.0,-0.1627,-0.3905,-0.5206,-0.5208,-0.5208,-0.5208,-0.5208,-0.5208,-0.5208,-0.5208,-0.5208,-0.5208,-0.5208,-0.5208,-0.5208,-0.5208,-0.5208,-0.5206,-0.5209,-0.555,-0.5871,-0.5874,-0.6219,-0.626,-0.6298,-0.6313,-0.6328,-0.6698,-0.7034,-0.7714,-0.8401,-0.9084,-1.0427,-1.177,-1.2106,-1.2438,-1.3109,-1.3773,-1.4068,-1.3947,-1.4594,-1.5216,-1.5802,-1.5789,-1.5789,-1.5794,-1.5826,-1.5838,-1.5838,-1.5818,-1.5753,-1.5667,-1.5655,-1.5659,-1.6309,-1.764,-1.8347,-1.9385,-2.0105,-2.0862,-2.124,-2.124,-2.1251,-2.1251,-2.1251,-2.1273,-2.13,-2.1327,-2.1343,-2.1343,-2.1262,-2.1827,-2.2741,-2.3974,-2.4337,-2.5393,-2.5993,-2.6271,-2.6312,-2.6346,-2.6366,-2.642,-2.6461,-2.6522,-2.6515,-2.6488,-2.6461,-2.6447,-2.642,-2.6468,-2.6549,-2.6556,-2.6529,-2.6823,-2.6781,-2.7663,-2.8212,-2.8815,-2.9685,0.5022,0.5028,0.5028,0.5028,0.5028,0.5028,0.4399,0.3142,0.0942,-0.0,-0.0,-0.0,-0.0,-0.0,-0.0,-0.0,-0.0326,-0.2604,-0.423,-0.4881,-0.5208,-0.5208,-0.5208,-0.5208,-0.5208,-0.5208,-0.5208,-0.5208,-0.5208,-0.5208,-0.5208,-0.5208,-0.5208,-0.5208,-0.5213,-0.5221,-0.5223,-0.521,-0.5553,-0.5582,-0.528,-0.5287,-0.5304,-0.5655,-0.6332,-0.7009,-0.8036,-0.8725,-0.9731,-1.1409,-1.1764,-1.2106,-1.2442,-1.2748,-1.3026,-1.3257,-1.3546,-1.4474,-1.5071,-1.5374,-1.57,-1.5708,-1.5728,-1.5757,-1.5749,-1.5732,-1.57,-1.5618,-1.561,-1.5925,-1.6569,-1.7548,-1.8233,-1.9264,-2.0291,-2.0734,-2.1159,-2.1153,-2.1131,-2.111,-2.1104,-2.1093,-2.1121,-2.1169,-2.1202,-2.1229,-2.1153,-2.136,-2.227,-2.3508,-2.418,-2.4899,-2.5191,-2.5785,-2.6135,-2.6176,-2.6203,-2.6257,-2.6305,-2.6352,-2.6386,-2.6352,-2.6305,-2.6298,-2.6291,-2.6244,-2.6244,-2.6298,-2.6346,-2.6318,-2.661,-2.6858,-2.7751,-2.8359,-2.9279,0.5003,0.5028,0.5028,0.5028,0.5028,0.5028,0.5028,0.4399,0.1256,-0.0,-0.0,-0.0,-0.0,-0.0,-0.0,-0.0,-0.0,-0.0,-0.2278,-0.423,-0.5208,-0.5208,-0.5208,-0.5208,-0.5208,-0.5208,-0.5208,-0.5208,-0.5208,-0.5208,-0.5208,-0.5208,-0.5208,-0.5208,-0.5209,-0.5213,-0.522,-0.521,-0.5217,-0.5228,-0.5247,-0.5258,-0.527,-0.5294,-0.5631,-0.6295,-0.7953,-0.7991,-0.9015,-1.0684,-1.1051,-1.1074,-1.1397,-1.1702,-1.1971,-1.2234,-1.2837,-1.3434,-1.4351,-1.4977,-1.5614,-1.5634,-1.5671,-1.5712,-1.5708,-1.5724,-1.5683,-1.5614,-1.5602,-1.5598,-1.6245,-1.7215,-1.8199,-1.9194,-1.9893,-2.0616,-2.1028,-2.1061,-2.1034,-2.0979,-2.0957,-2.0952,-2.0952,-2.1001,-2.1072,-2.1104,-2.1034,-2.1239,-2.1831,-2.2753,-2.3702,-2.4364,-2.468,-2.4982,-2.5952,-2.6,-2.6088,-2.6142,-2.6183,-2.6251,-2.6312,-2.6251,-2.6149,-2.6129,-2.6108,-2.602,-2.5979,-2.6108,-2.619,-2.6162,-2.6445,-2.6719,-2.7957,-2.8882,-2.9812,0.499,0.5002,0.5021,0.5028,0.5028,0.5028,0.5028,0.4714,0.2514,0.0945,-0.0,-0.0,-0.0,-0.0,-0.0,-0.0,-0.0,-0.0,-0.0,-0.0,-0.3905,-0.4882,-0.5208,-0.5206,-0.5208,-0.5208,-0.5208,-0.5208,-0.5208,-0.5208,-0.5208,-0.5208,-0.5208,-0.5208,-0.5208,-0.5209,-0.5216,-0.5224,-0.5216,-0.5216,-0.5219,-0.5225,-0.5239,-0.5266,-0.5269,-0.6269,-0.7608,-0.7957,-0.8959,-0.9964,-1.0651,-1.0665,-1.0668,-1.097,-1.1255,-1.1203,-1.1818,-1.2747,-1.3668,-1.4298,-1.495,-1.5602,-1.563,-1.5655,-1.5663,-1.5655,-1.5638,-1.5606,-1.5598,-1.5598,-1.6564,-1.7534,-1.8513,-1.9164,-1.9841,-2.0541,-2.0909,-2.0947,-2.0957,-2.0914,-2.086,-2.0827,-2.0827,-2.0832,-2.0914,-2.0974,-2.0887,-2.0816,-2.1429,-2.2044,-2.2688,-2.3652,-2.3973,-2.4615,-2.5591,-2.5631,-2.6,-2.6034,-2.6068,-2.6108,-2.6156,-2.6074,-2.5986,-2.5959,-2.5966,-2.5945,-2.5959,-2.6013,-2.604,-2.6034,-2.6328,-2.6608,-2.7847,-2.9423,-3.0379,0.4966,0.4985,0.5007,0.502,0.5028,0.5028,0.5028,0.4714,0.377,0.1891,-0.0,-0.0,-0.0,-0.0,-0.0,-0.0,-0.0,-0.0,-0.0,-0.0,-0.2278,-0.3905,-0.423,-0.4556,-0.4556,-0.4881,-0.5208,-0.5208,-0.5208,-0.5208,-0.5208,-0.5208,-0.5208,-0.5208,-0.5208,-0.5209,-0.5219,-0.5227,-0.5221,-0.5214,-0.5219,-0.5224,-0.5228,-0.5253,-0.5255,-0.5909,-0.7238,-0.7576,-0.8579,-0.9578,-1.025,-1.0592,-1.0583,-1.0567,-1.0537,-1.0835,-1.1128,-1.175,-1.3019,-1.3974,-1.495,-1.5598,-1.5602,-1.5606,-1.5598,-1.5598,-1.5602,-1.5602,-1.5598,-1.5917,-1.6564,-1.7534,-1.8185,-1.8836,-2.0122,-2.0811,-2.0822,-2.0854,-2.086,-2.0849,-2.0805,-2.0773,-2.0778,-2.0789,-2.0822,-2.0876,-2.0838,-2.0789,-2.1095,-2.1401,-2.2044,-2.2682,-2.3331,-2.4294,-2.5263,-2.529,-2.531,-2.5952,-2.5973,-2.5952,-2.5952,-2.5898,-2.5898,-2.5918,-2.5925,-2.5905,-2.5925,-2.5966,-2.5945,-2.5918,-2.6552,-2.72,-2.8153,-2.9415,-3.0371,0.493,0.4981,0.4983,0.5,0.5025,0.5028,0.5028,0.5028,0.4714,0.2836,-0.0,-0.0,-0.0,-0.0,-0.0,-0.0,-0.0,-0.0,-0.0,-0.0,-0.0,-0.0,-0.2278,-0.2928,-0.3253,-0.4881,-0.4881,-0.4556,-0.4881,-0.4881,-0.4881,-0.4881,-0.4881,-0.5208,-0.5208,-0.5208,-0.5208,-0.5209,-0.521,-0.5227,-0.5246,-0.5251,-0.5255,-0.5257,-0.5254,-0.5903,-0.655,-0.7535,-0.853,-0.9191,-1.0208,-1.0551,-1.0553,-1.0515,-1.0493,-1.0485,-1.0439,-1.1386,-1.3002,-1.4626,-1.5274,-1.5598,-1.5598,-1.5598,-1.5598,-1.5598,-1.5598,-1.5598,-1.5598,-1.5598,-1.6245,-1.7211,-1.7862,-1.8831,-2.0117,-2.0762,-2.0778,-2.0783,-2.08,-2.0811,-2.0789,-2.0762,-2.0762,-2.0762,-2.0762,-2.0778,-2.0767,-2.0762,-2.0762,-2.1084,-2.1401,-2.2039,-2.2688,-2.3331,-2.4294,-2.4615,-2.4943,-2.5577,-2.5898,-2.5577,-2.5577,-2.5898,-2.5898,-2.5898,-2.5898,-2.5898,-2.5898,-2.5905,-2.5898,-2.6218,-2.7499,-2.8465,-2.8777,-2.9415,-3.0371,0.4904,0.4925,0.4945,0.497,0.4999,0.5021,0.5028,0.5028,0.4715,0.3146,-0.0,-0.0,-0.0,-0.0,-0.0,-0.0,-0.0,-0.0,-0.0,-0.0,-0.0,-0.0,-0.0,-0.0,-0.0,-0.1953,-0.2604,-0.358,-0.3253,-0.358,-0.358,-0.3579,-0.4558,-0.5206,-0.5208,-0.5209,-0.5213,-0.5234,-0.524,-0.5251,-0.5277,-0.5283,-0.5283,-0.5281,-0.5265,-0.5575,-0.6539,-0.7195,-0.8162,-0.9141,-0.9826,-1.048,-1.048,-1.0444,-1.0442,-1.0439,-1.0406,-1.1055,-1.2678,-1.3974,-1.4946,-1.5274,-1.5606,-1.561,-1.5602,-1.5598,-1.5598,-1.5606,-1.561,-1.561,-1.5921,-1.7215,-1.8185,-1.8508,-1.9472,-2.0439,-2.0767,-2.0767,-2.0773,-2.0778,-2.0762,-2.0762,-2.0762,-2.0762,-2.0762,-2.0762,-2.0762,-2.0762,-2.0762,-2.0762,-2.1078,-2.1722,-2.2366,-2.2688,-2.3331,-2.3652,-2.3973,-2.4622,-2.4936,-2.4936,-2.5257,-2.5584,-2.5898,-2.5898,-2.5898,-2.5898,-2.5898,-2.5898,-2.5898,-2.6218,-2.7499,-2.8457,-2.8777,-2.9415,-3.0698,0.4883,0.4894,0.4915,0.4939,0.497,0.5,0.5018,0.5026,0.5028,0.377,-0.0,-0.0,-0.0,-0.0,-0.0,-0.0,-0.0,-0.0,-0.0,-0.0,-0.0,-0.0,-0.0,-0.0,-0.0,-0.0,-0.0,-0.1627,-0.1627,-0.1627,-0.2604,-0.3582,-0.3912,-0.4571,-0.4896,-0.522,-0.5221,-0.524,-0.5251,-0.527,-0.5299,-0.5313,-0.5314,-0.5304,-0.5287,-0.5591,-0.6229,-0.7187,-0.8135,-0.8785,-0.9757,-1.0406,-1.0406,-1.0406,-1.0406,-1.0406,-1.0731,-1.1704,-1.2678,-1.3974,-1.4622,-1.5598,-1.5622,-1.5659,-1.5679,-1.5708,-1.5679,-1.5667,-1.5638,-1.5618,-1.593,-1.722,-1.7862,-1.8508,-1.9149,-2.0117,-2.0762,-2.0762,-2.0762,-2.0762,-2.0762,-2.0762,-2.0762,-2.0762,-2.0762,-2.0762,-2.0762,-2.0762,-2.0762,-2.0762,-2.1084,-2.1401,-2.1722,-2.2044,-2.2366,-2.2688,-2.3009,-2.3658,-2.3979,-2.4294,-2.5263,-2.5912,-2.5905,-2.5898,-2.5898,-2.5898,-2.5898,-2.5898,-2.5898,-2.6218,-2.7179,-2.7818,-2.8457,-2.9415,-3.0698,0.4864,0.4889,0.4891,0.4908,0.4939,0.4972,0.5002,0.5028,0.5028,0.5028,0.4715,0.1571,-0.0,-0.0,-0.0,-0.0,-0.0,-0.0,-0.0,-0.0,-0.0,-0.0,-0.0,-0.0,-0.0,-0.0,-0.0,-0.0,-0.0,-0.0,-0.0,-0.3585,-0.327,-0.393,-0.4583,-0.4909,-0.4913,-0.5264,-0.5276,-0.53,-0.5334,-0.5344,-0.5344,-0.5334,-0.5315,-0.5287,-0.592,-0.6868,-0.7496,-0.846,-0.9432,-1.0082,-1.0406,-1.0406,-1.0406,-1.0731,-1.1055,-1.1704,-1.2678,-1.365,-1.4317,-1.5306,-1.5683,-1.5765,-1.5777,-1.5753,-1.5712,-1.5687,-1.5667,-1.5638,-1.5938,-1.6901,-1.7539,-1.8508,-1.9154,-2.0117,-2.0762,-2.0762,-2.0762,-2.0762,-2.0762,-2.0762,-2.0762,-2.0762,-2.0762,-2.0762,-2.0762,-2.0762,-2.0762,-2.0762,-2.0762,-2.0762,-2.1078,-2.1401,-2.1722,-2.2044,-2.2044,-2.2694,-2.3331,-2.3973,-2.4949,-2.5591,-2.5584,-2.5577,-2.5898,-2.5898,-2.5898,-2.5898,-2.5898,-2.6218,-2.6859,-2.7186,-2.7826,-2.9103,-3.006,0.4852,0.486,0.486,0.4878,0.491,0.4961,0.5,0.5026,0.5028,0.5028,0.5028,0.4085,0.2199,-0.0,-0.0,-0.0,-0.0,-0.0,-0.0,-0.0,-0.0,-0.0,-0.0,-0.0,-0.0,-0.0,-0.0,-0.0,-0.0,-0.0,-0.0,-0.1303,-0.2293,-0.3282,-0.3945,-0.3949,-0.4297,-0.464,-0.4978,-0.5,-0.5359,-0.5371,-0.5371,-0.5362,-0.534,-0.5311,-0.5611,-0.6889,-0.7516,-0.8139,-0.9432,-1.0406,-1.0406,-1.0406,-1.0406,-1.0406,-1.0731,-1.1055,-1.2029,-1.2998,-1.3668,-1.4683,-1.5382,-1.5683,-1.5691,-1.5696,-1.5687,-1.5687,-1.5675,-1.5647,-1.5938,-1.6573,-1.7534,-1.8185,-1.9149,-2.0117,-2.0762,-2.0762,-2.0762,-2.0762,-2.0762,-2.0762,-2.0762,-2.0762,-2.0762,-2.0762,-2.0762,-2.0762,-2.0762,-2.0762,-2.0762,-2.0762,-2.0762,-2.1078,-2.1078,-2.1401,-2.1406,-2.1722,-2.2688,-2.3331,-2.3979,-2.4622,-2.5263,-2.5584,-2.5898,-2.5898,-2.5898,-2.5898,-2.5898,-2.5898,-2.6218,-2.6866,-2.7506,-2.8465,-2.9423,0.4846,0.4846,0.4846,0.4871,0.4915,0.4962,0.4688,0.4082,0.4714,0.5028,0.5028,0.5028,-0.0,-0.0,-0.0,-0.0,-0.0,-0.0,-0.0,-0.0,-0.0,-0.0,-0.0,-0.0,-0.0,-0.0,-0.0,-0.0,-0.0,-0.0,-0.0,-0.0326,-0.0,-0.0,-0.2642,-0.2655,-0.3337,-0.3676,-0.4014,-0.4358,-0.4368,-0.5051,-0.5388,-0.5381,-0.5358,-0.5329,-0.5299,-0.6911,-0.7527,-0.7818,-0.9432,-1.0079,-1.0082,-1.0406,-1.0406,-1.0406,-1.0406,-1.1055,-1.1701,-1.2678,-1.3354,-1.4358,-1.5032,-1.5655,-1.5671,-1.5691,-1.5691,-1.5687,-1.5667,-1.5642,-1.6266,-1.6888,-1.7534,-1.818,-1.9149,-2.0439,-2.0439,-2.0762,-2.0762,-2.0762,-2.0762,-2.0762,-2.0762,-2.0762,-2.0762,-2.0762,-2.0762,-2.0762,-2.0762,-2.0762,-2.0762,-2.0762,-2.0762,-2.0762,-2.0762,-2.0762,-2.1084,-2.1401,-2.1722,-2.2688,-2.3009,-2.3973,-2.4936,-2.5577,-2.5898,-2.5898,-2.5898,-2.5898,-2.5898,-2.5898,-2.5891,-2.6211,-2.6852,-2.7506,-2.8465,0.4846,0.4848,0.4849,0.4887,0.494,0.4661,0.4062,0.2827,0.4085,0.4714,0.5028,0.4714,0.2514,-0.0,-0.0,-0.0,-0.0,-0.0,-0.0,-0.0,-0.0,-0.0,-0.0,-0.0,-0.0,-0.0,-0.0,-0.0,-0.0,-0.0,-0.0,-0.0,-0.0,-0.0,-0.0,-0.0,-0.2014,-0.235,-0.2347,-0.2347,-0.269,-0.3703,-0.5051,-0.5384,-0.5362,-0.5333,-0.5631,-0.6256,-0.6875,-0.7826,-0.8782,-0.943,-1.0082,-1.0406,-1.0406,-1.0406,-1.0406,-1.0731,-1.1377,-1.2026,-1.3002,-1.3982,-1.495,-1.5282,-1.5638,-1.5675,-1.5679,-1.5667,-1.5647,-1.563,-1.5934,-1.6892,-1.7862,-1.8508,-1.9477,-2.0439,-2.0762,-2.0762,-2.0762,-2.0762,-2.0762,-2.0762,-2.0762,-2.0762,-2.0762,-2.0762,-2.0762,-2.0762,-2.0762,-2.0762,-2.0762,-2.0762,-2.0762,-2.0762,-2.0762,-2.0762,-2.0762,-2.1078,-2.1401,-2.2044,-2.2366,-2.3652,-2.4943,-2.5257,-2.5577,-2.5898,-2.5898,-2.5898,-2.5898,-2.5891,-2.5884,-2.5878,-2.6198,-2.6809,-2.7753,0.4846,0.4849,0.4872,0.4917,0.4969,0.4045,0.3437,0.2513,0.2828,0.3771,0.4399,0.2514,-0.0,-0.0,-0.0,-0.0,-0.0,-0.0,-0.0,-0.0,-0.0,-0.0,-0.0,-0.0,-0.0,-0.0,-0.0,-0.0,-0.0,-0.0,-0.0,-0.0,-0.0,-0.0,-0.0,-0.0,-0.0,-0.0,-0.0,-0.0,-0.0,-0.0,-0.202,-0.4039,-0.5373,-0.5344,-0.5646,-0.595,-0.6891,-0.7826,-0.8462,-0.9432,-1.0406,-1.0406,-1.0406,-1.0406,-1.0406,-1.0731,-1.1055,-1.1701,-1.2674,-1.3326,-1.4298,-1.495,-1.529,-1.5647,-1.5655,-1.5642,-1.563,-1.5618,-1.593,-1.6896,-1.8185,-1.8831,-1.98,-2.0439,-2.0762,-2.0762,-2.0762,-2.0762,-2.0762,-2.0762,-2.0762,-2.0762,-2.0762,-2.0762,-2.0762,-2.0762,-2.0762,-2.0762,-2.0762,-2.0762,-2.0762,-2.0762,-2.0762,-2.0762,-2.0762,-2.0762,-2.1078,-2.1401,-2.2044,-2.3331,-2.4615,-2.4936,-2.5257,-2.5577,-2.5898,-2.5898,-2.5891,-2.5864,-2.5796,-2.5749,-2.5701,-2.5992,-2.6958,0.4855,0.4872,0.4915,0.4951,0.4981,0.4372,0.376,0.3769,0.3456,0.4085,0.4399,-0.0,-0.0,-0.0,-0.0,-0.0,-0.0,-0.0,-0.0,-0.0,-0.0,-0.0,-0.0,-0.0,-0.0,-0.0,-0.0,-0.0,-0.0,-0.0,-0.0,-0.0,-0.0,-0.0,-0.0,-0.0,-0.0,-0.0,-0.0,-0.0,-0.0,-0.0,-0.0,-0.2694,-0.4369,-0.5015,-0.5319,-0.5955,-0.6574,-0.7834,-0.911,-0.9757,-1.0406,-1.0406,-1.0406,-1.0406,-1.0406,-1.0406,-1.0731,-1.1053,-1.2026,-1.3002,-1.365,-1.4622,-1.5274,-1.5626,-1.5626,-1.5614,-1.5614,-1.5602,-1.5925,-1.6892,-1.7862,-1.8508,-1.98,-2.0762,-2.0762,-2.0762,-2.0762,-2.0762,-2.0762,-2.0762,-2.0762,-2.0762,-2.0762,-2.0762,-2.0762,-2.0762,-2.0762,-2.0762,-2.0762,-2.0762,-2.0762,-2.0762,-2.0762,-2.0762,-2.0762,-2.0762,-2.0762,-2.1401,-2.2044,-2.3009,-2.3967,-2.4615,-2.5257,-2.5577,-2.5898,-2.5871,-2.5817,-2.5776,-2.5681,-2.5586,-2.5545,-2.5505,-2.6759,0.4867,0.4904,0.4954,0.4983,0.4992,0.5017,0.5028,0.5028,0.5028,0.5028,0.4714,0.2199,0.0628,-0.0,-0.0,-0.0,-0.0,-0.0,-0.0,-0.0,-0.0,-0.0,-0.0,-0.0,-0.0,-0.0,-0.0,-0.0,-0.0,-0.0,-0.0,-0.0,-0.0,-0.0,-0.0,-0.0,-0.0,-0.0,-0.0,-0.0,-0.0,-0.0,-0.0,-0.0,-0.3357,-0.5013,-0.531,-0.5613,-0.624,-0.7518,-0.9107,-0.9757,-1.0406,-1.0406,-1.0406,-1.0406,-1.0406,-1.0406,-1.0406,-1.1053,-1.2026,-1.2998,-1.365,-1.4622,-1.5274,-1.5598,-1.5598,-1.5598,-1.5598,-1.5598,-1.6245,-1.6892,-1.7862,-1.8508,-1.9794,-2.0762,-2.0762,-2.0762,-2.0762,-2.0762,-2.0762,-2.0762,-2.0762,-2.0762,-2.0762,-2.0762,-2.0762,-2.0762,-2.0762,-2.0762,-2.0762,-2.0762,-2.0762,-2.0762,-2.0762,-2.0762,-2.0762,-2.0762,-2.0762,-2.1401,-2.1722,-2.3009,-2.3652,-2.4294,-2.4936,-2.5577,-2.585,-2.581,-2.5755,-2.5688,-2.5538,-2.5437,-2.5403,-2.5676,-2.624,0.4879,0.493,0.4943,0.4975,0.5017,0.5026,0.5028,0.5028,0.5028,0.5028,0.4715,0.4399,0.3456,0.1885,-0.0,0.0629,0.2207,0.3159,0.2858,-0.0,0.1285,-0.0,-0.0,-0.0,-0.0,0.2604,0.3255,-0.0,-0.0,-0.0,-0.0,-0.0,-0.0,-0.0,-0.0,-0.0,-0.0,-0.0,-0.0,-0.0,-0.0,-0.0,-0.0,-0.0,-0.3321,-0.463,-0.527,-0.5261,-0.5892,-0.6847,-0.8455,-0.9432,-1.0082,-1.0406,-1.0406,-1.0406,-1.0406,-1.0406,-1.0731,-1.0728,-1.1701,-1.3002,-1.365,-1.4298,-1.495,-1.5598,-1.5598,-1.5598,-1.5598,-1.5598,-1.6245,-1.7215,-1.8185,-1.8826,-1.9794,-2.0439,-2.0762,-2.0762,-2.0762,-2.0762,-2.0762,-2.0762,-2.0762,-2.0762,-2.0762,-2.0762,-2.0762,-2.0762,-2.0762,-2.0762,-2.0756,-2.0756,-2.0756,-2.0762,-2.0762,-2.0762,-2.0762,-2.0762,-2.0762,-2.1084,-2.1722,-2.2688,-2.3331,-2.3973,-2.4936,-2.5898,-2.5844,-2.5742,-2.5674,-2.5593,-2.5396,-2.5281,-2.5254,-2.585,-2.6417]},{"header":{"parameterUnit":"m.s-1","parameterCategory":1,"la1":31.0,"la2":29.5877,"lo1":-88.7671,"lo2":-86.6584,"dy":0.0162,"dx":0.0185,"nx":115,"ny":88,"refTime":"2025-03-04T06:00:00:Z","depth":0,"parameterNumber":3,"parameterNumberName":"V-component_of_WINDS"},"data":[0.0,0.0,0.0,0.0,0.0,0.0,0.0,0.0,0.0,0.0,0.0,0.0,0.0,0.0,0.0,0.0,0.0,0.0,0.0,0.0,0.0,0.0,0.0,0.0,0.0,0.0,0.0,0.0,0.0,0.0,0.0,0.0,0.0,0.0,0.0,0.0,0.0,0.0,0.0,0.0,0.0,0.0,0.0,0.0,0.0,0.0,0.0,0.0,0.0,0.0,0.0,0.0,0.0,0.0,0.0,0.0,0.0,0.0,0.0,0.0,0.0,0.0,0.0,0.0,0.0,0.0,0.0,0.0,0.0,0.0,0.0,0.0,0.0,0.0,0.0,0.0,0.0,0.0,0.0,0.0,0.0,0.0,0.0,0.0,0.0,0.0,0.0,0.0,0.0,0.0,0.0,0.0,0.0,0.0,0.0,0.0,0.0,0.0,0.0,0.0,0.0,0.0,0.0,0.0,0.0,0.0,0.0,0.0,0.0,0.0,0.0,0.0,0.0,0.0,0.0,0.0,0.0,0.0,0.0,0.0,0.0,0.0,0.0,0.0,0.0,0.0,0.0,0.0,0.0,0.0,0.0,0.0,0.0,0.0,0.0,0.0,0.0,0.0,0.0,0.0,0.0,0.0,0.0,0.0,0.0,0.0,0.0,0.0,0.0,0.0,0.0,0.0,0.0,0.0,0.0,0.0,0.0,0.0,0.0,0.0,0.0,0.0,0.0,0.0,0.0,0.0,0.0,0.0,0.0,0.0,0.0,0.0,0.0,0.0,0.0,0.0,0.0,0.0,0.0,0.0,0.0,0.0,0.0,0.0,0.0,0.0,0.0,0.0,0.0,0.0,0.0,0.0,0.0,0.0,0.0,0.0,0.0,0.0,0.0,0.0,0.0,0.0,0.0,0.0,0.0,0.0,0.0,0.0,0.0,0.0,0.0,0.0,0.0,0.0,0.0,0.0,0.0,0.0,0.0,0.0,0.0,0.0,0.0,0.0,0.0,0.0,0.0,0.0,0.0,0.0,0.0,0.0,0.0,0.0,0.0,0.0,0.0,0.0,0.0,0.0,0.0,0.0,0.0,0.0,0.0,0.0,0.0,0.0,0.0,0.0,0.0,0.0,0.0,0.0,0.0,0.0,0.0,0.0,0.0,0.0,0.0,0.0,0.0,0.0,0.0,0.0,0.0,0.0,0.0,0.0,0.0,0.0,0.0,0.0,0.0,0.0,0.0,0.0,0.0,0.0,0.0,0.0,0.0,0.0,0.0,0.0,0.0,0.0,0.0,0.0,0.0,0.0,0.0,0.0,0.0,0.0,0.0,0.0,0.0,0.0,0.0,0.0,0.0,0.0,0.0,0.0,0.0,0.0,0.0,0.0,0.0,0.0,0.0,0.0,0.0,0.0,0.0,0.0,0.0,0.0,0.0,0.0,0.0,0.0,0.0,0.0,0.0,0.0,0.0,0.0,0.0,0.0,0.0,0.0,0.0,0.0,0.0,0.0,0.0,0.0,0.0,0.0,0.0,0.0,0.0,0.0,0.0,0.0,0.0,0.0,0.0,0.0,0.0,0.0,0.0,0.0,0.0,0.0,0.0,0.0,0.0,0.0,0.0,0.0,0.0,0.0,0.0,0.0,0.0,0.0,0.0,0.0,0.0,0.0,0.0,0.0,0.0,0.0,0.0,0.0,0.0,0.0,0.0,0.0,0.0,0.0,0.0,0.0,0.0,0.0,0.0,0.0,0.0,0.0,0.0,0.0,0.0,0.0,0.0,0.0,0.0,0.0,0.0,0.0,0.0,0.0,0.0,0.0,0.0,0.0,0.0,0.0,0.0,0.0,0.0,0.0,0.0,0.0,0.0,0.0,0.0,0.0,0.0,0.0,0.0,0.0,0.0,0.0,0.0,0.0,0.0,0.0,0.0,0.0,0.0,0.0,0.0,0.0,0.0,0.0,0.0,0.0,0.0,0.0,0.0,0.0,0.0,0.0,0.0,0.0,0.0,0.0,0.0,0.0,0.0,0.0,0.0,0.0,0.0,0.0,0.0,0.0,0.0,0.0,0.0,0.0,0.0,0.0,0.0,0.0,0.0,0.0,0.0,0.0,0.0,0.0,0.0,0.0,0.0,0.0,0.0,0.0,0.0,0.0,0.0,0.0,0.0,0.0,0.0,0.0,0.0,0.0,0.0,0.0,0.0,0.0,0.0,0.0,0.0,0.0,0.0,0.0,0.0,0.0,0.0,0.0,0.0,0.0,0.0,0.0,0.0,0.0,0.0,0.0,0.0,0.0,0.0,0.0,0.0,0.0,0.0,0.0,0.0,0.0,0.0,0.0,0.0,0.0,0.0,0.0,0.0,0.0,0.0,0.0,0.0,0.0,0.0,0.0,0.0,0.0,0.0,0.0,0.0,0.0,0.0,0.0,0.0,0.0,0.0,0.0,0.0,0.0,0.0,0.0,0.0,0.0,0.0,0.0,0.0,0.0,0.0,0.0,0.0,0.0,0.0,0.0,0.0,0.0,0.0,0.0,0.0,0.0,0.0,0.0,0.0,0.0,0.0,0.0,0.0,0.0,0.0,0.0,0.0,0.0,0.0,0.0,0.0,0.0,0.0,0.0,0.0,0.0,0.0,0.0,0.0,0.0,0.0,0.0,0.0,0.0,0.0,0.0,0.0,0.0,0.0,0.0,0.0,0.0,0.0,0.0,0.0,0.0,0.0,0.0,0.0,0.0,0.0,0.0,0.0,0.0,0.0,0.0,0.0,0.0,0.0,0.0,0.0,0.0,0.0,0.0,0.0,0.0,0.0,0.0,0.0,0.0,0.0,0.0,0.0,0.0,0.0,0.0,0.0,0.0,0.0,0.0,0.0,0.0,0.0,0.0,0.0,0.0,0.0,0.0,0.0,0.0,0.0,0.0,0.0,0.0,0.0,0.0,0.0,0.0,0.0,0.0,0.0,0.0,0.0,0.0,0.0,0.0,0.0,0.0,0.0,0.0,0.0,0.0,0.0,0.0,0.0,0.0,0.0,0.0,0.0,0.0,0.0,0.0,0.0,0.0,0.0,0.0,0.0,0.0,0.0,0.0,0.0,0.0,0.0,0.0,0.0,0.0,0.0,0.0,0.0,0.0,0.0,0.0,0.0,0.0,0.0,0.0,0.0,0.0,0.0,0.0,0.0,0.0,0.0,0.0,0.0,0.0,0.0,0.0,0.0,0.0,0.0,0.0,0.0,0.0,0.0,0.0,0.0,0.0,0.0,0.0,0.0,0.0,0.0,0.0,0.0,0.0,0.0,0.0,0.0,0.0,0.0,0.0,0.0,0.0,0.0,0.0,0.0,0.0,0.0,0.0,0.0,0.0,0.0,0.0,0.0,0.0,0.0,0.0,0.0,0.0,0.0,0.0,0.0,0.0,0.0,0.0,0.0,0.0,0.0,0.0,0.0,0.0,0.0,0.0,0.0,0.0,0.0,0.0,0.0,0.0,0.0,0.0,0.0,0.0,0.0,0.0,0.0,0.0,0.0,0.0,0.0,0.0,0.0,0.0,0.0,0.0,0.0,0.0,0.0,0.0,0.0,0.0,0.0,0.0,0.0,0.0,0.0,0.0,0.0,0.0,0.0,0.0,0.0,0.0,0.0,0.0,0.0,0.0,0.0,0.0,0.0,0.0,0.0,0.0,0.0,0.0,0.0,0.0,0.0,0.0,0.0,0.0,0.0,0.0,0.0,0.0,0.0,0.0,0.0,0.0,0.0,0.0,0.0,0.0,0.0,0.0,0.0,0.0,0.0,0.0,0.0,0.0,0.0,0.0,0.0,0.0,0.0,0.0,0.0,0.0,0.0,0.0,0.0,0.0,0.0,0.0,0.0,0.0,0.0,0.0,0.0,0.0,0.0,0.0,0.0,0.0,0.0,0.0,0.0,0.0,0.0,0.0,0.0,0.0,0.0,0.0,0.0,0.0,0.0,0.0,0.0,0.0,0.0,0.0,0.0,0.0,0.0,0.0,0.0,0.0,0.0,0.0,0.0,0.0,0.0,0.0,0.0,0.0,0.0,0.0,0.0,0.0,0.0,0.0,0.0,0.0,0.0,0.0,0.0,0.0,0.0,0.0,0.0,0.0,0.0,0.0,0.0,0.0,0.0,0.0,0.0,0.0,0.0,0.0,0.0,0.0,0.0,0.0,0.0,0.0,0.0,0.0,0.0,0.0,0.0,0.0,0.0,0.0,0.0,0.0,0.0,0.0,0.0,0.0,0.0,0.0,0.0,0.0,0.0,0.0,-8.0097,0.0,0.0,0.0,0.0,0.0,0.0,0.0,0.0,0.0,0.0,0.0,0.0,0.0,0.0,0.0,0.0,0.0,0.0,0.0,0.0,0.0,0.0,0.0,0.0,0.0,0.0,0.0,0.0,0.0,0.0,0.0,0.0,0.0,0.0,0.0,0.0,0.0,0.0,0.0,0.0,0.0,0.0,0.0,0.0,0.0,0.0,0.0,0.0,0.0,0.0,0.0,0.0,0.0,0.0,0.0,0.0,0.0,0.0,0.0,0.0,0.0,0.0,0.0,0.0,0.0,0.0,0.0,0.0,0.0,0.0,0.0,0.0,0.0,0.0,0.0,0.0,0.0,0.0,0.0,0.0,0.0,0.0,0.0,0.0,0.0,0.0,0.0,0.0,0.0,0.0,0.0,0.0,0.0,0.0,0.0,0.0,0.0,0.0,0.0,0.0,0.0,0.0,0.0,0.0,0.0,0.0,0.0,0.0,0.0,0.0,-8.1873,-8.1755,-8.1713,-8.122,-8.0275,0.0,0.0,0.0,0.0,0.0,0.0,0.0,0.0,0.0,0.0,0.0,0.0,0.0,0.0,0.0,0.0,0.0,0.0,0.0,0.0,0.0,0.0,0.0,0.0,0.0,0.0,0.0,0.0,0.0,0.0,0.0,0.0,0.0,0.0,0.0,0.0,0.0,0.0,0.0,0.0,0.0,0.0,0.0,0.0,0.0,0.0,0.0,0.0,0.0,0.0,0.0,0.0,0.0,0.0,0.0,0.0,0.0,0.0,0.0,0.0,0.0,0.0,0.0,0.0,0.0,0.0,0.0,0.0,0.0,0.0,0.0,0.0,0.0,0.0,0.0,0.0,0.0,0.0,0.0,0.0,0.0,0.0,0.0,0.0,0.0,0.0,0.0,0.0,0.0,0.0,0.0,0.0,0.0,0.0,0.0,0.0,0.0,0.0,0.0,0.0,0.0,0.0,0.0,0.0,0.0,0.0,0.0,0.0,0.0,0.0,0.0,0.0,-8.2044,-8.1336,-8.0028,0.0,0.0,0.0,0.0,0.0,0.0,0.0,0.0,0.0,0.0,0.0,0.0,0.0,0.0,0.0,0.0,0.0,0.0,0.0,0.0,0.0,0.0,0.0,0.0,0.0,0.0,0.0,0.0,0.0,0.0,0.0,0.0,0.0,0.0,0.0,0.0,0.0,0.0,0.0,0.0,0.0,0.0,0.0,0.0,0.0,0.0,0.0,0.0,0.0,0.0,0.0,0.0,0.0,0.0,0.0,0.0,0.0,0.0,0.0,0.0,0.0,0.0,0.0,0.0,0.0,0.0,0.0,0.0,0.0,0.0,0.0,0.0,0.0,0.0,0.0,0.0,0.0,0.0,0.0,0.0,0.0,0.0,0.0,0.0,0.0,0.0,0.0,0.0,0.0,0.0,0.0,0.0,0.0,0.0,0.0,0.0,0.0,0.0,0.0,0.0,0.0,0.0,0.0,0.0,0.0,0.0,0.0,0.0,0.0,0.0,-8.3,-8.2979,-8.2915,0.0,-7.9323,0.0,0.0,0.0,0.0,0.0,0.0,0.0,0.0,0.0,0.0,0.0,0.0,0.0,0.0,0.0,0.0,0.0,0.0,0.0,0.0,0.0,0.0,0.0,0.0,0.0,0.0,0.0,0.0,0.0,0.0,0.0,0.0,0.0,0.0,0.0,0.0,0.0,0.0,0.0,0.0,0.0,0.0,0.0,0.0,0.0,0.0,0.0,0.0,0.0,0.0,0.0,0.0,0.0,0.0,0.0,0.0,0.0,0.0,0.0,0.0,0.0,0.0,0.0,0.0,0.0,0.0,0.0,0.0,0.0,0.0,0.0,0.0,0.0,0.0,0.0,0.0,0.0,0.0,0.0,0.0,0.0,0.0,0.0,0.0,0.0,0.0,0.0,0.0,0.0,0.0,0.0,0.0,0.0,0.0,0.0,0.0,0.0,0.0,0.0,0.0,0.0,0.0,0.0,0.0,0.0,0.0,0.0,0.0,0.0,0.0,-8.3097,-8.3097,-8.3053,-8.1763,0.0,0.0,0.0,0.0,0.0,0.0,0.0,0.0,0.0,0.0,0.0,0.0,0.0,0.0,0.0,0.0,0.0,0.0,0.0,0.0,0.0,0.0,0.0,0.0,0.0,0.0,0.0,0.0,0.0,0.0,0.0,0.0,0.0,0.0,0.0,0.0,0.0,0.0,0.0,0.0,0.0,0.0,0.0,0.0,0.0,0.0,0.0,0.0,0.0,0.0,0.0,0.0,0.0,0.0,0.0,0.0,0.0,0.0,0.0,0.0,0.0,0.0,0.0,0.0,0.0,0.0,0.0,0.0,0.0,0.0,0.0,0.0,0.0,0.0,0.0,0.0,0.0,0.0,0.0,0.0,0.0,0.0,0.0,0.0,0.0,0.0,0.0,0.0,0.0,0.0,0.0,0.0,0.0,0.0,0.0,0.0,0.0,0.0,0.0,0.0,0.0,0.0,0.0,0.0,0.0,0.0,0.0,0.0,0.0,0.0,-8.2903,-8.3427,-8.3407,-8.313,-8.1763,-7.9067,0.0,0.0,0.0,0.0,0.0,0.0,0.0,0.0,0.0,0.0,0.0,0.0,0.0,0.0,0.0,0.0,0.0,0.0,0.0,0.0,0.0,0.0,0.0,0.0,0.0,0.0,0.0,0.0,0.0,0.0,0.0,0.0,0.0,0.0,0.0,0.0,0.0,0.0,0.0,0.0,0.0,0.0,0.0,0.0,0.0,0.0,0.0,0.0,0.0,0.0,0.0,0.0,0.0,0.0,0.0,0.0,0.0,0.0,0.0,0.0,0.0,0.0,0.0,0.0,0.0,0.0,0.0,0.0,0.0,0.0,0.0,0.0,0.0,0.0,0.0,0.0,0.0,0.0,0.0,0.0,0.0,0.0,0.0,0.0,0.0,0.0,0.0,0.0,0.0,0.0,0.0,0.0,0.0,0.0,0.0,0.0,0.0,0.0,0.0,0.0,0.0,0.0,0.0,0.0,0.0,0.0,0.0,0.0,-8.1931,-8.3485,-8.4262,-8.4117,-8.338,-8.1724,0.0,0.0,0.0,0.0,0.0,0.0,0.0,0.0,0.0,0.0,0.0,0.0,0.0,0.0,0.0,0.0,0.0,0.0,0.0,0.0,0.0,0.0,0.0,0.0,0.0,0.0,0.0,0.0,0.0,0.0,0.0,0.0,0.0,0.0,0.0,0.0,0.0,0.0,0.0,0.0,0.0,0.0,0.0,0.0,0.0,0.0,0.0,0.0,0.0,0.0,0.0,0.0,0.0,0.0,0.0,0.0,0.0,0.0,0.0,0.0,0.0,0.0,0.0,0.0,0.0,0.0,0.0,0.0,0.0,0.0,0.0,0.0,0.0,0.0,0.0,0.0,0.0,0.0,0.0,0.0,0.0,0.0,0.0,0.0,0.0,0.0,0.0,0.0,0.0,0.0,0.0,0.0,0.0,0.0,0.0,0.0,0.0,0.0,0.0,0.0,0.0,0.0,0.0,0.0,0.0,0.0,0.0,0.0,0.0,-8.1892,-8.298,-8.3796,-8.4199,-8.2915,-8.1204,0.0,0.0,0.0,0.0,0.0,0.0,0.0,0.0,0.0,0.0,0.0,0.0,0.0,0.0,0.0,0.0,0.0,0.0,0.0,0.0,0.0,0.0,0.0,0.0,0.0,0.0,0.0,0.0,0.0,0.0,0.0,0.0,0.0,0.0,0.0,0.0,0.0,0.0,0.0,0.0,0.0,0.0,0.0,0.0,0.0,0.0,0.0,0.0,0.0,0.0,0.0,0.0,0.0,0.0,0.0,0.0,0.0,0.0,0.0,0.0,0.0,0.0,0.0,0.0,0.0,0.0,0.0,0.0,0.0,0.0,0.0,0.0,0.0,0.0,0.0,0.0,0.0,0.0,0.0,0.0,0.0,0.0,0.0,0.0,0.0,0.0,0.0,0.0,0.0,0.0,0.0,0.0,0.0,0.0,0.0,0.0,0.0,0.0,0.0,0.0,0.0,0.0,0.0,0.0,0.0,0.0,0.0,0.0,0.0,-8.2669,0.0,-8.4087,-8.4221,-8.2626,-8.0894,0.0,0.0,0.0,0.0,0.0,0.0,0.0,0.0,0.0,0.0,0.0,0.0,0.0,0.0,0.0,0.0,0.0,0.0,0.0,0.0,0.0,0.0,0.0,0.0,0.0,0.0,0.0,0.0,0.0,0.0,0.0,0.0,0.0,0.0,0.0,0.0,0.0,0.0,0.0,0.0,0.0,0.0,0.0,0.0,0.0,0.0,0.0,0.0,0.0,0.0,0.0,0.0,0.0,0.0,0.0,0.0,0.0,0.0,0.0,0.0,0.0,0.0,0.0,0.0,0.0,0.0,0.0,0.0,0.0,0.0,0.0,0.0,0.0,0.0,0.0,0.0,0.0,0.0,0.0,0.0,0.0,0.0,0.0,0.0,0.0,0.0,0.0,0.0,0.0,0.0,0.0,0.0,0.0,0.0,0.0,0.0,0.0,0.0,0.0,0.0,0.0,0.0,0.0,0.0,0.0,0.0,0.0,0.0,-8.1981,-8.4301,-8.5195,-8.5214,-8.4337,-8.2704,-8.0894,0.0,0.0,0.0,0.0,0.0,0.0,0.0,0.0,0.0,0.0,0.0,0.0,0.0,0.0,0.0,0.0,0.0,0.0,0.0,0.0,0.0,0.0,0.0,0.0,0.0,0.0,0.0,0.0,0.0,0.0,0.0,0.0,0.0,0.0,0.0,0.0,0.0,0.0,0.0,0.0,0.0,0.0,0.0,0.0,0.0,0.0,0.0,0.0,0.0,0.0,0.0,0.0,0.0,0.0,0.0,0.0,0.0,0.0,0.0,0.0,0.0,0.0,0.0,0.0,0.0,0.0,0.0,0.0,0.0,0.0,0.0,0.0,0.0,0.0,0.0,0.0,0.0,0.0,0.0,0.0,0.0,0.0,0.0,0.0,0.0,0.0,0.0,0.0,0.0,0.0,0.0,0.0,0.0,0.0,0.0,0.0,0.0,0.0,0.0,0.0,0.0,0.0,0.0,0.0,0.0,0.0,0.0,0.0,0.0,-8.5329,-8.564,-8.5894,-8.6068,-8.385,-8.1769,0.0,0.0,0.0,0.0,0.0,0.0,0.0,0.0,0.0,0.0,0.0,0.0,0.0,0.0,0.0,0.0,0.0,0.0,0.0,0.0,0.0,0.0,0.0,0.0,0.0,0.0,0.0,0.0,0.0,0.0,0.0,0.0,0.0,0.0,0.0,0.0,0.0,0.0,0.0,0.0,0.0,0.0,0.0,0.0,0.0,0.0,0.0,0.0,0.0,0.0,0.0,0.0,0.0,0.0,0.0,0.0,0.0,0.0,0.0,0.0,0.0,0.0,0.0,0.0,0.0,0.0,0.0,0.0,0.0,0.0,0.0,0.0,0.0,0.0,0.0,0.0,0.0,0.0,0.0,0.0,0.0,0.0,0.0,0.0,0.0,0.0,0.0,0.0,0.0,0.0,0.0,0.0,0.0,0.0,0.0,0.0,0.0,0.0,0.0,0.0,0.0,0.0,0.0,0.0,0.0,0.0,0.0,0.0,0.0,-8.859,-8.836,-8.8245,-8.8459,-8.6182,-8.3829,-8.142,0.0,0.0,0.0,0.0,0.0,0.0,0.0,0.0,0.0,0.0,0.0,0.0,0.0,0.0,0.0,0.0,0.0,0.0,0.0,0.0,0.0,0.0,0.0,0.0,0.0,0.0,0.0,0.0,0.0,0.0,0.0,0.0,0.0,0.0,0.0,0.0,0.0,0.0,0.0,0.0,0.0,0.0,0.0,0.0,0.0,0.0,0.0,0.0,0.0,0.0,0.0,0.0,0.0,0.0,0.0,0.0,0.0,0.0,0.0,0.0,0.0,0.0,0.0,0.0,0.0,0.0,0.0,0.0,0.0,0.0,0.0,0.0,0.0,0.0,0.0,0.0,0.0,0.0,0.0,0.0,0.0,0.0,0.0,0.0,0.0,0.0,0.0,0.0,0.0,0.0,0.0,0.0,0.0,0.0,0.0,0.0,0.0,0.0,0.0,0.0,0.0,0.0,0.0,0.0,0.0,0.0,0.0,0.0,-9.3889,-9.318,-9.2307,-9.1296,-8.9507,-8.6821,0.0,0.0,0.0,0.0,0.0,0.0,0.0,0.0,0.0,0.0,0.0,0.0,0.0,0.0,0.0,0.0,0.0,0.0,0.0,0.0,0.0,0.0,0.0,0.0,0.0,0.0,0.0,0.0,0.0,0.0,0.0,0.0,0.0,0.0,0.0,0.0,0.0,0.0,0.0,0.0,0.0,0.0,0.0,0.0,0.0,0.0,0.0,0.0,0.0,0.0,0.0,0.0,0.0,0.0,0.0,0.0,0.0,0.0,0.0,0.0,0.0,0.0,0.0,0.0,0.0,0.0,0.0,0.0,0.0,0.0,0.0,0.0,0.0,0.0,0.0,0.0,0.0,0.0,0.0,0.0,0.0,0.0,0.0,0.0,0.0,0.0,0.0,0.0,0.0,0.0,0.0,0.0,0.0,0.0,0.0,0.0,0.0,0.0,0.0,0.0,0.0,0.0,0.0,0.0,0.0,0.0,0.0,0.0,0.0,-9.8143,-9.938,-9.8491,-9.569,-9.3317,-9.0086,0.0,0.0,0.0,0.0,0.0,0.0,0.0,0.0,0.0,0.0,0.0,0.0,0.0,0.0,0.0,0.0,0.0,0.0,0.0,0.0,0.0,0.0,0.0,0.0,0.0,0.0,0.0,0.0,0.0,0.0,0.0,0.0,0.0,0.0,0.0,0.0,0.0,0.0,0.0,0.0,0.0,0.0,0.0,0.0,0.0,0.0,0.0,0.0,0.0,0.0,0.0,0.0,0.0,0.0,0.0,0.0,0.0,0.0,0.0,0.0,0.0,0.0,0.0,0.0,0.0,0.0,0.0,0.0,0.0,0.0,0.0,0.0,0.0,0.0,0.0,0.0,0.0,0.0,0.0,0.0,0.0,0.0,0.0,0.0,0.0,0.0,0.0,0.0,0.0,0.0,0.0,0.0,0.0,0.0,0.0,0.0,0.0,0.0,0.0,0.0,0.0,0.0,0.0,0.0,0.0,0.0,0.0,0.0,-9.5626,-10.1588,-10.3754,-10.3957,-10.2225,-9.8256,-9.3897,0.0,0.0,0.0,0.0,0.0,0.0,0.0,0.0,0.0,0.0,0.0,0.0,0.0,0.0,0.0,0.0,0.0,0.0,0.0,0.0,0.0,0.0,0.0,0.0,0.0,0.0,0.0,0.0,0.0,0.0,0.0,0.0,0.0,0.0,0.0,0.0,0.0,0.0,0.0,0.0,0.0,0.0,0.0,0.0,0.0,0.0,0.0,0.0,0.0,0.0,0.0,0.0,0.0,0.0,0.0,0.0,0.0,0.0,0.0,0.0,0.0,0.0,0.0,0.0,0.0,0.0,0.0,0.0,0.0,0.0,0.0,0.0,0.0,0.0,0.0,0.0,0.0,0.0,0.0,0.0,0.0,0.0,0.0,0.0,0.0,0.0,0.0,0.0,0.0,0.0,0.0,0.0,0.0,0.0,0.0,0.0,0.0,0.0,0.0,0.0,0.0,0.0,0.0,0.0,0.0,0.0,0.0,0.0,-9.8236,-10.4159,-10.6848,-10.8529,-10.9096,-10.347,-9.7843,0.0,0.0,0.0,0.0,0.0,0.0,0.0,0.0,0.0,0.0,0.0,0.0,0.0,0.0,0.0,0.0,0.0,0.0,0.0,0.0,0.0,0.0,0.0,0.0,0.0,0.0,0.0,0.0,0.0,0.0,0.0,0.0,0.0,0.0,0.0,0.0,0.0,0.0,0.0,0.0,0.0,0.0,0.0,0.0,0.0,0.0,0.0,0.0,0.0,0.0,0.0,0.0,0.0,0.0,0.0,0.0,0.0,0.0,0.0,0.0,0.0,0.0,0.0,0.0,0.0,0.0,0.0,0.0,0.0,0.0,0.0,0.0,0.0,0.0,0.0,0.0,0.0,0.0,0.0,0.0,0.0,0.0,0.0,0.0,0.0,0.0,0.0,0.0,0.0,0.0,0.0,0.0,0.0,0.0,0.0,0.0,0.0,0.0,0.0,0.0,0.0,0.0,0.0,0.0,0.0,0.0,0.0,0.0,-10.0886,-10.6809,-10.9459,-11.1178,-11.1939,-10.6138,-10.0784,0.0,0.0,0.0,0.0,0.0,0.0,0.0,0.0,0.0,0.0,0.0,0.0,0.0,0.0,0.0,0.0,0.0,0.0,0.0,0.0,0.0,0.0,0.0,0.0,0.0,0.0,0.0,0.0,0.0,0.0,0.0,0.0,0.0,0.0,0.0,0.0,0.0,0.0,0.0,0.0,0.0,0.0,0.0,0.0,0.0,0.0,0.0,0.0,-8.9267,0.0,0.0,0.0,0.0,0.0,0.0,0.0,0.0,0.0,0.0,0.0,0.0,0.0,0.0,0.0,0.0,0.0,0.0,0.0,0.0,0.0,0.0,0.0,0.0,0.0,0.0,0.0,0.0,0.0,0.0,0.0,0.0,0.0,0.0,0.0,0.0,0.0,0.0,0.0,0.0,0.0,0.0,0.0,0.0,0.0,0.0,0.0,0.0,0.0,0.0,0.0,0.0,0.0,0.0,0.0,0.0,0.0,0.0,0.0,-10.3302,-10.8836,-11.1485,-11.3008,-11.3224,-10.8707,-10.3721,0.0,0.0,0.0,0.0,0.0,0.0,0.0,0.0,0.0,0.0,0.0,0.0,0.0,0.0,0.0,0.0,0.0,0.0,0.0,0.0,0.0,0.0,0.0,0.0,0.0,0.0,0.0,0.0,0.0,0.0,0.0,0.0,0.0,0.0,0.0,0.0,0.0,0.0,0.0,0.0,0.0,0.0,0.0,0.0,0.0,0.0,0.0,0.0,0.0,0.0,0.0,0.0,0.0,0.0,0.0,0.0,0.0,0.0,0.0,0.0,0.0,0.0,0.0,0.0,0.0,0.0,0.0,0.0,0.0,0.0,0.0,0.0,0.0,0.0,0.0,0.0,0.0,0.0,0.0,0.0,0.0,0.0,0.0,0.0,0.0,0.0,0.0,0.0,0.0,0.0,0.0,0.0,0.0,0.0,0.0,0.0,0.0,0.0,0.0,0.0,0.0,0.0,0.0,0.0,0.0,0.0,0.0,-9.9995,-10.5484,-11.0511,-11.3239,-11.4528,-11.4275,-11.0946,-10.6232,-10.019,0.0,0.0,0.0,0.0,0.0,0.0,0.0,0.0,0.0,0.0,0.0,0.0,0.0,0.0,0.0,0.0,0.0,0.0,0.0,0.0,0.0,0.0,0.0,0.0,0.0,0.0,0.0,0.0,0.0,0.0,0.0,0.0,0.0,0.0,0.0,0.0,0.0,0.0,-9.071,-9.3755,0.0,0.0,0.0,0.0,0.0,0.0,0.0,0.0,-9.2324,0.0,0.0,0.0,0.0,0.0,0.0,0.0,0.0,0.0,0.0,0.0,0.0,0.0,0.0,0.0,0.0,0.0,0.0,0.0,0.0,0.0,0.0,0.0,0.0,0.0,0.0,0.0,0.0,0.0,0.0,0.0,0.0,0.0,0.0,0.0,0.0,0.0,0.0,0.0,0.0,0.0,0.0,0.0,0.0,0.0,0.0,0.0,0.0,0.0,0.0,0.0,0.0,0.0,0.0,0.0,0.0,-9.5834,-10.1724,-10.727,-11.2343,-11.5031,-11.6026,-11.519,-11.1861,-10.7148,-10.1151,0.0,0.0,0.0,0.0,0.0,0.0,0.0,0.0,0.0,0.0,0.0,0.0,0.0,0.0,0.0,0.0,0.0,0.0,0.0,0.0,0.0,0.0,0.0,0.0,0.0,0.0,0.0,0.0,0.0,0.0,0.0,0.0,0.0,0.0,0.0,0.0,0.0,0.0,0.0,-9.5779,-9.7341,0.0,0.0,0.0,0.0,0.0,0.0,0.0,0.0,-9.3387,0.0,0.0,0.0,0.0,0.0,0.0,0.0,0.0,0.0,0.0,0.0,0.0,0.0,0.0,0.0,0.0,0.0,0.0,0.0,0.0,0.0,0.0,0.0,0.0,0.0,0.0,0.0,0.0,0.0,0.0,0.0,0.0,0.0,0.0,0.0,0.0,0.0,0.0,0.0,0.0,0.0,0.0,0.0,0.0,0.0,0.0,0.0,0.0,0.0,0.0,0.0,0.0,0.0,0.0,0.0,-9.6965,-10.3726,-10.9273,-11.3473,-11.6083,-11.6824,-11.5481,-11.1627,-10.6914,0.0,0.0,0.0,0.0,0.0,0.0,0.0,0.0,0.0,0.0,0.0,0.0,0.0,0.0,0.0,0.0,0.0,0.0,0.0,0.0,0.0,0.0,0.0,0.0,0.0,0.0,0.0,0.0,0.0,0.0,0.0,0.0,0.0,0.0,0.0,0.0,0.0,0.0,0.0,0.0,-9.7292,-9.9081,-9.9046,0.0,0.0,0.0,0.0,0.0,0.0,-9.6681,-9.5751,0.0,0.0,0.0,0.0,0.0,0.0,0.0,0.0,0.0,0.0,0.0,0.0,0.0,0.0,0.0,0.0,0.0,0.0,0.0,0.0,0.0,0.0,0.0,0.0,0.0,0.0,0.0,0.0,0.0,0.0,0.0,0.0,0.0,0.0,0.0,0.0,0.0,0.0,0.0,0.0,0.0,0.0,0.0,0.0,0.0,0.0,0.0,0.0,0.0,0.0,0.0,0.0,0.0,0.0,0.0,-9.833,-10.5442,-11.0832,-11.4369,-11.6785,-11.7214,-11.5481,-11.1394,-10.6564,0.0,0.0,0.0,0.0,0.0,0.0,0.0,0.0,0.0,0.0,0.0,0.0,0.0,0.0,0.0,0.0,0.0,0.0,0.0,0.0,0.0,0.0,0.0,0.0,0.0,0.0,0.0,0.0,0.0,0.0,0.0,0.0,0.0,0.0,0.0,0.0,0.0,0.0,0.0,0.0,0.0,-10.0627,-10.094,-10.1174,0.0,0.0,0.0,0.0,-10.0627,-9.9962,0.0,0.0,0.0,0.0,0.0,0.0,0.0,0.0,0.0,0.0,0.0,0.0,0.0,0.0,0.0,0.0,0.0,0.0,0.0,0.0,0.0,0.0,0.0,0.0,0.0,0.0,0.0,0.0,0.0,0.0,0.0,0.0,0.0,0.0,0.0,0.0,0.0,0.0,0.0,0.0,0.0,0.0,0.0,0.0,0.0,0.0,0.0,0.0,0.0,0.0,0.0,0.0,0.0,0.0,0.0,0.0,-10.0787,-10.6326,-11.1135,-11.5187,-11.7097,-11.7214,-11.552,-11.1978,-10.6875,0.0,0.0,0.0,0.0,0.0,0.0,0.0,0.0,0.0,0.0,0.0,0.0,0.0,0.0,0.0,0.0,0.0,0.0,0.0,0.0,0.0,0.0,0.0,0.0,0.0,0.0,0.0,0.0,0.0,0.0,0.0,0.0,0.0,0.0,0.0,0.0,0.0,0.0,0.0,0.0,0.0,-10.1903,-10.3367,-10.4674,-10.5162,0.0,0.0,-10.495,-10.5008,-10.4234,0.0,0.0,0.0,0.0,0.0,0.0,0.0,0.0,0.0,0.0,0.0,0.0,0.0,0.0,0.0,0.0,0.0,0.0,0.0,0.0,0.0,0.0,0.0,0.0,0.0,0.0,0.0,0.0,0.0,0.0,0.0,0.0,0.0,0.0,0.0,0.0,0.0,0.0,0.0,0.0,0.0,0.0,0.0,0.0,0.0,0.0,0.0,0.0,0.0,0.0,0.0,0.0,0.0,0.0,0.0,-9.3622,-10.1957,-10.7223,-11.2149,-11.6746,-11.811,-11.8149,-11.6884,-11.2523,-10.7187,0.0,0.0,0.0,0.0,0.0,0.0,0.0,0.0,0.0,0.0,0.0,0.0,0.0,0.0,0.0,0.0,0.0,0.0,0.0,0.0,0.0,0.0,0.0,0.0,0.0,0.0,0.0,0.0,0.0,0.0,0.0,0.0,0.0,0.0,0.0,0.0,0.0,0.0,0.0,0.0,0.0,0.0,-10.5595,-10.7274,0.0,0.0,0.0,-10.8957,-10.9709,0.0,0.0,0.0,0.0,0.0,0.0,0.0,0.0,0.0,0.0,0.0,0.0,0.0,0.0,0.0,0.0,0.0,0.0,0.0,0.0,0.0,0.0,0.0,0.0,0.0,0.0,0.0,0.0,0.0,0.0,0.0,0.0,0.0,0.0,0.0,0.0,0.0,0.0,0.0,0.0,0.0,0.0,0.0,0.0,0.0,0.0,0.0,0.0,0.0,0.0,0.0,0.0,0.0,0.0,0.0,0.0,0.0,-10.2893,-10.8315,-11.3318,-11.7837,-11.9045,-11.9084,-11.7876,-11.3496,0.0,0.0,0.0,0.0,0.0,0.0,0.0,0.0,0.0,0.0,0.0,0.0,0.0,0.0,0.0,0.0,0.0,0.0,0.0,0.0,0.0,0.0,0.0,0.0,0.0,0.0,0.0,-7.8138,0.0,0.0,0.0,0.0,0.0,0.0,0.0,0.0,0.0,0.0,0.0,0.0,0.0,0.0,-10.4359,-10.7922,-11.0241,-11.2062,0.0,0.0,-11.3327,-11.4409,-11.2998,-11.0977,0.0,0.0,0.0,0.0,0.0,0.0,0.0,0.0,0.0,0.0,0.0,0.0,0.0,0.0,0.0,0.0,0.0,0.0,0.0,0.0,0.0,0.0,0.0,0.0,0.0,0.0,0.0,0.0,0.0,0.0,0.0,0.0,0.0,0.0,0.0,0.0,0.0,0.0,0.0,0.0,0.0,0.0,0.0,0.0,0.0,0.0,0.0,0.0,0.0,0.0,0.0,0.0,0.0,0.0,-9.5417,-10.3751,-10.9797,-11.4488,-11.7915,-11.9668,-11.9668,-11.7936,-11.5209,-11.055,0.0,0.0,0.0,0.0,0.0,0.0,0.0,0.0,0.0,0.0,0.0,0.0,0.0,0.0,0.0,0.0,0.0,0.0,0.0,0.0,0.0,0.0,0.0,0.0,0.0,0.0,0.0,0.0,0.0,0.0,0.0,0.0,0.0,0.0,0.0,0.0,0.0,0.0,0.0,0.0,0.0,-10.6233,-11.0279,-11.4246,-11.6749,0.0,-11.7896,-11.8757,-11.8871,-11.6812,-11.46,-11.2829,0.0,0.0,0.0,0.0,0.0,0.0,0.0,0.0,0.0,0.0,0.0,0.0,0.0,0.0,0.0,0.0,0.0,0.0,0.0,0.0,0.0,0.0,0.0,0.0,0.0,0.0,0.0,0.0,0.0,0.0,0.0,0.0,0.0,0.0,0.0,0.0,0.0,0.0,0.0,0.0,0.0,0.0,0.0,0.0,0.0,0.0,0.0,0.0,0.0,0.0,0.0,0.0,0.0,-9.5768,-10.4688,-11.0187,-11.5151,-11.9435,-12.1305,-12.1559,-12.0292,-11.7758,-11.3623,0.0,0.0,0.0,0.0,0.0,0.0,0.0,0.0,0.0,0.0,0.0,0.0,0.0,0.0,0.0,0.0,0.0,0.0,0.0,0.0,0.0,0.0,0.0,0.0,0.0,0.0,0.0,0.0,-8.7925,-8.8776,-8.8273,0.0,0.0,0.0,0.0,0.0,0.0,0.0,0.0,0.0,0.0,-10.9397,-11.3468,-11.7117,0.0,0.0,-12.0625,-12.1123,-12.1503,-11.9901,-11.7842,-11.5706,-11.1174,0.0,0.0,0.0,0.0,0.0,0.0,0.0,0.0,0.0,0.0,0.0,0.0,0.0,0.0,0.0,0.0,0.0,0.0,0.0,0.0,0.0,0.0,0.0,0.0,0.0,0.0,0.0,0.0,0.0,0.0,0.0,0.0,0.0,0.0,0.0,0.0,0.0,0.0,0.0,0.0,0.0,0.0,0.0,0.0,0.0,0.0,0.0,0.0,0.0,0.0,0.0,0.0,-9.6939,-10.5975,-11.163,-11.675,-12.1305,-12.304,-12.3545,-12.2819,-12.0594,-11.7139,0.0,0.0,0.0,0.0,0.0,0.0,0.0,0.0,0.0,0.0,0.0,0.0,0.0,0.0,0.0,0.0,0.0,0.0,0.0,0.0,0.0,0.0,0.0,0.0,0.0,0.0,0.0,0.0,-9.0246,-9.0246,-8.8931,0.0,0.0,0.0,0.0,0.0,0.0,0.0,0.0,0.0,0.0,-11.2675,-11.6429,-12.0031,-12.2497,-12.3032,-12.3281,-12.349,-12.3677,-12.2342,-12.0473,-11.8261,0.0,0.0,0.0,0.0,0.0,0.0,0.0,0.0,0.0,0.0,0.0,0.0,0.0,0.0,0.0,0.0,0.0,0.0,0.0,0.0,0.0,0.0,0.0,0.0,0.0,0.0,0.0,-8.3386,0.0,0.0,-7.9717,0.0,0.0,0.0,0.0,0.0,0.0,0.0,0.0,0.0,0.0,0.0,0.0,0.0,0.0,0.0,0.0,0.0,0.0,0.0,0.0,0.0,0.0,-9.928,-10.7769,-11.4478,-11.9636,-12.3059,-12.4713,-12.5527,-12.5388,-12.3697,-12.1132,-11.7516,0.0,0.0,0.0,0.0,0.0,0.0,0.0,0.0,0.0,0.0,0.0,0.0,0.0,0.0,0.0,0.0,0.0,0.0,0.0,0.0,0.0,0.0,0.0,0.0,0.0,0.0,-9.2644,-9.2141,-9.0671,0.0,0.0,0.0,0.0,0.0,0.0,0.0,0.0,0.0,-10.5218,-11.0999,-11.5843,-11.9037,-12.2994,-12.5592,-12.5669,-12.6238,-12.6384,-12.5545,-12.4058,-12.238,0.0,0.0,0.0,0.0,0.0,0.0,0.0,0.0,0.0,0.0,0.0,0.0,0.0,0.0,0.0,0.0,0.0,0.0,0.0,0.0,0.0,0.0,0.0,0.0,0.0,0.0,0.0,-8.8852,-8.7798,0.0,0.0,0.0,0.0,0.0,0.0,0.0,0.0,0.0,0.0,0.0,-10.2421,-10.3275,0.0,0.0,0.0,0.0,0.0,0.0,0.0,0.0,0.0,0.0,0.0,0.0,-10.1579,-10.9446,-11.6336,-12.1436,-12.4773,-12.705,-12.8175,-12.8089,-12.6926,-12.3892,-11.8682,0.0,0.0,0.0,0.0,0.0,0.0,0.0,0.0,0.0,0.0,0.0,0.0,0.0,0.0,0.0,0.0,0.0,0.0,0.0,0.0,0.0,0.0,0.0,0.0,0.0,-9.3203,0.0,0.0,0.0,0.0,0.0,0.0,0.0,0.0,0.0,0.0,0.0,-10.4586,-11.0318,-11.5089,-11.9237,-12.2383,-12.5019,-12.6853,0.0,0.0,0.0,0.0,0.0,0.0,0.0,0.0,0.0,0.0,0.0,0.0,0.0,0.0,-11.6966,-11.0788,-10.9629,-10.958,-10.943,0.0,0.0,0.0,0.0,0.0,0.0,0.0,0.0,0.0,0.0,0.0,0.0,0.0,0.0,-9.5762,0.0,-9.3263,0.0,0.0,0.0,0.0,0.0,0.0,0.0,0.0,-10.5561,-10.8272,-11.0742,-11.1638,-11.1751,0.0,-11.0091,-10.5458,0.0,0.0,0.0,0.0,0.0,0.0,0.0,0.0,-10.5675,-11.2996,-11.9573,-12.4399,-12.7423,-12.966,-13.0939,-13.1139,-13.0218,-12.748,-12.2683,-11.8693,-11.3462,0.0,0.0,0.0,0.0,0.0,0.0,0.0,0.0,0.0,0.0,0.0,0.0,0.0,0.0,0.0,0.0,0.0,0.0,0.0,0.0,0.0,0.0,0.0,-9.5796,0.0,0.0,0.0,0.0,0.0,0.0,0.0,0.0,0.0,-10.1096,-10.5051,-10.9911,-11.51,-11.906,-12.2321,-12.4599,0.0,0.0,0.0,0.0,0.0,0.0,0.0,-12.8916,-12.9222,-12.9031,-12.9014,-12.9379,-12.9476,-12.9457,-12.9151,0.0,0.0,-11.9719,-11.8418,-11.8556,-11.8447,-11.8562,-11.8909,-11.9839,-12.0293,-12.0983,0.0,0.0,0.0,0.0,0.0,0.0,0.0,0.0,-10.4085,-10.4007,0.0,-10.143,0.0,0.0,0.0,0.0,0.0,-10.208,0.0,0.0,-11.3238,-11.6172,-11.8554,-11.9531,-11.9961,-11.9922,-11.9841,-11.8902,-11.653,-10.387,0.0,0.0,0.0,0.0,0.0,0.0,-11.1612,-11.8222,-12.4229,-12.8526,-13.1008,-13.262,-13.382,-13.4525,-13.3689,-13.2007,-12.9482,-12.6141,-12.1567,-11.5609,-10.9669,0.0,0.0,0.0,0.0,0.0,0.0,0.0,0.0,0.0,0.0,0.0,0.0,0.0,0.0,0.0,0.0,0.0,0.0,0.0,0.0,-9.8051,0.0,0.0,0.0,0.0,0.0,0.0,0.0,0.0,0.0,0.0,-10.8273,-11.1531,-11.5553,-11.9428,0.0,0.0,0.0,0.0,-13.0903,-13.1018,-13.1706,-13.2279,-13.2317,-13.2317,-13.2585,-13.3425,0.0,0.0,-13.6062,-13.6214,-13.6444,-13.7208,-13.7284,-13.536,-12.8978,-12.8155,-12.8458,-12.8458,-12.8818,-12.9445,-12.9626,-13.0151,-13.1061,-11.4813,0.0,0.0,0.0,0.0,-10.8137,-10.9464,-11.1112,-11.201,-11.1908,-11.1033,-10.9939,0.0,0.0,0.0,0.0,0.0,0.0,-11.4099,-11.7693,-12.1132,-12.375,-12.5664,-12.7187,-12.789,-12.7851,-12.7261,-12.667,-12.5939,-12.0365,-11.3697,-10.6285,0.0,0.0,0.0,0.0,-11.7755,-12.2747,-12.8621,-13.2585,-13.4515,-13.6164,-13.7091,-13.7288,-13.7517,-13.6721,-13.4816,-13.1998,-12.8549,-12.4325,-11.7916,0.0,0.0,0.0,0.0,0.0,0.0,0.0,0.0,0.0,0.0,0.0,0.0,0.0,0.0,0.0,0.0,0.0,0.0,0.0,-10.2561,-10.2949,-10.2244,0.0,0.0,0.0,0.0,0.0,0.0,0.0,0.0,0.0,-11.9533,-11.9862,-12.1244,0.0,0.0,-12.8958,-13.0865,-13.1973,-13.3234,-13.503,-13.5488,0.0,-13.652,-13.6596,-13.7093,-13.8469,-14.0417,-14.2099,-14.2901,-14.3054,-14.3092,-14.3321,-14.3359,-14.2481,-14.0253,-13.7284,-13.5641,-13.5527,-13.5679,-13.5998,-13.6376,-13.6723,-13.6971,-12.4689,-11.9653,-11.5945,-11.4656,-11.5203,-11.6413,-11.7701,-11.9077,-12.0303,-12.0328,-11.9446,-11.861,-11.7271,-11.5591,-11.4196,0.0,0.0,0.0,-12.2031,-12.5078,-12.7812,-13.0,-13.1679,-13.3086,-13.3906,-13.4218,-13.3734,-13.347,-13.3434,-13.154,-12.7323,-12.0776,0.0,0.0,-11.5779,-11.9701,-12.3893,-12.8159,-13.2708,-13.5875,-13.7517,-13.8836,-13.9466,-13.9441,-13.9829,-13.9579,-13.85,-13.6643,-13.4135,-13.1036,-12.5403,-11.8965,0.0,0.0,0.0,0.0,0.0,0.0,0.0,0.0,0.0,0.0,0.0,-8.6025,-8.7941,0.0,0.0,0.0,-10.0341,-10.4555,-10.8539,-10.7956,0.0,0.0,0.0,0.0,0.0,0.0,0.0,-11.5561,-12.0177,-12.4465,-12.788,-12.8432,-12.8647,-12.917,-13.0849,-13.2684,-13.4113,0.0,-13.6482,-13.8316,-13.8889,-13.9539,-14.0685,-14.0876,-14.1487,-14.313,-14.4926,-14.6263,-14.6798,-14.6913,-14.6875,-14.6875,-14.6875,-14.676,-14.6263,-14.4047,-14.1831,-14.0685,-14.0685,-14.1039,-14.1296,-14.1436,-14.1675,-13.2731,-13.2146,-12.586,-12.3089,-12.3089,-12.465,-12.5821,-12.6846,-12.8407,-12.8703,-12.7967,-12.7105,-12.5773,-12.4172,-12.3356,0.0,-12.5585,-12.7343,-12.9375,-13.1757,-13.3515,-13.5117,-13.6601,-13.7461,-13.832,-13.9101,-13.9101,-13.9093,-13.9036,-13.8248,-13.7467,-13.6381,-12.79,-12.3791,-12.4328,-12.6602,-12.9832,-13.3857,-13.6432,-13.8575,-14.0167,-14.0923,-14.1305,-14.1204,-14.1076,-14.0957,-14.0901,-14.0006,-13.8315,-13.5767,-13.1735,-12.6063,-11.8527,0.0,0.0,0.0,0.0,0.0,0.0,0.0,0.0,0.0,0.0,0.0,0.0,0.0,0.0,0.0,-10.7104,0.0,-11.3861,-11.3265,0.0,0.0,0.0,-11.2341,-11.4638,-11.7253,-12.0177,-12.3408,0.0,0.0,-13.3995,-13.6526,-13.6867,-13.3487,-13.4953,-13.6444,-13.6482,-13.8545,-14.0341,-14.1334,-14.2099,-14.313,-14.4582,-14.4926,-14.5499,-14.6913,-14.8059,-14.8556,-14.8594,-14.8632,-14.8594,-14.8632,-14.8594,-14.8556,-14.8518,-14.8212,-14.7524,-14.4315,-14.4391,-14.4858,-14.4721,-14.5006,-14.5244,-13.5308,-13.5152,-13.3512,-13.1755,-12.9999,-13.0389,-13.1443,-13.2887,-13.3313,-13.3724,-13.4086,-13.3255,-13.2251,-13.1238,-13.1023,-13.154,-13.2642,-13.4354,-13.5496,-13.616,-13.78,-13.8816,-13.9246,-14.0105,-14.0658,-14.0859,-14.082,-14.082,-14.0893,-14.0652,-14.0144,-13.9213,-13.6991,-13.4332,-13.1404,-13.2497,-13.4243,-13.6549,-13.9086,-14.1189,-14.2819,-14.3657,-14.3733,-14.3066,-14.2357,-14.1958,-14.1932,-14.0401,-13.8701,-13.6806,-13.3795,-12.9296,-12.2921,-11.5095,0.0,0.0,0.0,0.0,0.0,0.0,0.0,0.0,0.0,-9.5127,-9.8574,0.0,-10.6744,0.0,-11.3492,-11.723,-11.9128,-11.9603,0.0,0.0,-12.0564,-12.1519,-12.2609,-12.6063,-12.9217,-13.1333,-13.4718,-13.7396,-13.8636,-14.1016,-14.2225,-14.124,-14.0852,-14.0925,-14.1564,-14.2672,-14.4047,-14.5346,-14.5805,-14.6378,-14.7333,-14.8097,-14.8594,-14.9053,-14.9817,-15.039,-15.0352,-15.039,-15.039,-15.039,-15.039,-15.0161,-14.9511,-14.9396,-14.89,-14.7562,-14.741,-14.7455,-14.7245,-14.7215,-14.7108,-13.7923,-13.7962,-13.8353,-13.7689,-13.6362,-13.5581,-13.6011,-13.726,-13.767,-13.8147,-13.8546,-13.7648,-13.7015,-13.6557,-13.6557,-13.683,-13.7338,-13.8694,-13.9288,-13.9366,-14.0655,-14.124,-14.1279,-14.2138,-14.2583,-14.2639,-14.2576,-14.2578,-14.2617,-14.2614,-14.234,-14.1875,-14.1511,-14.0116,-13.7777,-13.7026,-13.7522,-13.9228,-14.1363,-14.2921,-14.3826,-14.4277,-14.4046,-14.3209,-14.2312,-14.1472,-14.0689,-13.928,-13.7753,-13.6029,-13.4149,-13.0945,-12.6096,-11.9616,-11.3075,0.0,0.0,0.0,0.0,0.0,0.0,0.0,0.0,0.0,0.0,0.0,-11.3423,-11.653,-12.0319,-12.3236,-12.4864,-12.6065,-12.699,-12.756,-12.8438,-12.9535,-13.0971,-13.35,-13.5757,-13.7488,-13.9989,-14.1972,-14.3071,-14.4722,-14.5892,-14.6155,-14.5904,-14.5622,-14.5327,-14.5939,-14.6904,-14.8059,-14.8327,-14.8594,-14.9435,-14.997,-15.0275,-15.0313,-15.0696,-15.1001,-15.1001,-15.1001,-15.1001,-15.1001,-15.1001,-15.0848,-15.0352,-15.0275,-15.0084,-14.974,-14.9549,-14.9212,-14.8313,-14.7977,-14.7717,-14.0266,-14.0344,-14.1086,-14.1476,-14.1437,-13.9953,-13.9719,-14.05,-14.1242,-14.1554,-14.1515,-14.0773,-14.0422,-14.0422,-14.0422,-14.05,-14.0656,-14.1398,-14.1749,-14.1788,-14.253,-14.2881,-14.2881,-14.3662,-14.3974,-14.3985,-14.3972,-14.3984,-14.3984,-14.3984,-14.3984,-14.3945,-14.3242,-14.2804,-14.2628,-14.0432,-14.0042,-14.1554,-14.3209,-14.4003,-14.3886,-14.3818,-14.3397,-14.2538,-14.1485,-14.0182,-13.853,-13.7439,-13.6053,-13.4389,-13.3602,-13.1723,-12.83,-12.3711,-11.8917,0.0,-10.9113,0.0,0.0,0.0,0.0,0.0,0.0,0.0,0.0,-11.5586,-12.0073,-12.4572,-12.7181,-12.9238,-13.0746,-13.2443,-13.4062,-13.541,-13.5653,-13.655,-13.8658,-13.9748,-14.0835,-14.2374,-14.4028,-14.5587,-14.6779,-14.7757,-14.8525,-14.9017,-14.9646,-14.9506,-14.842,-14.8519,-14.918,-14.9848,-14.9855,-15.0046,-15.0657,-15.0925,-15.0925,-15.0963,-15.0963,-15.1001,-15.1001,-15.1001,-15.1001,-15.1001,-15.1001,-15.1001,-15.1001,-15.0963,-15.0963,-15.0887,-15.0848,-15.0358,-14.9071,-14.8473,-14.8097,-14.1164,-14.1164,-14.132,-14.1788,-14.2413,-14.2101,-14.2062,-14.2218,-14.2374,-14.2452,-14.2413,-14.2296,-14.2218,-14.2218,-14.2218,-14.2608,-14.3272,-14.3428,-14.3506,-14.3506,-14.3662,-14.374,-14.3779,-14.3935,-14.3974,-14.3974,-14.3995,-14.3979,-14.3984,-14.3984,-14.3984,-14.3984,-14.3828,-14.3434,-14.2785,0.0,0.0,0.0,-14.408,-14.4615,-14.3925,-14.3872,-14.3428,-14.2499,-14.0354,0.0,-13.7646,-13.6125,-13.4454,-13.2801,-13.3112,0.0,0.0,0.0,0.0,0.0,0.0,0.0,0.0,0.0,0.0,0.0,-12.2178,-12.2178,-11.9731,-12.439,-12.8561,-13.0853,-13.3187,-13.5001,-13.5968,-13.825,-13.9749,-13.9969,-14.1158,-14.2106,-14.2446,-14.4282,-14.577,-14.5913,-14.7452,-14.8606,-14.8894,-14.9663,-15.0202,-15.0335,-15.1065,-15.139,-15.0922,-15.0707,-15.074,-15.0902,-15.0796,-15.0772,-15.0963,-15.1001,-15.1001,-15.1001,-15.1001,-15.1001,-15.1001,-15.1001,-15.1001,-15.1001,-15.1001,-15.1001,-15.1001,-15.1001,-15.1001,-15.1001,-15.1001,-15.0854,-15.0368,-15.0035,-14.9809,-14.2062,0.0,-14.2491,-14.292,0.0,-14.335,-14.335,-14.335,-14.335,-14.335,-14.335,-14.335,-14.335,-14.335,-14.335,-14.3584,-14.3974,-14.3974,-14.3974,-14.3974,-14.3974,-14.3974,-14.3974,-14.3974,-14.3974,-14.3974,-14.4004,-14.4001,-14.3984,-14.3984,-14.3984,-14.3984,-14.3984,-14.3788,-14.3393,-14.3347,-14.3123,-14.2725,-14.3935,-14.4392,-14.399,-14.3951,-14.3314,-14.1974,-14.0296,0.0,0.0,0.0,0.0,0.0,0.0,0.0,0.0,0.0,0.0,-12.6251,-12.4839,-12.4113,-12.4099,-12.5237,-12.6646,-12.8394,-13.123,-13.1657,-12.8666,-13.1848,-13.4653,-13.6358,-13.8297,-13.9759,-14.061,-14.2235,-14.3544,-14.435,-14.5115,-14.5744,-14.6559,-14.7611,-14.8312,-14.8298,-14.9298,-15.0067,-15.0106,-15.0837,-15.1298,-15.1375,-15.1722,-15.1991,-15.1834,-15.1651,-15.1462,-15.1332,-15.1237,-15.1102,-15.1102,-15.1071,-15.1001,-15.1001,-15.1001,-15.1001,-15.1001,-15.1001,-15.1001,-15.1001,-15.1001,-15.1001,-15.1001,-15.1001,-15.1001,-15.1001,-15.1001,-15.1001,-15.086,-15.0604,-15.038,-14.2959,-14.2998,-14.3857,-14.4209,-14.4248,-14.4365,-14.4443,-14.4404,0.0,0.0,0.0,-14.3974,-14.3974,-14.3974,-14.3974,-14.3974,-14.3974,-14.3974,-14.3974,-14.3974,-14.3974,-14.3974,-14.3974,-14.3974,-14.3985,-14.3985,-14.3985,-14.3989,-14.3984,-14.3984,-14.3984,-14.3984,-14.3984,-14.3984,-14.3984,-14.3975,-14.363,-14.2998,-14.3623,-14.3974,-14.3974,-14.3857,-14.3077,-14.1632,-14.0617,-13.9016,-13.6752,-13.5832,-13.4936,-13.4113,-13.412,-13.4126,-13.4022,-13.3516,-13.2886,-13.2112,-13.1983,-13.2006,-13.2134,-13.3358,-13.4649,-13.5814,-13.7951,-13.8456,-13.6598,-13.7823,-13.9344,-14.0895,-14.244,-14.3627,-14.4478,-14.5368,-14.6451,-14.7998,-14.8061,-14.8545,-14.967,-14.9938,-14.9869,-14.9855,-15.0414,-15.0914,-15.0952,-15.1529,-15.1991,-15.1991,-15.1991,-15.1991,-15.1991,-15.1812,-15.1651,-15.1462,-15.1332,-15.1266,-15.1237,-15.1102,-15.1071,-15.1001,-15.1001,-15.1001,-15.1001,-15.1001,-15.1001,-15.1001,-15.1001,-15.1001,-15.1001,-15.1001,-15.1001,-15.1001,-15.1001,-15.1001,-15.1001,-15.0715,-15.0455,-14.3818,-14.3896,-14.4716,-14.5028,-14.5107,-14.5848,-14.6161,-14.6043,-14.4638,-14.3974,-14.3974,-14.3974,-14.3974,-14.3974,-14.3974,-14.3974,-14.3974,-14.3974,-14.3974,-14.3974,-14.3974,-14.3974,-14.3974,-14.3974,-14.3995,-14.3995,-14.3995,-14.3972,-14.3984,-14.3984,-14.3984,-14.3984,-14.3984,-14.3984,-14.3984,-14.3975,-14.3943,-14.3818,-14.3935,-14.3974,-14.3974,-14.3272,-14.2764,-14.2452,-14.0968,-13.9602,-13.847,-13.7577,-13.6692,-13.5829,-13.6403,-13.6777,-13.6775,-13.7255,-13.7519,-13.7249,-13.7167,-13.7421,-13.8099,-13.8378,-13.9544,-14.1797,-14.3001,-14.2541,-14.0109,-14.1279,-14.2562,-14.3568,-14.4991,-14.6296,-14.7109,-14.7882,-14.8772,-14.9739,-14.9894,-14.9955,-15.0168,-15.0597,-15.0825,-15.0755,-15.1318,-15.1799,-15.176,-15.1914,-15.1991,-15.1991,-15.1991,-15.1991,-15.1991,-15.1872,-15.1651,-15.1526,-15.1462,-15.1435,-15.1266,-15.1199,-15.1102,-15.1001,-15.1001,-15.1001,-15.1001,-15.1001,-15.1001,-15.1001,-15.1001,-15.1001,-15.1001,-15.1001,-15.1001,-15.1001,-15.1001,-15.1001,-15.1001,-15.0788,-15.0604,-14.3974,-14.4092,-14.4872,-14.5224,-14.5263,-14.6122,-14.6473,-14.6395,-14.5185,-14.4677,-14.4599,-14.417,-14.3974,-14.3974,-14.3974,-14.3974,-14.3974,-14.3974,-14.3974,-14.3974,-14.3974,-14.3974,-14.3974,-14.3974,-14.3985,-14.3974,-14.3972,-14.3983,-14.3984,-14.3984,-14.3984,-14.3984,-14.3984,-14.3981,-14.4001,-14.4001,-14.3982,-14.3974,-14.3974,-14.3974,-14.3974,-14.3623,-14.3194,-14.2725,-14.1905,-14.1074,-14.0165,-13.9801,-13.9331,-13.8878,-13.9193,-13.9388,-13.9342,-13.967,-13.9816,-13.9739,-14.0512,-14.1153,-14.1549,-14.2373,-14.3356,-14.4487,-14.4953,-14.4805,-14.3919,-14.4539,-14.512,-14.5463,-14.6926,-14.7998,-14.8385,-14.9159,-15.0048,-15.0938,-15.1016,-15.1124,-15.1453,-15.1702,-15.1832,-15.1696,-15.1893,-15.2106,-15.1991,-15.1991,-15.1991,-15.1991,-15.1991,-15.1991,-15.1991,-15.1932,-15.1872,-15.1812,-15.1689,-15.1589,-15.1462,-15.1332,-15.1199,-15.1131,-15.1033,-15.1001,-15.1001,-15.1001,-15.1001,-15.1001,-15.1001,-15.1001,-15.1001,-15.1001,-15.1001,-15.1001,-15.1001,-15.1001,-15.1001,-15.086,-15.0604,-14.3974,-14.4052,-14.4872,-14.5302,-14.5575,-14.6434,-14.6707,-14.6434,-14.5575,-14.5224,-14.5107,-14.4365,-14.3974,-14.3974,-14.3974,-14.3974,-14.3974,-14.3974,-14.3974,-14.3974,-14.3974,-14.3974,-14.3974,-14.3974,-14.3974,-14.3985,-14.4006,-14.3983,-14.3984,-14.3984,-14.3984,-14.3984,-14.3979,-14.4006,-14.3995,-14.3982,-14.3974,-14.3974,-14.4013,-14.4002,-14.3974,-14.3974,-14.3662,-14.3026,-14.2987,-14.2624,-14.1921,-14.1828,-14.1914,-14.2039,-14.2059,-14.2075,-14.2138,-14.2114,-14.2101,-14.2163,-14.3234,-14.3952,-14.3998,-14.5215,-14.6002,-14.5972,-14.6282,-14.6711,-14.7132,-14.7444,-14.7483,-14.7357,-14.8392,-14.9352,-14.9662,-15.0165,-15.0938,-15.175,-15.1867,-15.2052,-15.2535,-15.2602,-15.2552,-15.229,-15.2236,-15.218,-15.2106,-15.2049,-15.2049,-15.1991,-15.1991,-15.1991,-15.1991,-15.1991,-15.1991,-15.1991,-15.1872,-15.1774,-15.1713,-15.1526,-15.1293,-15.1255,-15.1131,-15.1033,-15.1001,-15.1001,-15.1001,-15.1001,-15.1001,-15.1001,-15.1001,-15.1001,-15.1001,-15.1001,-15.1001,-15.1001,-15.1001,-15.0931,-15.0604,-14.3974,-14.4092,-14.4872,-14.5653,-14.6434,-14.7254,-14.7176,-14.6434,-14.5575,-14.5224,-14.5107,-14.4365,-14.3974,-14.3974,-14.3974,-14.3974,-14.3974,-14.3974,-14.3974,-14.3974,-14.3974,-14.3974,-14.3974,-14.3974,-14.3974,-14.3974,-14.3995,-14.4001,-14.3984,-14.3984,-14.3975,-14.4004,-14.3995,-14.3974,-14.3989,-14.4004,-14.3985,-14.3974,-14.3951,-14.3951,-14.3974,-14.3974,-14.3924,-14.3808,-14.3769,-14.3716,-14.353,-14.3596,-14.3871,-14.4573,-14.4546,-14.4889,-14.5448,-14.547,-14.5412,-14.5343,-14.5514,-14.5531,-14.5539,-14.628,-14.6786,-14.6827,-14.8067,-14.8841,-14.891,-14.9568,-14.968,-14.9127,-14.9623,-15.0474,-15.1248,-15.1402,-15.1789,-15.2447,-15.2601,-15.2718,-15.2748,-15.2651,-15.2602,-15.2552,-15.2449,-15.2344,-15.218,-15.2219,-15.2163,-15.2049,-15.2049,-15.1991,-15.1991,-15.1991,-15.1991,-15.1991,-15.1991,-15.1932,-15.1774,-15.1713,-15.1487,-15.1255,-15.1161,-15.1063,-15.1071,-15.1001,-15.1001,-15.1001,-15.1001,-15.1001,-15.1001,-15.1001,-15.1001,-15.1001,-15.1001,-15.1001,-15.1001,-15.1001,-15.0788,-14.3872,-14.3964,-14.4797,-14.5656,-14.6514,-14.6891,-14.6824,-14.6434,-14.5575,-14.5224,-14.5107,-14.4365,-14.3974,-14.3974,-14.3974,-14.3974,-14.3974,-14.3974,-14.3974,-14.3974,-14.3974,-14.3974,-14.3974,-14.3974,-14.3974,-14.3985,-14.3989,-14.3984,-14.4001,-14.3995,-14.3989,-14.3982,-14.3995,-14.3985,-14.4004,-14.3985,-14.4002,-14.3951,-14.3899,-14.3886,-14.3872,-14.3872,-14.3872,-14.3857,-14.3818,-14.406,-14.4454,-14.4514,-14.4904,-14.5703,-14.5653,-14.5735,-14.602,-14.5947,-14.5895,-14.5864,-14.623,-14.6665,-14.7134,-14.7447,-14.7757,-14.818,-14.8839,-14.9375,-14.9868,-15.0642,-15.0907,-15.0667,-15.0861,-15.1248,-15.1596,-15.2021,-15.2447,-15.2756,-15.2795,-15.2795,-15.2795,-15.2748,-15.27,-15.2602,-15.2552,-15.2449,-15.2344,-15.229,-15.2236,-15.2163,-15.2106,-15.2106,-15.1991,-15.1991,-15.1991,-15.1991,-15.1991,-15.1991,-15.1834,-15.1774,-15.1613,-15.1449,-15.1293,-15.117,-15.1033,-15.1001,-15.1001,-15.1001,-15.1001,-15.1001,-15.1001,-15.1001,-15.1001,-15.1001,-15.1001,-15.1001,-15.1001,-15.1001,-15.086,-14.3787,-14.3943,-14.4755,-14.5408,-14.5837,-14.6032,-14.6004,-14.577,-14.5146,-14.4872,-14.4794,-14.4248,-14.3974,-14.3974,-14.3974,-14.3974,-14.3974,-14.3974,-14.3985,-14.3995,-14.3995,-14.3995,-14.4013,-14.4248,-14.4356,-14.4397,-14.4648,-14.4743,-14.4698,-14.4727,-14.4698,-14.4685,-14.4698,-14.456,-14.4353,-14.4314,-14.4302,-14.4262,-14.4208,-14.4271,-14.4472,-14.4493,-14.4376,-14.416,-14.4121,-14.4532,-14.5294,-14.5372,-14.5742,-14.6572,-14.6461,-14.6526,-14.6677,-14.6626,-14.6563,-14.6536,-14.6937,-14.7638,-14.8455,-14.8416,-14.8723,-14.937,-14.968,-15.0062,-15.0629,-15.1441,-15.1905,-15.1905,-15.1944,-15.1944,-15.1983,-15.2447,-15.2795,-15.2795,-15.2795,-15.2795,-15.2795,-15.2795,-15.2748,-15.2651,-15.2651,-15.2602,-15.2501,-15.2397,-15.2344,-15.2236,-15.2219,-15.2163,-15.2049,-15.2049,-15.1991,-15.1991,-15.1991,-15.1991,-15.1991,-15.1894,-15.1735,-15.1536,-15.1385,-15.1304,-15.1102,-15.1033,-15.1001,-15.1001,-15.1001,-15.1001,-15.1001,-15.1001,-15.1001,-15.1001,-15.1001,-15.1001,-15.1001,-15.1001,-15.0931,-14.3787,-14.3943,-14.4808,-14.4758,-14.4209,-14.495,-14.4833,-14.4287,-14.4131,-14.4052,-14.4092,-14.4013,-14.3974,-14.4013,-14.4052,-14.4013,-14.4013,-14.4102,-14.416,-14.4152,-14.4113,-14.4021,-14.4052,-14.4833,-14.5264,-14.5317,-14.5918,-14.6269,-14.6332,-14.6377,-14.6434,-14.6317,-14.6239,-14.5915,-14.5265,-14.5135,-14.5121,-14.5035,-14.5,-14.5314,-14.6016,-14.6131,-14.5703,-14.508,-14.4963,-14.5372,-14.6149,-14.6244,-14.6572,-14.7318,-14.7305,-14.7571,-14.822,-14.8273,-14.8168,-14.8207,-14.814,-14.8455,-14.9075,-14.9149,-14.9409,-15.021,-15.0907,-15.1441,-15.1557,-15.2176,-15.2601,-15.2718,-15.264,-15.2679,-15.2679,-15.2718,-15.2795,-15.2795,-15.2795,-15.2795,-15.2795,-15.2795,-15.2795,-15.2795,-15.2748,-15.27,-15.2602,-15.2462,-15.2449,-15.2397,-15.229,-15.2219,-15.2163,-15.2106,-15.1991,-15.2029,-15.1991,-15.1991,-15.1991,-15.1932,-15.1855,-15.1719,-15.1512,-15.1397,-15.1266,-15.1131,-15.1033,-15.1001,-15.1001,-15.1001,-15.1001,-15.1001,-15.1001,-15.1001,-15.1001,-15.1001,-15.1001,-15.1001,-15.1001,-14.3774,-14.3832,-14.4208,-14.4198,-14.3977,-14.4314,-14.4248,-14.4013,-14.3974,-14.3974,-14.3985,-14.3974,-14.4004,-14.4013,-14.4599,-14.4815,-14.488,-14.5412,-14.5681,-14.5661,-14.5651,-14.5664,-14.5694,-14.6007,-14.612,-14.6168,-14.6445,-14.6562,-14.6533,-14.6523,-14.6512,-14.6512,-14.6488,-14.6319,-14.6071,-14.6003,-14.5932,-14.584,-14.5821,-14.5996,-14.6326,-14.6305,-14.6383,-14.6578,-14.6071,-14.6227,-14.7062,-14.7062,-14.7429,-14.8174,-14.8134,-14.8233,-14.8454,-14.8435,-14.8401,-14.8401,-14.8257,-14.857,-14.927,-14.9347,-14.9805,-15.1035,-15.15,-15.192,-15.2292,-15.264,-15.2795,-15.2795,-15.2795,-15.2795,-15.2795,-15.2795,-15.2795,-15.2795,-15.2795,-15.2795,-15.2795,-15.2795,-15.2795,-15.2795,-15.2795,-15.2748,-15.2748,-15.27,-15.2602,-15.2552,-15.2501,-15.2397,-15.2236,-15.2163,-15.2106,-15.1991,-15.1991,-15.1991,-15.1991,-15.1991,-15.1932,-15.1735,-15.155,-15.1397,-15.1266,-15.1063,-15.1001,-15.1001,-15.1001,-15.1001,-15.1001,-15.1001,-15.1001,-15.1001,-15.1001,-15.1001,-15.1001,-15.1001,-15.1001,-14.3949,-14.4222,-14.4325,-14.4471,-14.4719,-14.4783,-14.4794,-14.4794,-14.4833,-14.4833,-14.4844,-14.4833,-14.4707,-14.461,-14.5341,-14.5731,-14.5772,-14.6326,-14.66,-14.6596,-14.66,-14.6618,-14.6659,-14.6874,-14.7001,-14.7059,-14.7275,-14.7371,-14.7332,-14.7332,-14.732,-14.7308,-14.7295,-14.715,-14.6885,-14.6829,-14.6737,-14.6698,-14.6698,-14.6833,-14.7062,-14.7101,-14.7335,-14.7764,-14.7374,-14.7335,-14.792,-14.792,-14.8107,-14.8577,-14.864,-14.8554,-14.8461,-14.8435,-14.8401,-14.8401,-14.8564,-14.8997,-14.9812,-15.0085,-15.0702,-15.1974,-15.2124,-15.2351,-15.2803,-15.2795,-15.2795,-15.2795,-15.2795,-15.2795,-15.2795,-15.2795,-15.2795,-15.2795,-15.2795,-15.2795,-15.2795,-15.2795,-15.2795,-15.2795,-15.2795,-15.2795,-15.2795,-15.2795,-15.2748,-15.2651,-15.2651,-15.2501,-15.2344,-15.2236,-15.2163,-15.2106,-15.2049,-15.2029,-15.1991,-15.1991,-15.1991,-15.1872,-15.1651,-15.1462,-15.1266,-15.1102,-15.1001,-15.1001,-15.1001,-15.1001,-15.1001,-15.1001,-15.1001,-15.1001,-15.1001,-15.1001,-15.1001,-15.1001,-15.1001,-14.4394,-14.5145,-14.5213,-14.5629,-14.6227,-14.6239,-14.6395,-14.6317,-14.6434,-14.6328,-14.6269,-14.6455,-14.5878,-14.5547,-14.6181,-14.6612,-14.6523,-14.6757,-14.6905,-14.6894,-14.6845,-14.6816,-14.6879,-14.7587,-14.7878,-14.785,-14.862,-14.901,-14.8893,-14.8815,-14.8791,-14.8881,-14.8764,-14.8328,-14.7614,-14.7614,-14.7594,-14.7552,-14.7491,-14.7881,-14.866,-14.8621,-14.8582,-14.8699,-14.8621,-14.8621,-14.8738,-14.8738,-14.8667,-14.8601,-14.8612,-14.8523,-14.8435,-14.8401,-14.8401,-14.8595,-14.9108,-14.985,-15.0743,-15.1365,-15.2024,-15.2875,-15.3024,-15.2943,-15.2976,-15.2887,-15.2795,-15.2795,-15.2795,-15.2795,-15.2795,-15.2795,-15.2795,-15.2795,-15.2795,-15.2795,-15.2795,-15.2795,-15.2795,-15.2795,-15.2795,-15.2795,-15.2795,-15.2795,-15.2795,-15.2748,-15.27,-15.2602,-15.2552,-15.2344,-15.2274,-15.2163,-15.2106,-15.2029,-15.1991,-15.1991,-15.1991,-15.1932,-15.1751,-15.15,-15.1435,-15.1237,-15.1033,-15.1001,-15.1001,-15.1001,-15.1001,-15.1001,-15.1001,-15.1001,-15.1001,-15.1001,-15.1001,-15.1001,-15.1001,-14.5301,-14.6081,-14.6085,-14.6227,-14.6473,-14.6473,-14.6512,-14.6562,-14.659,-14.6618,-14.6592,-14.6592,-14.6124,-14.5781,-14.6788,-14.7148,-14.6718,-14.7773,-14.8385,-14.8358,-14.8347,-14.8319,-14.8329,-14.8592,-14.8737,-14.8737,-14.8971,-14.9128,-14.9128,-14.9128,-14.9064,-14.9023,-14.9008,-14.884,-14.8472,-14.847,-14.841,-14.8387,-14.8387,-14.8543,-14.8777,-14.8816,-14.8816,-14.8816,-14.8816,-14.8816,-14.8816,-14.873,-14.8681,-14.8612,-14.8554,-14.8493,-14.8435,-14.8401,-14.8673,-14.9217,-14.9493,-15.0309,-15.1551,-15.1982,-15.2451,-15.3072,-15.3227,-15.3187,-15.3144,-15.2976,-15.2932,-15.2932,-15.2841,-15.2795,-15.2795,-15.2795,-15.2795,-15.2795,-15.2795,-15.2795,-15.2795,-15.2795,-15.2795,-15.2795,-15.2795,-15.2795,-15.2795,-15.2795,-15.2795,-15.2795,-15.2748,-15.27,-15.2602,-15.2449,-15.229,-15.218,-15.2106,-15.1991,-15.1991,-15.1991,-15.1991,-15.1932,-15.1812,-15.1564,-15.15,-15.1304,-15.1102,-15.1071,-15.1001,-15.1001,-15.1001,-15.1001,-15.1001,-15.1001,-15.1001,-15.1001,-15.1001,-15.1001,-15.1001,-14.6189,-14.6969,-14.6969,-14.7176,-14.741,-14.7137,-14.7019,-14.703,-14.6723,-14.6592,-14.664,-14.6953,-14.6601,-14.6211,-14.7265,-14.7578,-14.7226,-14.8275,-14.8883,-14.9119,-14.9178,-14.9128,-14.9128,-14.9128,-14.9128,-14.9128,-14.9128,-14.9128,-14.9088,-14.9077,-14.9051,-14.9008,-14.8975,-14.8921,-14.8881,-14.8838,-14.8816,-14.8816,-14.8777,-14.8816,-14.8816,-14.8816,-14.8816,-14.8816,-14.8816,-14.8816,-14.8777,-14.8706,-14.8667,-14.8651,-14.8796,-14.9051,-14.9256,-14.9372,-14.9566,-15.0033,-15.0499,-15.1159,-15.2092,-15.2519,-15.2833,-15.3302,-15.3342,-15.3266,-15.3226,-15.3063,-15.2976,-15.2976,-15.2887,-15.2795,-15.2795,-15.2795,-15.2795,-15.2795,-15.2795,-15.2795,-15.2795,-15.2795,-15.2795,-15.2795,-15.2795,-15.2795,-15.2795,-15.2795,-15.2795,-15.2795,-15.2795,-15.2748,-15.2602,-15.2501,-15.2344,-15.218,-15.2106,-15.2049,-15.1991,-15.1991,-15.1991,-15.1932,-15.1834,-15.1689,-15.15,-15.1332,-15.117,-15.1071,-15.1001,-15.1001,-15.1001,-15.1001,-15.1001,-15.1001,-15.1001,-15.1001,-15.1001,-15.1001,-15.1001,-14.7074,-14.78,-14.7878,-14.8308,-14.8815,-14.8073,-14.7722,-14.7733,-14.6957,-14.6671,-14.6875,-14.7461,-14.7382,-14.6953,-14.7695,-14.8007,-14.7929,-14.8089,-14.8582,-14.8972,-14.911,-14.9128,-14.9128,-14.9128,-14.9128,-14.9128,-14.9128,-14.9128,-14.9088,-14.9025,-14.8969,-14.8997,-14.8921,-14.8881,-14.8838,-14.8816,-14.8816,-14.8816,-14.8816,-14.8816,-14.8816,-14.8816,-14.8816,-14.8816,-14.8816,-14.8816,-14.8793,-14.881,-14.8767,-14.8777,-14.9394,-15.0033,-15.0693,-15.0887,-15.0771,-15.0965,-15.1742,-15.2053,-15.2441,-15.2985,-15.3412,-15.349,-15.3379,-15.3305,-15.3305,-15.3146,-15.302,-15.3059,-15.2887,-15.2795,-15.2795,-15.2795,-15.2795,-15.2795,-15.2795,-15.2795,-15.2795,-15.2795,-15.2795,-15.2795,-15.2795,-15.2795,-15.2795,-15.2795,-15.2795,-15.2795,-15.2795,-15.2748,-15.2602,-15.2501,-15.2344,-15.218,-15.2106,-15.2049,-15.1991,-15.1991,-15.1991,-15.1991,-15.1834,-15.1713,-15.1564,-15.1332,-15.1199,-15.1102,-15.1001,-15.1001,-15.1001,-15.1001,-15.1001,-15.1001,-15.1001,-15.1001,-15.1001,-15.1001,-15.0963,-14.7945,-14.8737,-14.8737,-14.8893,-14.8971,-14.8152,-14.7839,-14.7772,-14.6957,-14.6905,-14.7461,-14.7773,-14.7773,-14.7695,-14.8437,-14.8515,-14.8203,-14.8551,-14.8893,-14.9071,-14.9099,-14.9128,-14.9128,-14.9128,-14.9128,-14.9128,-14.9128,-14.9128,-14.9088,-14.9012,-14.8992,-14.8977,-14.894,-14.8881,-14.8816,-14.8816,-14.8816,-14.8816,-14.8816,-14.8816,-14.8816,-14.8816,-14.8816,-14.8816,-14.8816,-14.8816,-14.8894,-14.9317,-14.9526,-14.9478,-15.0144,-15.0654,-15.0965,-15.1043,-15.1276,-15.182,-15.2053,-15.2519,-15.3063,-15.3374,-15.349,-15.349,-15.3455,-15.3455,-15.3455,-15.3305,-15.3187,-15.3144,-15.3059,-15.2887,-15.2841,-15.2795,-15.2795,-15.2795,-15.2795,-15.2795,-15.2795,-15.2795,-15.2795,-15.2795,-15.2795,-15.2795,-15.2795,-15.2795,-15.2795,-15.2795,-15.2795,-15.2748,-15.2602,-15.2501,-15.2344,-15.2219,-15.2106,-15.2049,-15.1991,-15.1991,-15.1991,-15.1991,-15.1932,-15.1872,-15.1651,-15.1397,-15.1266,-15.117,-15.1033,-15.1033,-15.1001,-15.1001,-15.1001,-15.1001,-15.1001,-15.1001,-15.1001,-15.1001,-15.0925,-14.8659,-14.9128,-14.9128,-14.8893,-14.8464,-14.7605,-14.7293,-14.7186,-14.6449,-14.6553,-14.7265,-14.7773,-14.789,-14.8007,-14.8789,-14.8906,-14.8576,-14.8941,-14.911,-14.9128,-14.9128,-14.9128,-14.9128,-14.9128,-14.9128,-14.9128,-14.9128,-14.9128,-14.9088,-14.9012,-14.9014,-14.8977,-14.892,-14.8881,-14.8816,-14.8816,-14.8816,-14.8816,-14.8816,-14.8816,-14.8816,-14.8816,-14.8816,-14.8816,-14.8816,-14.891,-14.9329,-15.0341,-15.0857,-15.0883,-15.1198,-15.1587,-15.1936,-15.1975,-15.2247,-15.2752,-15.2752,-15.2985,-15.3335,-15.349,-15.349,-15.349,-15.349,-15.349,-15.349,-15.3379,-15.3266,-15.3227,-15.3144,-15.3059,-15.2887,-15.2841,-15.2795,-15.2795,-15.2795,-15.2795,-15.2795,-15.2795,-15.2795,-15.2795,-15.2795,-15.2795,-15.2795,-15.2795,-15.2795,-15.2795,-15.2795,-15.27,-15.2552,-15.2449,-15.2344,-15.2163,-15.2106,-15.2049,-15.1991,-15.1991,-15.1991,-15.1991,-15.1991,-15.1932,-15.1713,-15.1526,-15.1332,-15.1237,-15.117,-15.1033,-15.1071,-15.1001,-15.1001,-15.1001,-15.1001,-15.1001,-15.1001,-15.1001,-15.0925,-14.8971,-14.8971,-14.8893,-14.8386,-14.7566,-14.6746,-14.6512,-14.6445,-14.5746,-14.5968,-14.6875,-14.7617,-14.8007,-14.8086,-14.8906,-14.9162,-14.9178,-14.9089,-14.9119,-14.9099,-14.9128,-14.9128,-14.9128,-14.9128,-14.9128,-14.9128,-14.9128,-14.9128,-14.9077,-14.9012,-14.8975,-14.8959,-14.894,-14.886,-14.8838,-14.8816,-14.8816,-14.8816,-14.8816,-14.8816,-14.8855,-14.8972,-14.9128,-14.9128,-14.9361,-14.9704,-15.0407,-15.1375,-15.2132,-15.232,-15.2325,-15.2674,-15.3296,-15.3451,-15.3412,-15.3374,-15.3374,-15.3412,-15.349,-15.349,-15.349,-15.349,-15.349,-15.349,-15.349,-15.3418,-15.3305,-15.3266,-15.3266,-15.3144,-15.3015,-15.2926,-15.2795,-15.2795,-15.2795,-15.2795,-15.2795,-15.2795,-15.2795,-15.2795,-15.2795,-15.2795,-15.2795,-15.2795,-15.2795,-15.2795,-15.2795,-15.27,-15.2552,-15.2449,-15.2236,-15.2049,-15.1991,-15.1991,-15.1991,-15.1991,-15.1991,-15.1991,-15.1991,-15.1932,-15.1872,-15.1651,-15.1462,-15.1332,-15.1266,-15.117,-15.1033,-15.1033,-15.1001,-15.1001,-15.1001,-15.1001,-15.1001,-15.1001,-15.0963,-14.8073,-14.8034,-14.7332,-14.6941,-14.6668,-14.5887,-14.5926,-14.6484,-14.5668,-14.6202,-14.7382,-14.7851,-14.8281,-14.8906,-14.9079,-14.9188,-14.9178,-14.9149,-14.9099,-14.9088,-14.9128,-14.9128,-14.9128,-14.9128,-14.9128,-14.9128,-14.9128,-14.9128,-14.9077,-14.9012,-14.8969,-14.8997,-14.896,-14.8881,-14.8838,-14.8816,-14.8816,-14.8816,-14.8816,-14.8894,-14.905,-14.9556,-14.9829,-14.9868,-15.0453,-15.1184,-15.1692,-15.1637,-15.2054,-15.2925,-15.3214,-15.3257,-15.3451,-15.349,-15.349,-15.349,-15.349,-15.349,-15.349,-15.349,-15.349,-15.349,-15.349,-15.349,-15.349,-15.349,-15.3418,-15.3342,-15.3266,-15.3187,-15.3059,-15.2887,-15.2795,-15.2795,-15.2795,-15.2795,-15.2795,-15.2795,-15.2795,-15.2795,-15.2795,-15.2795,-15.2795,-15.2795,-15.2795,-15.2795,-15.2748,-15.2651,-15.2552,-15.2397,-15.2236,-15.2049,-15.1991,-15.1991,-15.1991,-15.1991,-15.1991,-15.1991,-15.1991,-15.2029,-15.1872,-15.1812,-15.1651,-15.1462,-15.1332,-15.1266,-15.117,-15.1071,-15.1071,-15.1001,-15.1001,-15.1001,-15.1001,-15.1001,-15.0581,-14.7176,-14.7137,-14.6668,-14.6278,-14.5848,-14.5419,-14.5497,-14.5937,-14.5981,-14.6632,-14.7773,-14.8281,-14.8789,-14.9179,-14.9196,-14.9206,-14.9158,-14.9139,-14.9128,-14.9128,-14.9128,-14.9128,-14.9128,-14.9128,-14.9128,-14.9128,-14.9128,-14.9128,-14.9088,-14.9077,-14.9051,-14.8984,-14.8975,-14.8921,-14.886,-14.8799,-14.8816,-14.8933,-14.9245,-14.94,-14.9556,-15.0258,-15.0725,-15.0881,-15.1544,-15.226,-15.2458,-15.2532,-15.259,-15.2964,-15.3326,-15.349,-15.349,-15.349,-15.349,-15.349,-15.349,-15.349,-15.349,-15.349,-15.349,-15.349,-15.349,-15.349,-15.349,-15.349,-15.349,-15.3418,-15.3342,-15.3305,-15.3144,-15.2976,-15.2887,-15.2795,-15.2795,-15.2795,-15.2795,-15.2795,-15.2795,-15.2795,-15.2795,-15.2795,-15.2795,-15.2795,-15.2795,-15.2795,-15.2795,-15.27,-15.2501,-15.2397,-15.2236,-15.2106,-15.2049,-15.1991,-15.1991,-15.1991,-15.1991,-15.1991,-15.1991,-15.1991,-15.1932,-15.1872,-15.1774,-15.1651,-15.1526,-15.1462,-15.1332,-15.1237,-15.114,-15.114,-15.1102,-15.1071,-15.1001,-15.0925,-15.0237,-14.6278,-14.6278,-14.6161,-14.5692,-14.5067,-14.4989,-14.5146,-14.543,-14.6051,-14.6823,-14.789,-14.8711,-14.8906,-14.9179,-14.9206,-14.9157,-14.9136,-14.9119,-14.9128,-14.9128,-14.9128,-14.9128,-14.9128,-14.9128,-14.9128,-14.9128,-14.9128,-14.9128,-14.9128,-14.9128,-14.9038,-14.8999,-14.8984,-14.8958,-14.8921,-14.8821,-14.8838,-14.8916,-14.9556,-14.9985,-15.0219,-15.0998,-15.1622,-15.205,-15.2479,-15.2884,-15.299,-15.3066,-15.3165,-15.2607,-15.3015,-15.3331,-15.349,-15.349,-15.349,-15.349,-15.349,-15.349,-15.349,-15.349,-15.349,-15.349,-15.349,-15.349,-15.349,-15.3451,-15.3335,-15.3257,-15.3144,-15.3071,-15.3032,-15.2981,-15.2932,-15.2841,-15.2795,-15.2795,-15.2795,-15.2795,-15.2795,-15.2795,-15.2795,-15.2795,-15.2795,-15.2795,-15.2795,-15.2795,-15.2795,-15.2661,-15.2462,-15.2305,-15.2197,-15.2106,-15.2049,-15.1991,-15.1991,-15.1952,-15.1952,-15.1991,-15.1991,-15.1991,-15.1991,-15.1932,-15.1932,-15.1774,-15.1713,-15.1589,-15.1526,-15.1435,-15.1304,-15.1237,-15.114,-15.1109,-15.1001,-15.0887,-14.9893,-14.5419,-14.5341,-14.4677,-14.4326,-14.4209,-14.4209,-14.4638,-14.5263,-14.5479,-14.6417,-14.7773,-14.8086,-14.8593,-14.9023,-14.9206,-14.9144,-14.9119,-14.9088,-14.9128,-14.9128,-14.9128,-14.9128,-14.9128,-14.9128,-14.9128,-14.9128,-14.9128,-14.9128,-14.9128,-14.9128,-14.9088,-14.8999,-14.9012,-14.8969,-14.8958,-14.8921,-14.8881,-14.9037,-14.9756,-15.0241,-15.0553,-15.17,-15.2752,-15.3219,-15.3531,-15.3609,-15.3507,-15.3146,-15.2988,-15.333,-15.284,-15.2937,-15.3292,-15.3451,-15.349,-15.349,-15.349,-15.349,-15.3374,-15.3412,-15.349,-15.349,-15.3412,-15.349,-15.349,-15.3412,-15.3024,-15.2558,-15.2331,-15.2218,-15.2219,-15.2485,-15.2899,-15.2893,-15.2764,-15.2756,-15.2795,-15.2795,-15.2795,-15.2795,-15.2795,-15.2795,-15.2795,-15.2795,-15.2795,-15.2718,-15.2563,-15.2381,-15.214,-15.2112,-15.2136,-15.2086,-15.1991,-15.1991,-15.1991,-15.1914,-15.1914,-15.1991,-15.1991,-15.1991,-15.1991,-15.1991,-15.1932,-15.1834,-15.1774,-15.1713,-15.1589,-15.1526,-15.1462,-15.1397,-15.1276,-15.1147,-15.0841,-15.0566,-14.9587,-14.4599,-14.4521,-14.417,-14.3974,-14.3974,-14.3974,-14.4229,-14.4677,-14.5127,-14.602,-14.707,-14.7695,-14.8398,-14.9023,-14.9217,-14.9157,-14.911,-14.9128,-14.9128,-14.9128,-14.9128,-14.9128,-14.9128,-14.9128,-14.9128,-14.9128,-14.9128,-14.9128,-14.9128,-14.9128,-14.9088,-14.9038,-14.9012,-14.8984,-14.9008,-14.8958,-14.8939,-14.9212,-15.009,-15.0812,-15.0968,-15.2524,-15.3593,-15.391,-15.4022,-15.4022,-15.3905,-15.36,-15.3132,-15.3048,-15.2957,-15.2932,-15.2981,-15.3257,-15.349,-15.349,-15.3451,-15.3218,-15.2946,-15.283,-15.2791,-15.283,-15.283,-15.3102,-15.3218,-15.3063,-15.2441,-15.1781,-15.1474,-15.1401,-15.1403,-15.1673,-15.19,-15.2241,-15.2268,-15.2408,-15.2679,-15.2756,-15.2795,-15.2756,-15.2756,-15.2756,-15.2795,-15.2795,-15.2795,-15.2679,-15.2408,-15.2149,-15.1909,-15.1688,-15.1635,-15.147,-15.1375,-15.1491,-15.1529,-15.1529,-15.1645,-15.1799,-15.1991,-15.1991,-15.1952,-15.1914,-15.1952,-15.1991,-15.1932,-15.1565,-15.1774,-15.1713,-15.1651,-15.155,-15.1359,-15.1151,-15.0663,-15.006,-14.9151,-14.3974,-14.3974,-14.3974,-14.3974,-14.3974,-14.3974,-14.4004,-14.4152,-14.4724,-14.5485,-14.6406,-14.7226,-14.8086,-14.8789,-14.9101,-14.917,-14.911,-14.9099,-14.9128,-14.9128,-14.9128,-14.9128,-14.9128,-14.9128,-14.9128,-14.9128,-14.9128,-14.9128,-14.9128,-14.9128,-14.9128,-14.9088,-14.9025,-14.9012,-14.8998,-14.9008,-14.8992,-14.946,-15.0379,-15.1276,-15.2039,-15.3054,-15.397,-15.4067,-15.4048,-15.4027,-15.3949,-15.3843,-15.3457,-15.3222,-15.3213,-15.3307,-15.2782,-15.3136,-15.3408,-15.3292,-15.3257,-15.2752,-15.2208,-15.1936,-15.1936,-15.1936,-15.213,-15.2597,-15.2752,-15.2364,-15.1587,-15.0887,-15.0654,-15.0619,-15.0586,-15.0667,-15.0934,-15.1316,-15.161,-15.1828,-15.2331,-15.2563,-15.2601,-15.2601,-15.264,-15.264,-15.264,-15.2795,-15.2795,-15.2563,-15.2331,-15.1762,-15.1446,-15.0969,-15.0786,-15.0566,-15.0568,-15.0798,-15.0875,-15.0952,-15.1145,-15.1375,-15.176,-15.1991,-15.1875,-15.176,-15.1722,-15.1529,-15.1183,-15.0894,-15.1394,-15.1817,-15.1642,-15.1444,-15.1358,-15.0886,-15.0106,-14.9323,-14.8463,-14.3974,-14.3974,-14.3974,-14.3974,-14.3974,-14.3974,-14.4004,-14.4001,-14.4174,-14.4648,-14.5625,-14.6406,-14.7343,-14.8203,-14.8945,-14.914,-14.9112,-14.911,-14.9128,-14.9128,-14.9128,-14.9128,-14.9128,-14.9128,-14.9128,-14.9128,-14.9128,-14.9128,-14.9128,-14.9128,-14.9128,-14.9088,-14.9088,-14.9077,-14.9077,-14.9207,-14.8998,-14.9179,-14.9928,-15.1081,-15.2308,-15.2815,-15.3322,-15.3829,-15.4007,-15.3989,-15.399,-15.3988,-15.3765,-15.3665,-15.3677,-15.3689,-15.3524,-15.3501,-15.312,-15.2698,-15.2315,-15.1975,-15.1237,-15.1043,-15.1043,-15.1198,-15.1587,-15.213,-15.2014,-15.1548,-15.0732,-14.9955,-14.9838,-14.9838,-14.9885,-15.024,-15.051,-15.0777,-15.1035,-15.1371,-15.1828,-15.1905,-15.1983,-15.2021,-15.1905,-15.2215,-15.2369,-15.2601,-15.2756,-15.2485,-15.2129,-15.153,-15.0879,-15.0313,-15.0223,-15.0083,-14.9721,-14.9914,-15.0144,-15.0221,-15.0452,-15.0798,-15.1221,-15.1645,-15.1375,-15.1068,-15.0952,-15.0721,-15.0375,-15.0452,-15.1029,-15.1278,-15.1355,-15.1104,-15.0775,-15.0054,-14.9314,-14.8573,-14.7945,-14.3974,-14.3974,-14.3974,-14.3974,-14.3974,-14.3974,-14.4004,-14.4001,-14.3984,-14.4492,-14.5351,-14.6211,-14.7304,-14.8476,-14.9062,-14.914,-14.9131,-14.9128,-14.9088,-14.9128,-14.9128,-14.9128,-14.9128,-14.9128,-14.9128,-14.9128,-14.9128,-14.9128,-14.9128,-14.9128,-14.9128,-14.9128,-14.9128,-14.9088,-14.9167,-14.9584,-14.9416,-14.9494,-14.9949,-15.0925,-15.1861,-15.2213,-15.2564,-15.3408,-15.3432,-15.3595,-15.3872,-15.4029,-15.3944,-15.3847,-15.3821,-15.3755,-15.3699,-15.3563,-15.3105,-15.1782,-15.1564,-15.111,-15.0343,-15.0227,-15.0227,-15.0266,-15.0576,-15.0693,-15.0693,-15.0499,-14.9877,-14.9061,-14.8945,-14.8984,-14.8914,-14.9038,-14.9424,-14.9766,-15.0183,-15.0829,-15.1132,-15.1132,-15.1209,-15.1209,-15.1209,-15.1364,-15.1557,-15.175,-15.1867,-15.1867,-15.1286,-15.0535,-14.9925,-14.9258,-14.9437,-14.9737,-14.9317,-14.899,-14.9221,-14.9413,-14.9529,-14.9837,-15.0067,-15.0414,-15.0375,-15.0221,-15.0067,-14.999,-14.9837,-15.0106,-15.0568,-15.0606,-15.0452,-15.0202,-14.9971,-14.9255,-14.8595,-14.8241,-14.7551,-14.3818,-14.3974,-14.3974,-14.3974,-14.3974,-14.3974,-14.3995,-14.3989,-14.3981,-14.4375,-14.5117,-14.6093,-14.7578,-14.8867,-14.9179,-14.9218,-14.9218,-14.9157,-14.9119,-14.9099,-14.9128,-14.9128,-14.9128,-14.9128,-14.9128,-14.9128,-14.9128,-14.9128,-14.9128,-14.9128,-14.9128,-14.9128,-14.9128,-14.9128,-14.9284,-14.9518,-14.9557,-14.9206,-14.9662,-15.0443,-15.1197,-15.1392,-15.1899,-15.2395,-15.2681,-15.2886,-15.3344,-15.3658,-15.3598,-15.3522,-15.3769,-15.3821,-15.3794,-15.3416,-15.2726,-15.153,-15.1034,-15.032,-14.9672,-14.9406,-14.9372,-14.945,-14.9644,-14.9916,-14.9838,-14.9683,-14.9372,-14.8595,-14.8518,-14.8405,-14.8296,-14.8262,-14.8494,-14.8836,-14.9094,-14.9901,-15.0551,-15.0513,-15.0358,-15.0203,-15.0165,-15.0087,-15.0281,-15.0629,-15.0861,-15.1054,-15.0513,-14.9615,-14.9009,-14.8423,-14.8473,-14.879,-14.8543,-14.8124,-14.8221,-14.8452,-14.8606,-14.8913,-14.9183,-14.9452,-14.9644,-14.9452,-14.9183,-14.9144,-14.9106,-14.8836,-14.8836,-14.9144,-14.9413,-14.926,-14.901,-14.8528,-14.7927,-14.7613,-14.7194,-14.3272,-14.3974,-14.3974,-14.3974,-14.3974,-14.3974,-14.3974,-14.3995,-14.3979,-14.4062,-14.4531,-14.5859,-14.7539,-14.8789,-14.914,-14.9218,-14.9218,-14.9218,-14.9162,-14.9119,-14.9128,-14.9128,-14.9128,-14.9128,-14.9128,-14.9128,-14.9128,-14.9128,-14.9128,-14.9128,-14.9128,-14.9128,-14.9128,-14.9128,-14.9167,-14.9284,-14.9479,-14.9206,-14.9401,-14.9713,-15.026,-15.0572,-15.0923,-15.1587,-15.177,-15.1783,-15.1745,-15.2486,-15.2859,-15.2791,-15.3234,-15.3546,-15.3366,-15.2951,-15.2107,-15.1224,-15.0508,-14.9789,-14.9037,-14.874,-14.8556,-14.8751,-14.91,-14.9489,-14.945,-14.9605,-14.9217,-14.8556,-14.844,-14.8401,-14.8332,-14.8222,-14.8222,-14.8294,-14.8596,-14.9049,-14.9623,-14.9855,-14.9662,-14.9275,-14.912,-14.9081,-14.9081,-14.943,-14.9932,-15.0165,-14.9662,-14.8765,-14.8284,-14.7829,-14.7561,-14.7572,-14.748,-14.731,-14.7182,-14.7452,-14.7952,-14.8259,-14.849,-14.8875,-14.9221,-14.8875,-14.8298,-14.8182,-14.8067,-14.7567,-14.7336,-14.8067,-14.8529,-14.8375,-14.8087,-14.776,-14.7252,-14.6874,-14.6529,-14.2881,-14.3233,-14.3779,-14.3974,-14.3974,-14.3974,-14.3974,-14.3985,-14.4001,-14.4333,-14.4843,-14.6093,-14.7265,-14.8281,-14.9023,-14.9218,-14.9218,-14.9218,-14.9179,-14.914,-14.9128,-14.9139,-14.9128,-14.9088,-14.9128,-14.9128,-14.9128,-14.9128,-14.9128,-14.9128,-14.9128,-14.9128,-14.9128,-14.9128,-14.9128,-14.9167,-14.9362,-14.9596,-14.9362,-14.9362,-14.944,-14.9635,-15.0025,-15.0806,-15.0884,-15.1159,-15.1488,-15.1823,-15.1923,-15.2017,-15.2323,-15.2518,-15.2557,-15.2105,-15.1457,-15.0756,-15.016,-14.9457,-14.8748,-14.8493,-14.8468,-14.844,-14.8712,-14.8945,-14.9023,-14.8945,-14.8789,-14.8479,-14.8401,-14.8401,-14.8257,-14.8145,-14.8105,-14.8061,-14.8209,-14.8508,-14.8772,-14.9043,-14.912,-14.8811,-14.8424,-14.8192,-14.8192,-14.823,-14.8811,-14.9236,-14.8617,-14.8114,-14.779,-14.7502,-14.7405,-14.7253,-14.7201,-14.7095,-14.7008,-14.7239,-14.7452,-14.7644,-14.7836,-14.8067,-14.8336,-14.7875,-14.7375,-14.7221,-14.7259,-14.7144,-14.7221,-14.7528,-14.7682,-14.7644,-14.7433,-14.7144,-14.6676,-14.6249,-14.6053,-14.2218,-14.2764,-14.3389,-14.374,-14.3974,-14.3974,-14.3974,-14.3985,-14.3974,-14.4479,-14.5351,-14.6015,-14.6679,-14.7539,-14.8398,-14.8789,-14.8828,-14.9023,-14.9179,-14.9179,-14.9162,-14.9128,-14.9119,-14.911,-14.911,-14.9099,-14.9128,-14.9128,-14.9128,-14.9128,-14.9128,-14.9128,-14.9128,-14.9128,-14.9128,-14.9167,-14.944,-14.9674,-14.9518,-14.9323,-14.944,-14.9596,-14.9713,-15.0416,-15.0494,-15.0391,-15.0685,-15.0864,-15.1084,-15.1181,-15.1333,-15.1466,-15.1349,-15.1115,-15.0686,-15.0234,-14.9743,-14.9304,-14.8806,-14.8523,-14.8468,-14.8401,-14.844,-14.8479,-14.8401,-14.8401,-14.844,-14.844,-14.8401,-14.8328,-14.8257,-14.8145,-14.8106,-14.8064,-14.7855,-14.8076,-14.8153,-14.8385,-14.8424,-14.8346,-14.8037,-14.7805,-14.7844,-14.7921,-14.8153,-14.854,-14.8269,-14.7921,-14.7759,-14.7597,-14.7502,-14.7366,-14.7304,-14.7148,-14.7025,-14.7179,-14.7294,-14.7182,-14.7298,-14.7182,-14.7182,-14.6875,-14.6875,-14.699,-14.7028,-14.6913,-14.7028,-14.7259,-14.7144,-14.699,-14.6837,-14.6758,-14.6539,-14.6211,-14.6015,-14.1164,-14.2647,-14.2686,-14.3194,-14.3896,-14.3974,-14.3974,-14.3974,-14.3985,-14.4425,-14.5117,-14.539,-14.5859,-14.6718,-14.7539,-14.8007,-14.8281,-14.8789,-14.9101,-14.914,-14.9179,-14.914,-14.9123,-14.9112,-14.9105,-14.9099,-14.9099,-14.911,-14.9099,-14.9099,-14.9099,-14.9099,-14.9099,-14.9128,-14.9128,-14.9128,-14.9128,-14.9167,-14.9206,-14.9674,-15.0221,-15.0377,-15.0494,-15.0533,-15.0455,-15.0235,-15.0013,-15.0045,-15.0226,-15.0266,-15.0709,-15.0881,-15.092,-15.0375,-15.0063,-14.9946,-14.9284,-14.8823,-14.8612,-14.85,-14.8435,-14.8401,-14.8401,-14.8401,-14.8401,-14.8401,-14.8401,-14.8401,-14.8401,-14.8401,-14.8332,-14.8183,-14.8145,-14.8025,-14.7817,-14.7728,-14.7844,-14.7882,-14.7998,-14.8076,-14.7921,-14.7728,-14.7728,-14.7728,-14.7728,-14.7844,-14.7766,-14.7728,-14.7728,-14.7682,-14.7597,-14.7463,-14.7405,-14.7304,-14.7148,-14.7095,-14.7079,-14.6931,-14.6875,-14.6931,-14.6931,-14.6875,-14.6875,-14.6875,-14.6875,-14.6875,-14.6875,-14.6913,-14.6875,-14.6818,-14.6583,-14.6438,-14.6338,-14.6211,-14.6015,-14.0422,-14.1047,-14.1593,-14.2335,-14.3155,-14.3779,-14.3974,-14.3974,-14.4024,-14.4184,-14.4531,-14.5,-14.539,-14.5976,-14.664,-14.7304,-14.7851,-14.8047,-14.8476,-14.914,-14.9179,-14.9179,-14.914,-14.914,-14.914,-14.9167,-14.9157,-14.9136,-14.9105,-14.9136,-14.9136,-14.9097,-14.9188,-14.9088,-14.9128,-14.9167,-14.9284,-14.9869,-15.0064,-15.0377,-15.1118,-15.1275,-15.1275,-15.1236,-15.0767,-15.0248,-14.9779,-14.9788,-14.9504,-14.9447,-14.9912,-14.9868,-14.9868,-14.9361,-14.9323,-14.9284,-14.8816,-14.8769,-14.864,-14.8523,-14.8429,-14.8435,-14.8479,-14.8518,-14.844,-14.8401,-14.8401,-14.8479,-14.8518,-14.8518,-14.8367,-14.8222,-14.8106,-14.8066,-14.7903,-14.7772,-14.7766,-14.7766,-14.7805,-14.7844,-14.7728,-14.7728,-14.7728,-14.7728,-14.7728,-14.7728,-14.7728,-14.7728,-14.7728,-14.7728,-14.7643,-14.755,-14.7454,-14.7405,-14.7304,-14.7253,-14.7201,-14.7133,-14.7041,-14.7041,-14.6986,-14.6969,-14.6875,-14.6875,-14.6875,-14.6875,-14.6875,-14.6875,-14.6875,-14.6818,-14.6583,-14.64,-14.6338,-14.6211,-14.5987,-13.9836,-14.0149,-14.0734,-14.1437,-14.2335,-14.3194,-14.3701,-14.3935,-14.3974,-14.3974,-14.414,-14.4609,-14.4843,-14.5117,-14.5742,-14.6328,-14.7031,-14.7734,-14.8047,-14.8789,-14.9101,-14.914,-14.9218,-14.9218,-14.9179,-14.9179,-14.914,-14.9131,-14.9131,-14.9131,-14.9157,-14.9214,-14.9402,-14.9617,-14.9568,-14.9479,-14.9518,-15.0064,-15.0377,-15.0923,-15.1743,-15.2133,-15.2173,-15.1899,-15.1392,-15.0677,-15.0183,-14.9632,-14.8997,-14.896,-14.886,-14.8816,-14.8816,-14.8816,-14.8816,-14.8816,-14.8793,-14.8719,-14.864,-14.8523,-14.8461,-14.8401,-14.8634,-14.8984,-14.9178,-14.945,-14.9178,-14.9061,-14.8789,-14.8595,-14.8444,-14.8261,-14.8145,-14.8066,-14.7945,-14.7817,-14.7728,-14.7728,-14.7728,-14.7728,-14.7728,-14.7728,-14.7728,-14.7728,-14.7728,-14.7728,-14.7728,-14.7728,-14.7728,-14.7728,-14.7682,-14.7597,-14.755,-14.7502,-14.7454,-14.7405,-14.7355,-14.7291,-14.7239,-14.7148,-14.7025,-14.6951,-14.6913,-14.6875,-14.6875,-14.6875,-14.6875,-14.6875,-14.6875,-14.6818,-14.6643,-14.6523,-14.64,-14.6211,-14.5987,-13.929,-13.9992,-14.0071,-14.0539,-14.1437,-14.2374,-14.3233,-14.3974,-14.3974,-14.3974,-14.4024,-14.4054,-14.414,-14.4257,-14.4922,-14.539,-14.5742,-14.7031,-14.7656,-14.8125,-14.8672,-14.8945,-14.9179,-14.9218,-14.9218,-14.9218,-14.9179,-14.9179,-14.9218,-14.9179,-14.9179,-14.9371,-14.9847,-15.0065,-15.0008,-14.9958,-15.0076,-15.0728,-15.1079,-15.1782,-15.2758,-15.3031,-15.3031,-15.2758,-15.2212,-15.1392,-15.0665,-14.9803,-14.9265,-14.8978,-14.8881,-14.8838,-14.8816,-14.8816,-14.8816,-14.8793,-14.8769,-14.8719,-14.864,-14.8554,-14.8687,-14.8746,-14.9217,-14.9994,-15.011,-14.9877,-14.9489,-14.9256,-14.9061,-14.8789,-14.8522,-14.8337,-14.8184,-14.8066,-14.7984,-14.7817,-14.7728,-14.7728,-14.7728,-14.7728,-14.7728,-14.7728,-14.7728,-14.7728,-14.7728,-14.7728,-14.7728,-14.7728,-14.7728,-14.7728,-14.7728,-14.7728,-14.7643,-14.7597,-14.755,-14.7502,-14.7502,-14.7443,-14.7304,-14.7201,-14.7118,-14.7008,-14.6969,-14.6931,-14.6875,-14.6875,-14.6875,-14.6875,-14.6875,-14.6818,-14.6702,-14.6681,-14.6561,-14.6313,-14.6119,-13.8938,-13.9173,-13.9173,-13.968,-14.0617,-14.2062,-14.3194,-14.3935,-14.3974,-14.3974,-14.3974,-14.4004,-14.4006,-14.4023,-14.4297,-14.4726,-14.5273,-14.5937,-14.6875,-14.7578,-14.8242,-14.8672,-14.8984,-14.9218,-14.9218,-14.9218,-14.9218,-14.9218,-14.9218,-14.9218,-14.9218,-14.933,-15.0138,-15.0433,-15.0651,-15.0807,-15.1462,-15.1882,-15.2067,-15.273,-15.3461,-15.3812,-15.3812,-15.3539,-15.2914,-15.2094,-15.1224,-15.0271,-14.9655,-14.9075,-14.8881,-14.8816,-14.8816,-14.8816,-14.8816,-14.8816,-14.8793,-14.8769,-14.8694,-14.8573,-14.8748,-14.9083,-14.9484,-14.9217,-14.9294,-14.9333,-14.9256,-14.9256,-14.9139,-14.8867,-14.8522,-14.8335,-14.8145,-14.8106,-14.7945,-14.7817,-14.7728,-14.7728,-14.7728,-14.7728,-14.7728,-14.7728,-14.7728,-14.7728,-14.7728,-14.7728,-14.7728,-14.7728,-14.7728,-14.7728,-14.7728,-14.7728,-14.7728,-14.7643,-14.7643,-14.7597,-14.7636,-14.755,-14.7405,-14.7304,-14.7239,-14.7133,-14.7025,-14.6969,-14.6875,-14.6875,-14.6875,-14.6875,-14.6875,-14.6875,-14.6818,-14.674,-14.6622,-14.6438,-14.6249,-13.8782,-13.8782,-13.8782,-13.9485,-14.0734,-14.2101,-14.3204,-14.3887,-14.3985,-14.3974,-14.3974,-14.3974,-14.3984,-14.3984,-14.4062,-14.4297,-14.4765,-14.5312,-14.6132,-14.707,-14.7734,-14.8476,-14.8945,-14.9218,-14.9218,-14.9218,-14.9218,-14.9218,-14.9218,-14.9218,-14.9218,-14.9335,-15.0312,-15.0898,-15.1344,-15.2125,-15.2932,-15.3159,-15.3306,-15.361,-15.3961,-15.4292,-15.4281,-15.4085,-15.3422,-15.2602,-15.1743,-15.074,-14.9889,-14.917,-14.8881,-14.8799,-14.8838,-14.8816,-14.8816,-14.8816,-14.8816,-14.8769,-14.8681,-14.864,-14.8894,-14.9115,-14.9284,-14.8945,-14.91,-14.9294,-14.9294,-14.9256,-14.9061,-14.8828,-14.8526,-14.822,-14.8145,-14.8067,-14.7945,-14.7772,-14.7772,-14.7728,-14.7728,-14.7728,-14.7728,-14.7728,-14.7728,-14.7728,-14.7728,-14.7728,-14.7728,-14.7728,-14.7728,-14.7728,-14.7728,-14.7728,-14.7728,-14.7728,-14.7728,-14.7728,-14.7682,-14.7597,-14.755,-14.7405,-14.7355,-14.7201,-14.7041,-14.6931,-14.6875,-14.6875,-14.6875,-14.6875,-14.6875,-14.6875,-14.6836,-14.6779,-14.6663,-14.6622,-14.6438,-13.8782,-13.8821,-13.886,-13.9953,-14.1476,-14.2384,-14.3184,-14.3956,-14.4004,-14.3985,-14.3974,-14.3985,-14.4001,-14.3984,-14.3984,-14.3984,-14.4336,-14.4804,-14.5625,-14.6601,-14.7265,-14.8125,-14.8945,-14.9218,-14.9218,-14.9218,-14.9218,-14.9218,-14.9218,-14.9218,-14.9218,-14.9336,-15.0898,-15.1601,-15.1797,-15.3164,-15.3854,-15.3849,-15.3693,-15.3654,-15.4117,-15.4291,-15.4292,-15.4163,-15.3539,-15.2719,-15.177,-15.0847,-14.9959,-14.9326,-14.8921,-14.8842,-14.8838,-14.8816,-14.8816,-14.8816,-14.8816,-14.8793,-14.8706,-14.8655,-14.8612,-14.8601,-14.8468,-14.8512,-14.8789,-14.9139,-14.9178,-14.9061,-14.8867,-14.8712,-14.8483,-14.8259,-14.8145,-14.8066,-14.7942,-14.7772,-14.7728,-14.7728,-14.7728,-14.7728,-14.7728,-14.7728,-14.7728,-14.7728,-14.7728,-14.7728,-14.7728,-14.7728,-14.7728,-14.7728,-14.7728,-14.7728,-14.7728,-14.7728,-14.7728,-14.7728,-14.7728,-14.7643,-14.7597,-14.7502,-14.7454,-14.7253,-14.7079,-14.6986,-14.6931,-14.6875,-14.6875,-14.6875,-14.6875,-14.6836,-14.6798,-14.6759,-14.6702,-14.6433,-14.6178,-13.8782,-13.886,-13.9524,-14.0812,-14.2296,-14.2599,-14.3201,-14.3962,-14.3995,-14.4013,-14.3995,-14.4001,-14.3984,-14.3984,-14.3984,-14.3984,-14.4101,-14.4375,-14.5273,-14.6172,-14.6953,-14.7968,-14.8945,-14.9218,-14.9218,-14.9218,-14.9218,-14.9218,-14.9218,-14.9218,-14.9257,-14.9414,-15.0898,-15.1797,-15.1914,-15.3437,-15.4101,-15.4062,-15.3828,-15.3632,-15.3945,-15.4218,-15.4283,-15.4244,-15.3851,-15.3031,-15.2161,-15.1445,-15.0311,-14.9326,-14.9017,-14.8881,-14.8816,-14.8816,-14.8816,-14.8816,-14.8816,-14.8793,-14.8769,-14.8681,-14.8601,-14.8583,-14.8493,-14.8468,-14.859,-14.8867,-14.8945,-14.8828,-14.8712,-14.8595,-14.8444,-14.8298,-14.8106,-14.8025,-14.7899,-14.7772,-14.7728,-14.7728,-14.7728,-14.7728,-14.7728,-14.7728,-14.7728,-14.7728,-14.7728,-14.7728,-14.7728,-14.7728,-14.7728,-14.7728,-14.7728,-14.7728,-14.7728,-14.7728,-14.7728,-14.7728,-14.7728,-14.7728,-14.7643,-14.7597,-14.7502,-14.7304,-14.7095,-14.7041,-14.6986,-14.6931,-14.6875,-14.6875,-14.6836,-14.6682,-14.6297,-14.6028,-14.5759,-14.5549,-14.5452,-13.9016,-13.9524,-14.0734,-14.1788,-14.2647,-14.3097,-14.3583,-14.3935,-14.3982,-14.4004,-14.3995,-14.3984,-14.3984,-14.3984,-14.3984,-14.3984,-14.3984,-14.3984,-14.5156,-14.6172,-14.6875,-14.7812,-14.8554,-14.9218,-14.9218,-14.9218,-14.9218,-14.9218,-14.9218,-14.9218,-14.9257,-14.9492,-15.082,-15.1797,-15.1953,-15.3047,-15.3711,-15.3672,-15.3476,-15.332,-15.3437,-15.3789,-15.4218,-15.4312,-15.4,-15.3199,-15.2329,-15.1562,-15.0559,-14.9482,-14.894,-14.886,-14.8816,-14.8816,-14.8816,-14.8816,-14.8816,-14.8816,-14.8793,-14.873,-14.8655,-14.8612,-14.8554,-14.8461,-14.8435,-14.8673,-14.8673,-14.8556,-14.8556,-14.844,-14.8405,-14.8259,-14.8145,-14.8066,-14.7899,-14.7728,-14.7728,-14.7728,-14.7728,-14.7728,-14.7728,-14.7728,-14.7728,-14.7728,-14.7728,-14.7728,-14.7728,-14.7728,-14.7728,-14.7728,-14.7728,-14.7728,-14.7728,-14.7728,-14.7728,-14.7728,-14.7728,-14.7728,-14.7728,-14.7597,-14.7502,-14.7355,-14.7162,-14.7095,-14.6986,-14.6931,-14.6875,-14.6721,-14.6413,-14.6182,-14.5643,-14.5105,-14.4874,-14.4643,-14.4377,-13.9368,-14.0422,-14.1866,-14.2686,-14.2959,-14.3662,-14.3974,-14.3974,-14.3974,-14.3974,-14.3985,-14.4006,-14.3983,-14.3984,-14.3984,-14.3984,-14.4062,-14.4297,-14.5351,-14.6289,-14.6757,-14.7851,-14.8672,-14.9218,-14.9218,-14.9218,-14.9218,-14.9218,-14.9218,-14.9218,-14.9297,-14.957,-15.0468,-15.1601,-15.1875,-15.2343,-15.2851,-15.2734,-15.2461,-15.2031,-15.2461,-15.3125,-15.3554,-15.3867,-15.383,-15.3121,-15.2055,-15.1263,-15.0456,-14.9694,-14.8901,-14.886,-14.8816,-14.8816,-14.8816,-14.8816,-14.8816,-14.8816,-14.8816,-14.873,-14.8655,-14.8573,-14.8554,-14.8461,-14.8435,-14.8401,-14.8401,-14.8401,-14.8401,-14.8401,-14.8332,-14.8259,-14.8145,-14.8066,-14.786,-14.7728,-14.7728,-14.7728,-14.7728,-14.7728,-14.7728,-14.7728,-14.7728,-14.7728,-14.7728,-14.7728,-14.7728,-14.7728,-14.7728,-14.7728,-14.7728,-14.7728,-14.7728,-14.7728,-14.7728,-14.7728,-14.7728,-14.7728,-14.7728,-14.7597,-14.755,-14.7355,-14.7253,-14.7148,-14.7041,-14.6931,-14.6605,-14.6374,-14.6067,-14.5682,-14.4836,-14.4259,-14.4066,-14.378,-14.3321,-13.9719,-14.1164,-14.1554,-14.2452,-14.3662,-14.3935,-14.3974,-14.3974,-14.3974,-14.3974,-14.4024,-14.3995,-14.3982,-14.4011,-14.3984,-14.4139,-14.4514,-14.477,-14.5558,-14.6523,-14.7221,-14.8203,-14.8906,-14.9179,-14.9218,-14.9196,-14.9183,-14.9218,-14.9179,-14.9179,-14.9218,-14.9336,-15.0117,-15.082,-15.0937,-15.1484,-15.1992,-15.1875,-15.1797,-15.1484,-15.1601,-15.2031,-15.2109,-15.2226,-15.219,-15.1531,-15.0923,-15.065,-14.9962,-14.9335,-14.89,-14.8881,-14.8838,-14.8816,-14.8816,-14.8816,-14.8816,-14.8816,-14.8793,-14.8754,-14.8681,-14.8612,-14.8554,-14.8493,-14.8468,-14.8401,-14.8401,-14.8401,-14.8401,-14.8401,-14.8332,-14.8222,-14.8106,-14.7987,-14.786,-14.7772,-14.7728,-14.7728,-14.7728,-14.7728,-14.7728,-14.7728,-14.7728,-14.7728,-14.7728,-14.7728,-14.7728,-14.7728,-14.7728,-14.7728,-14.7689,-14.7689,-14.7689,-14.7728,-14.7728,-14.7728,-14.7728,-14.7728,-14.7728,-14.7682,-14.755,-14.7405,-14.7304,-14.7201,-14.7041,-14.6875,-14.6567,-14.599,-14.5605,-14.5143,-14.4028,-14.3374,-14.322,-14.2955,-14.2533]}]]